[[{"header":{"parameterUnit":"m.s-1","parameterCategory":1,"la1":31.0,"la2":29.5877,"lo1":-88.7671,"lo2":-86.6584,"dy":0.0162,"dx":0.0185,"nx":115,"ny":88,"refTime":"2025-04-09T12:00:00:Z","depth":0,"parameterNumber":2,"parameterNumberName":"U-component_of_WINDS"},"data":[0.0,0.0,0.0,0.0,0.0,0.0,0.0,0.0,0.0,0.0,0.0,0.0,0.0,0.0,0.0,0.0,0.0,0.0,0.0,0.0,0.0,0.0,0.0,0.0,0.0,0.0,0.0,0.0,0.0,0.0,0.0,0.0,0.0,0.0,0.0,0.0,0.0,0.0,0.0,0.0,0.0,0.0,0.0,0.0,0.0,0.0,0.0,0.0,0.0,0.0,0.0,0.0,0.0,0.0,0.0,0.0,0.0,0.0,0.0,0.0,0.0,0.0,0.0,0.0,0.0,0.0,0.0,0.0,0.0,0.0,0.0,0.0,0.0,0.0,0.0,0.0,0.0,0.0,0.0,0.0,0.0,0.0,0.0,0.0,0.0,0.0,0.0,0.0,0.0,0.0,0.0,0.0,0.0,0.0,0.0,0.0,0.0,0.0,0.0,0.0,0.0,0.0,0.0,0.0,0.0,0.0,0.0,0.0,0.0,0.0,0.0,0.0,0.0,0.0,0.0,0.0,0.0,0.0,0.0,0.0,0.0,0.0,0.0,0.0,0.0,0.0,0.0,0.0,0.0,0.0,0.0,0.0,0.0,0.0,0.0,0.0,0.0,0.0,0.0,0.0,0.0,0.0,0.0,0.0,0.0,0.0,0.0,0.0,0.0,0.0,0.0,0.0,0.0,0.0,0.0,0.0,0.0,0.0,0.0,0.0,0.0,0.0,0.0,0.0,0.0,0.0,0.0,0.0,0.0,0.0,0.0,0.0,0.0,0.0,0.0,0.0,0.0,0.0,0.0,0.0,0.0,0.0,0.0,0.0,0.0,0.0,0.0,0.0,0.0,0.0,0.0,0.0,0.0,0.0,0.0,0.0,0.0,0.0,0.0,0.0,0.0,0.0,0.0,0.0,0.0,0.0,0.0,0.0,0.0,0.0,0.0,0.0,0.0,0.0,0.0,0.0,0.0,0.0,0.0,0.0,0.0,0.0,0.0,0.0,0.0,0.0,0.0,0.0,0.0,0.0,0.0,0.0,0.0,0.0,0.0,0.0,0.0,0.0,0.0,0.0,0.0,0.0,0.0,0.0,0.0,0.0,0.0,0.0,0.0,0.0,0.0,0.0,0.0,0.0,0.0,0.0,0.0,0.0,0.0,0.0,0.0,0.0,0.0,0.0,0.0,0.0,0.0,0.0,0.0,0.0,0.0,0.0,0.0,0.0,0.0,0.0,0.0,0.0,0.0,0.0,0.0,0.0,0.0,0.0,0.0,0.0,0.0,0.0,0.0,0.0,0.0,0.0,0.0,0.0,0.0,0.0,0.0,0.0,0.0,0.0,0.0,0.0,0.0,0.0,0.0,0.0,0.0,0.0,0.0,0.0,0.0,0.0,0.0,0.0,0.0,0.0,0.0,0.0,0.0,0.0,0.0,0.0,0.0,0.0,0.0,0.0,0.0,0.0,0.0,0.0,0.0,0.0,0.0,0.0,0.0,0.0,0.0,0.0,0.0,0.0,0.0,0.0,0.0,0.0,0.0,0.0,0.0,0.0,0.0,0.0,0.0,0.0,0.0,0.0,0.0,0.0,0.0,0.0,0.0,0.0,0.0,0.0,0.0,0.0,0.0,0.0,0.0,0.0,0.0,0.0,0.0,0.0,0.0,0.0,0.0,0.0,0.0,0.0,0.0,0.0,0.0,0.0,0.0,0.0,0.0,0.0,0.0,0.0,0.0,0.0,0.0,0.0,0.0,0.0,0.0,0.0,0.0,0.0,0.0,0.0,0.0,0.0,0.0,0.0,0.0,0.0,0.0,0.0,0.0,0.0,0.0,0.0,0.0,0.0,0.0,0.0,0.0,0.0,0.0,0.0,0.0,0.0,0.0,0.0,0.0,0.0,0.0,0.0,0.0,0.0,0.0,0.0,0.0,0.0,0.0,0.0,0.0,0.0,0.0,0.0,0.0,0.0,0.0,0.0,0.0,0.0,0.0,0.0,0.0,0.0,0.0,0.0,0.0,0.0,0.0,0.0,0.0,0.0,0.0,0.0,0.0,0.0,0.0,0.0,0.0,0.0,0.0,0.0,0.0,0.0,0.0,0.0,0.0,0.0,0.0,0.0,0.0,0.0,0.0,0.0,0.0,0.0,0.0,0.0,0.0,0.0,0.0,0.0,0.0,0.0,0.0,0.0,0.0,0.0,0.0,0.0,0.0,0.0,0.0,0.0,0.0,0.0,0.0,0.0,0.0,0.0,0.0,0.0,0.0,0.0,0.0,0.0,0.0,0.0,0.0,0.0,0.0,0.0,0.0,0.0,0.0,0.0,0.0,0.0,0.0,0.0,0.0,0.0,0.0,0.0,0.0,0.0,0.0,0.0,0.0,0.0,0.0,0.0,0.0,0.0,0.0,0.0,0.0,0.0,0.0,0.0,0.0,0.0,0.0,0.0,0.0,0.0,0.0,0.0,0.0,0.0,0.0,0.0,0.0,0.0,0.0,0.0,0.0,0.0,0.0,0.0,0.0,0.0,0.0,0.0,0.0,0.0,0.0,0.0,0.0,0.0,0.0,0.0,0.0,0.0,0.0,0.0,0.0,0.0,0.0,0.0,0.0,0.0,0.0,0.0,0.0,0.0,0.0,0.0,0.0,0.0,0.0,0.0,0.0,0.0,0.0,0.0,0.0,0.0,0.0,0.0,0.0,0.0,0.0,0.0,0.0,0.0,0.0,0.0,0.0,0.0,0.0,0.0,0.0,0.0,0.0,0.0,0.0,0.0,0.0,0.0,0.0,0.0,0.0,0.0,0.0,0.0,0.0,0.0,0.0,0.0,0.0,0.0,0.0,0.0,0.0,0.0,0.0,0.0,0.0,0.0,0.0,0.0,0.0,0.0,0.0,0.0,0.0,0.0,0.0,0.0,0.0,0.0,0.0,0.0,0.0,0.0,0.0,0.0,0.0,0.0,0.0,0.0,0.0,0.0,0.0,0.0,0.0,0.0,0.0,0.0,0.0,0.0,0.0,0.0,0.0,0.0,0.0,0.0,0.0,0.0,0.0,0.0,0.0,0.0,0.0,0.0,0.0,0.0,0.0,0.0,0.0,0.0,0.0,0.0,0.0,0.0,0.0,0.0,0.0,0.0,0.0,0.0,0.0,0.0,0.0,0.0,0.0,0.0,0.0,0.0,0.0,0.0,0.0,0.0,0.0,0.0,0.0,0.0,0.0,0.0,0.0,0.0,0.0,0.0,0.0,0.0,0.0,0.0,0.0,0.0,0.0,0.0,0.0,0.0,0.0,0.0,0.0,0.0,0.0,0.0,0.0,0.0,0.0,0.0,0.0,0.0,0.0,0.0,0.0,0.0,0.0,0.0,0.0,0.0,0.0,0.0,0.0,0.0,0.0,0.0,0.0,0.0,0.0,0.0,0.0,0.0,0.0,0.0,0.0,0.0,0.0,0.0,0.0,0.0,0.0,0.0,0.0,0.0,0.0,0.0,0.0,0.0,0.0,0.0,0.0,0.0,0.0,0.0,0.0,0.0,0.0,0.0,0.0,0.0,0.0,0.0,0.0,0.0,0.0,0.0,0.0,0.0,0.0,0.0,0.0,0.0,0.0,0.0,0.0,0.0,0.0,0.0,0.0,0.0,0.0,0.0,0.0,0.0,0.0,0.0,0.0,0.0,0.0,0.0,0.0,0.0,0.0,0.0,0.0,0.0,0.0,0.0,0.0,0.0,0.0,0.0,0.0,0.0,0.0,0.0,0.0,0.0,0.0,0.0,0.0,0.0,0.0,0.0,0.0,0.0,0.0,0.0,0.0,0.0,0.0,0.0,0.0,0.0,0.0,0.0,0.0,0.0,0.0,0.0,0.0,0.0,0.0,0.0,0.0,0.0,0.0,0.0,0.0,0.0,0.0,0.0,0.0,0.0,0.0,0.0,0.0,0.0,0.0,0.0,0.0,0.0,0.0,0.0,0.0,0.0,0.0,0.0,0.0,0.0,0.0,0.0,0.0,0.0,0.0,0.0,0.0,0.0,0.0,0.0,0.0,0.0,0.0,0.0,0.0,0.0,0.0,0.0,0.0,0.0,0.0,0.0,0.0,0.0,0.0,0.0,0.0,0.0,0.0,0.0,0.0,0.0,0.0,0.0,0.0,0.0,0.0,0.0,0.0,0.0,0.0,0.0,0.0,0.0,0.0,0.0,0.0,0.0,0.0,0.0,0.0,0.0,0.0,0.0,0.0,0.0,0.0,0.0,0.0,0.0,0.0,0.0,0.0,0.0,0.0,0.0,-2.9918,0.0,0.0,0.0,0.0,0.0,0.0,0.0,0.0,0.0,0.0,0.0,0.0,0.0,0.0,0.0,0.0,0.0,0.0,0.0,0.0,0.0,0.0,0.0,0.0,0.0,0.0,0.0,0.0,0.0,0.0,0.0,0.0,0.0,0.0,0.0,0.0,0.0,0.0,0.0,0.0,0.0,0.0,0.0,0.0,0.0,0.0,0.0,0.0,0.0,0.0,0.0,0.0,0.0,0.0,0.0,0.0,0.0,0.0,0.0,0.0,0.0,0.0,0.0,0.0,0.0,0.0,0.0,0.0,0.0,0.0,0.0,0.0,0.0,0.0,0.0,0.0,0.0,0.0,0.0,0.0,0.0,0.0,0.0,0.0,0.0,0.0,0.0,0.0,0.0,0.0,0.0,0.0,0.0,0.0,0.0,0.0,0.0,0.0,0.0,0.0,0.0,0.0,0.0,0.0,0.0,0.0,0.0,0.0,0.0,0.0,-3.0868,-3.248,-3.248,-3.2219,-3.1631,0.0,0.0,0.0,0.0,0.0,0.0,0.0,0.0,0.0,0.0,0.0,0.0,0.0,0.0,0.0,0.0,0.0,0.0,0.0,0.0,0.0,0.0,0.0,0.0,0.0,0.0,0.0,0.0,0.0,0.0,0.0,0.0,0.0,0.0,0.0,0.0,0.0,0.0,0.0,0.0,0.0,0.0,0.0,0.0,0.0,0.0,0.0,0.0,0.0,0.0,0.0,0.0,0.0,0.0,0.0,0.0,0.0,0.0,0.0,0.0,0.0,0.0,0.0,0.0,0.0,0.0,0.0,0.0,0.0,0.0,0.0,0.0,0.0,0.0,0.0,0.0,0.0,0.0,0.0,0.0,0.0,0.0,0.0,0.0,0.0,0.0,0.0,0.0,0.0,0.0,0.0,0.0,0.0,0.0,0.0,0.0,0.0,0.0,0.0,0.0,0.0,0.0,0.0,0.0,0.0,0.0,0.0,0.0,0.0,0.0,0.0,0.0,-3.4238,-3.3606,-3.2199,0.0,0.0,0.0,0.0,0.0,0.0,0.0,0.0,0.0,0.0,0.0,0.0,0.0,0.0,0.0,0.0,0.0,0.0,0.0,0.0,0.0,0.0,0.0,0.0,0.0,0.0,0.0,0.0,0.0,0.0,0.0,0.0,0.0,0.0,0.0,0.0,0.0,0.0,0.0,0.0,0.0,0.0,0.0,0.0,0.0,0.0,0.0,0.0,0.0,0.0,0.0,0.0,0.0,0.0,0.0,0.0,0.0,0.0,0.0,0.0,0.0,0.0,0.0,0.0,0.0,0.0,0.0,0.0,0.0,0.0,0.0,0.0,0.0,0.0,0.0,0.0,0.0,0.0,0.0,0.0,0.0,0.0,0.0,0.0,0.0,0.0,0.0,0.0,0.0,0.0,0.0,0.0,0.0,0.0,0.0,0.0,0.0,0.0,0.0,0.0,0.0,0.0,0.0,0.0,0.0,0.0,0.0,0.0,0.0,0.0,-3.3894,-3.5375,-3.6115,0.0,-3.1095,0.0,0.0,0.0,0.0,0.0,0.0,0.0,0.0,0.0,0.0,0.0,0.0,0.0,0.0,0.0,0.0,0.0,0.0,0.0,0.0,0.0,0.0,0.0,0.0,0.0,0.0,0.0,0.0,0.0,0.0,0.0,0.0,0.0,0.0,0.0,0.0,0.0,0.0,0.0,0.0,0.0,0.0,0.0,0.0,0.0,0.0,0.0,0.0,0.0,0.0,0.0,0.0,0.0,0.0,0.0,0.0,0.0,0.0,0.0,0.0,0.0,0.0,0.0,0.0,0.0,0.0,0.0,0.0,0.0,0.0,0.0,0.0,0.0,0.0,0.0,0.0,0.0,0.0,0.0,0.0,0.0,0.0,0.0,0.0,0.0,0.0,0.0,0.0,0.0,0.0,0.0,0.0,0.0,0.0,0.0,0.0,0.0,0.0,0.0,0.0,0.0,0.0,0.0,0.0,0.0,0.0,0.0,0.0,0.0,0.0,-3.43,-3.6248,-3.6648,-3.5416,0.0,0.0,0.0,0.0,0.0,0.0,0.0,0.0,0.0,0.0,0.0,0.0,0.0,0.0,0.0,0.0,0.0,0.0,0.0,0.0,0.0,0.0,0.0,0.0,0.0,0.0,0.0,0.0,0.0,0.0,0.0,0.0,0.0,0.0,0.0,0.0,0.0,0.0,0.0,0.0,0.0,0.0,0.0,0.0,0.0,0.0,0.0,0.0,0.0,0.0,0.0,0.0,0.0,0.0,0.0,0.0,0.0,0.0,0.0,0.0,0.0,0.0,0.0,0.0,0.0,0.0,0.0,0.0,0.0,0.0,0.0,0.0,0.0,0.0,0.0,0.0,0.0,0.0,0.0,0.0,0.0,0.0,0.0,0.0,0.0,0.0,0.0,0.0,0.0,0.0,0.0,0.0,0.0,0.0,0.0,0.0,0.0,0.0,0.0,0.0,0.0,0.0,0.0,0.0,0.0,0.0,0.0,0.0,0.0,0.0,-3.2488,-3.4956,-3.7408,-3.7818,-3.6632,-3.3922,0.0,0.0,0.0,0.0,0.0,0.0,0.0,0.0,0.0,0.0,0.0,0.0,0.0,0.0,0.0,0.0,0.0,0.0,0.0,0.0,0.0,0.0,0.0,0.0,0.0,0.0,0.0,0.0,0.0,0.0,0.0,0.0,0.0,0.0,0.0,0.0,0.0,0.0,0.0,0.0,0.0,0.0,0.0,0.0,0.0,0.0,0.0,0.0,0.0,0.0,0.0,0.0,0.0,0.0,0.0,0.0,0.0,0.0,0.0,0.0,0.0,0.0,0.0,0.0,0.0,0.0,0.0,0.0,0.0,0.0,0.0,0.0,0.0,0.0,0.0,0.0,0.0,0.0,0.0,0.0,0.0,0.0,0.0,0.0,0.0,0.0,0.0,0.0,0.0,0.0,0.0,0.0,0.0,0.0,0.0,0.0,0.0,0.0,0.0,0.0,0.0,0.0,0.0,0.0,0.0,0.0,0.0,0.0,0.0,-3.3276,-3.6082,-3.9439,-4.0296,-3.8745,0.0,0.0,0.0,0.0,0.0,0.0,0.0,0.0,0.0,0.0,0.0,0.0,0.0,0.0,0.0,0.0,0.0,0.0,0.0,0.0,0.0,0.0,0.0,0.0,0.0,0.0,0.0,0.0,0.0,0.0,0.0,0.0,0.0,0.0,0.0,0.0,0.0,0.0,0.0,0.0,0.0,0.0,0.0,0.0,0.0,0.0,0.0,0.0,0.0,0.0,0.0,0.0,0.0,0.0,0.0,0.0,0.0,0.0,0.0,0.0,0.0,0.0,0.0,0.0,0.0,0.0,0.0,0.0,0.0,0.0,0.0,0.0,0.0,0.0,0.0,0.0,0.0,0.0,0.0,0.0,0.0,0.0,0.0,0.0,0.0,0.0,0.0,0.0,0.0,0.0,0.0,0.0,0.0,0.0,0.0,0.0,0.0,0.0,0.0,0.0,0.0,0.0,0.0,0.0,0.0,0.0,0.0,0.0,0.0,-3.1024,-3.5022,-3.8179,-4.036,-3.9829,-3.8295,0.0,0.0,0.0,0.0,0.0,0.0,0.0,0.0,0.0,0.0,0.0,0.0,0.0,0.0,0.0,0.0,0.0,0.0,0.0,0.0,0.0,0.0,0.0,0.0,0.0,0.0,0.0,0.0,0.0,0.0,0.0,0.0,0.0,0.0,0.0,0.0,0.0,0.0,0.0,0.0,0.0,0.0,0.0,0.0,0.0,0.0,0.0,0.0,0.0,0.0,0.0,0.0,0.0,0.0,0.0,0.0,0.0,0.0,0.0,0.0,0.0,0.0,0.0,0.0,0.0,0.0,0.0,0.0,0.0,0.0,0.0,0.0,0.0,0.0,0.0,0.0,0.0,0.0,0.0,0.0,0.0,0.0,0.0,0.0,0.0,0.0,0.0,0.0,0.0,0.0,0.0,0.0,0.0,0.0,0.0,0.0,0.0,0.0,0.0,0.0,0.0,0.0,0.0,0.0,0.0,0.0,0.0,0.0,0.0,-3.2144,0.0,-3.9413,0.0,-3.9931,-3.8509,0.0,0.0,0.0,0.0,0.0,0.0,0.0,0.0,0.0,0.0,0.0,0.0,0.0,0.0,0.0,0.0,0.0,0.0,0.0,0.0,0.0,0.0,0.0,0.0,0.0,0.0,0.0,0.0,0.0,0.0,0.0,0.0,0.0,0.0,0.0,0.0,0.0,0.0,0.0,0.0,0.0,0.0,0.0,0.0,0.0,0.0,0.0,0.0,0.0,0.0,0.0,0.0,0.0,0.0,0.0,0.0,0.0,0.0,0.0,0.0,0.0,0.0,0.0,0.0,0.0,0.0,0.0,0.0,0.0,0.0,0.0,0.0,0.0,0.0,0.0,0.0,0.0,0.0,0.0,0.0,0.0,0.0,0.0,0.0,0.0,0.0,0.0,0.0,0.0,0.0,0.0,0.0,0.0,0.0,0.0,0.0,0.0,0.0,0.0,0.0,0.0,0.0,0.0,0.0,0.0,0.0,0.0,0.0,-2.9968,-3.4348,-3.7774,-3.9637,-3.9755,-4.0788,-3.9486,0.0,0.0,0.0,0.0,0.0,0.0,0.0,0.0,0.0,0.0,0.0,0.0,0.0,0.0,0.0,0.0,0.0,0.0,0.0,0.0,0.0,0.0,0.0,0.0,0.0,0.0,0.0,0.0,0.0,0.0,0.0,0.0,0.0,0.0,0.0,0.0,0.0,0.0,0.0,0.0,0.0,0.0,0.0,0.0,0.0,0.0,0.0,0.0,0.0,0.0,0.0,0.0,0.0,0.0,0.0,0.0,0.0,0.0,0.0,0.0,0.0,0.0,0.0,0.0,0.0,0.0,0.0,0.0,0.0,0.0,0.0,0.0,0.0,0.0,0.0,0.0,0.0,0.0,0.0,0.0,0.0,0.0,0.0,0.0,0.0,0.0,0.0,0.0,0.0,0.0,0.0,0.0,0.0,0.0,0.0,0.0,0.0,0.0,0.0,0.0,0.0,0.0,0.0,0.0,0.0,0.0,0.0,0.0,0.0,-3.4493,-3.8304,-4.0828,-4.1903,-4.1298,-4.0095,0.0,0.0,0.0,0.0,0.0,0.0,0.0,0.0,0.0,0.0,0.0,0.0,0.0,0.0,0.0,0.0,0.0,0.0,0.0,0.0,0.0,0.0,0.0,0.0,0.0,0.0,0.0,0.0,0.0,0.0,0.0,0.0,0.0,0.0,0.0,0.0,0.0,0.0,0.0,0.0,0.0,0.0,0.0,0.0,0.0,0.0,0.0,0.0,0.0,0.0,0.0,0.0,0.0,0.0,0.0,0.0,0.0,0.0,0.0,0.0,0.0,0.0,0.0,0.0,0.0,0.0,0.0,0.0,0.0,0.0,0.0,0.0,0.0,0.0,0.0,0.0,0.0,0.0,0.0,0.0,0.0,0.0,0.0,0.0,0.0,0.0,0.0,0.0,0.0,0.0,0.0,0.0,0.0,0.0,0.0,0.0,0.0,0.0,0.0,0.0,0.0,0.0,0.0,0.0,0.0,0.0,0.0,0.0,0.0,-3.6206,-3.9426,-4.166,-4.2683,-4.2104,-4.0914,-3.9066,0.0,0.0,0.0,0.0,0.0,0.0,0.0,0.0,0.0,0.0,0.0,0.0,0.0,0.0,0.0,0.0,0.0,0.0,0.0,0.0,0.0,0.0,0.0,0.0,0.0,0.0,0.0,0.0,0.0,0.0,0.0,0.0,0.0,0.0,0.0,0.0,0.0,0.0,0.0,0.0,0.0,0.0,0.0,0.0,0.0,0.0,0.0,0.0,0.0,0.0,0.0,0.0,0.0,0.0,0.0,0.0,0.0,0.0,0.0,0.0,0.0,0.0,0.0,0.0,0.0,0.0,0.0,0.0,0.0,0.0,0.0,0.0,0.0,0.0,0.0,0.0,0.0,0.0,0.0,0.0,0.0,0.0,0.0,0.0,0.0,0.0,0.0,0.0,0.0,0.0,0.0,0.0,0.0,0.0,0.0,0.0,0.0,0.0,0.0,0.0,0.0,0.0,0.0,0.0,0.0,0.0,0.0,0.0,-3.9151,-4.1122,-4.2267,-4.2511,-4.3233,-4.1919,0.0,0.0,0.0,0.0,0.0,0.0,0.0,0.0,0.0,0.0,0.0,0.0,0.0,0.0,0.0,0.0,0.0,0.0,0.0,0.0,0.0,0.0,0.0,0.0,0.0,0.0,0.0,0.0,0.0,0.0,0.0,0.0,0.0,0.0,0.0,0.0,0.0,0.0,0.0,0.0,0.0,0.0,0.0,0.0,0.0,0.0,0.0,0.0,0.0,0.0,0.0,0.0,0.0,0.0,0.0,0.0,0.0,0.0,0.0,0.0,0.0,0.0,0.0,0.0,0.0,0.0,0.0,0.0,0.0,0.0,0.0,0.0,0.0,0.0,0.0,0.0,0.0,0.0,0.0,0.0,0.0,0.0,0.0,0.0,0.0,0.0,0.0,0.0,0.0,0.0,0.0,0.0,0.0,0.0,0.0,0.0,0.0,0.0,0.0,0.0,0.0,0.0,0.0,0.0,0.0,0.0,0.0,0.0,0.0,-4.1257,-4.3448,-4.4565,-4.4629,-4.3819,-4.2631,0.0,0.0,0.0,0.0,0.0,0.0,0.0,0.0,0.0,0.0,0.0,0.0,0.0,0.0,0.0,0.0,0.0,0.0,0.0,0.0,0.0,0.0,0.0,0.0,0.0,0.0,0.0,0.0,0.0,0.0,0.0,0.0,0.0,0.0,0.0,0.0,0.0,0.0,0.0,0.0,0.0,0.0,0.0,0.0,0.0,0.0,0.0,0.0,0.0,0.0,0.0,0.0,0.0,0.0,0.0,0.0,0.0,0.0,0.0,0.0,0.0,0.0,0.0,0.0,0.0,0.0,0.0,0.0,0.0,0.0,0.0,0.0,0.0,0.0,0.0,0.0,0.0,0.0,0.0,0.0,0.0,0.0,0.0,0.0,0.0,0.0,0.0,0.0,0.0,0.0,0.0,0.0,0.0,0.0,0.0,0.0,0.0,0.0,0.0,0.0,0.0,0.0,0.0,0.0,0.0,0.0,0.0,0.0,-3.8027,-4.1912,-4.4838,-4.6402,-4.6546,-4.5285,-4.37,0.0,0.0,0.0,0.0,0.0,0.0,0.0,0.0,0.0,0.0,0.0,0.0,0.0,0.0,0.0,0.0,0.0,0.0,0.0,0.0,0.0,0.0,0.0,0.0,0.0,0.0,0.0,0.0,0.0,0.0,0.0,0.0,0.0,0.0,0.0,0.0,0.0,0.0,0.0,0.0,0.0,0.0,0.0,0.0,0.0,0.0,0.0,0.0,0.0,0.0,0.0,0.0,0.0,0.0,0.0,0.0,0.0,0.0,0.0,0.0,0.0,0.0,0.0,0.0,0.0,0.0,0.0,0.0,0.0,0.0,0.0,0.0,0.0,0.0,0.0,0.0,0.0,0.0,0.0,0.0,0.0,0.0,0.0,0.0,0.0,0.0,0.0,0.0,0.0,0.0,0.0,0.0,0.0,0.0,0.0,0.0,0.0,0.0,0.0,0.0,0.0,0.0,0.0,0.0,0.0,0.0,0.0,0.0,-3.9149,-4.1643,-4.5391,-4.7604,-4.7922,-4.6879,-4.4749,0.0,0.0,0.0,0.0,0.0,0.0,0.0,0.0,0.0,0.0,0.0,0.0,0.0,0.0,0.0,0.0,0.0,0.0,0.0,0.0,0.0,0.0,0.0,0.0,0.0,0.0,0.0,0.0,0.0,0.0,0.0,0.0,0.0,0.0,0.0,0.0,0.0,0.0,0.0,0.0,0.0,0.0,0.0,0.0,0.0,0.0,0.0,0.0,0.0,0.0,0.0,0.0,0.0,0.0,0.0,0.0,0.0,0.0,0.0,0.0,0.0,0.0,0.0,0.0,0.0,0.0,0.0,0.0,0.0,0.0,0.0,0.0,0.0,0.0,0.0,0.0,0.0,0.0,0.0,0.0,0.0,0.0,0.0,0.0,0.0,0.0,0.0,0.0,0.0,0.0,0.0,0.0,0.0,0.0,0.0,0.0,0.0,0.0,0.0,0.0,0.0,0.0,0.0,0.0,0.0,0.0,0.0,0.0,-3.9001,-4.1867,-4.4657,-4.6853,-4.8415,-4.6195,-4.4063,0.0,0.0,0.0,0.0,0.0,0.0,0.0,0.0,0.0,0.0,0.0,0.0,0.0,0.0,0.0,0.0,0.0,0.0,0.0,0.0,0.0,0.0,0.0,0.0,0.0,0.0,0.0,0.0,0.0,0.0,0.0,0.0,0.0,0.0,0.0,0.0,0.0,0.0,0.0,0.0,0.0,0.0,0.0,0.0,0.0,0.0,0.0,0.0,-4.1201,0.0,0.0,0.0,0.0,0.0,0.0,0.0,0.0,0.0,0.0,0.0,0.0,0.0,0.0,0.0,0.0,0.0,0.0,0.0,0.0,0.0,0.0,0.0,0.0,0.0,0.0,0.0,0.0,0.0,0.0,0.0,0.0,0.0,0.0,0.0,0.0,0.0,0.0,0.0,0.0,0.0,0.0,0.0,0.0,0.0,0.0,0.0,0.0,0.0,0.0,0.0,0.0,0.0,0.0,0.0,0.0,0.0,0.0,0.0,-3.9268,-4.2056,-4.4445,-4.6438,-4.7788,-4.557,-4.3662,0.0,0.0,0.0,0.0,0.0,0.0,0.0,0.0,0.0,0.0,0.0,0.0,0.0,0.0,0.0,0.0,0.0,0.0,0.0,0.0,0.0,0.0,0.0,0.0,0.0,0.0,0.0,0.0,0.0,0.0,0.0,0.0,0.0,0.0,0.0,0.0,0.0,0.0,0.0,0.0,0.0,0.0,0.0,0.0,0.0,0.0,0.0,0.0,0.0,0.0,0.0,0.0,0.0,0.0,0.0,0.0,0.0,0.0,0.0,0.0,0.0,0.0,0.0,0.0,0.0,0.0,0.0,0.0,0.0,0.0,0.0,0.0,0.0,0.0,0.0,0.0,0.0,0.0,0.0,0.0,0.0,0.0,0.0,0.0,0.0,0.0,0.0,0.0,0.0,0.0,0.0,0.0,0.0,0.0,0.0,0.0,0.0,0.0,0.0,0.0,0.0,0.0,0.0,0.0,0.0,0.0,0.0,-3.671,-3.9717,-4.2324,-4.4529,-4.6157,-4.7024,-4.4843,-4.3087,-4.1981,0.0,0.0,0.0,0.0,0.0,0.0,0.0,0.0,0.0,0.0,0.0,0.0,0.0,0.0,0.0,0.0,0.0,0.0,0.0,0.0,0.0,0.0,0.0,0.0,0.0,0.0,0.0,0.0,0.0,0.0,0.0,0.0,0.0,0.0,0.0,0.0,0.0,0.0,-2.2213,-3.025,0.0,0.0,0.0,0.0,0.0,0.0,0.0,0.0,-4.1927,0.0,0.0,0.0,0.0,0.0,0.0,0.0,0.0,0.0,0.0,0.0,0.0,0.0,0.0,0.0,0.0,0.0,0.0,0.0,0.0,0.0,0.0,0.0,0.0,0.0,0.0,0.0,0.0,0.0,0.0,0.0,0.0,0.0,0.0,0.0,0.0,0.0,0.0,0.0,0.0,0.0,0.0,0.0,0.0,0.0,0.0,0.0,0.0,0.0,0.0,0.0,0.0,0.0,0.0,0.0,0.0,-3.4399,-3.7128,-3.9843,-4.2621,-4.4379,-4.5799,-4.6625,-4.3548,-4.1545,-4.1028,0.0,0.0,0.0,0.0,0.0,0.0,0.0,0.0,0.0,0.0,0.0,0.0,0.0,0.0,0.0,0.0,0.0,0.0,0.0,0.0,0.0,0.0,0.0,0.0,0.0,0.0,0.0,0.0,0.0,0.0,0.0,0.0,0.0,0.0,0.0,0.0,0.0,0.0,0.0,-3.5186,-3.9601,0.0,0.0,0.0,0.0,0.0,0.0,0.0,0.0,-4.1615,0.0,0.0,0.0,0.0,0.0,0.0,0.0,0.0,0.0,0.0,0.0,0.0,0.0,0.0,0.0,0.0,0.0,0.0,0.0,0.0,0.0,0.0,0.0,0.0,0.0,0.0,0.0,0.0,0.0,0.0,0.0,0.0,0.0,0.0,0.0,0.0,0.0,0.0,0.0,0.0,0.0,0.0,0.0,0.0,0.0,0.0,0.0,0.0,0.0,0.0,0.0,0.0,0.0,0.0,0.0,-3.4715,-3.744,-4.0185,-4.3031,-4.3889,-4.4882,-4.589,-4.3042,-4.0785,0.0,0.0,0.0,0.0,0.0,0.0,0.0,0.0,0.0,0.0,0.0,0.0,0.0,0.0,0.0,0.0,0.0,0.0,0.0,0.0,0.0,0.0,0.0,0.0,0.0,0.0,0.0,0.0,0.0,0.0,0.0,0.0,0.0,0.0,0.0,0.0,0.0,0.0,0.0,0.0,-3.76,-4.1651,-4.5385,0.0,0.0,0.0,0.0,0.0,0.0,-4.3564,-4.2348,0.0,0.0,0.0,0.0,0.0,0.0,0.0,0.0,0.0,0.0,0.0,0.0,0.0,0.0,0.0,0.0,0.0,0.0,0.0,0.0,0.0,0.0,0.0,0.0,0.0,0.0,0.0,0.0,0.0,0.0,0.0,0.0,0.0,0.0,0.0,0.0,0.0,0.0,0.0,0.0,0.0,0.0,0.0,0.0,0.0,0.0,0.0,0.0,0.0,0.0,0.0,0.0,0.0,0.0,0.0,-3.47,-3.7469,-4.0348,-4.2958,-4.3124,-4.356,-4.4516,-4.1936,-3.9642,0.0,0.0,0.0,0.0,0.0,0.0,0.0,0.0,0.0,0.0,0.0,0.0,0.0,0.0,0.0,0.0,0.0,0.0,0.0,0.0,0.0,0.0,0.0,0.0,0.0,0.0,0.0,0.0,0.0,0.0,0.0,0.0,0.0,0.0,0.0,0.0,0.0,0.0,0.0,0.0,0.0,-4.3273,-4.7069,-4.7157,0.0,0.0,0.0,0.0,-4.5118,-4.4683,0.0,0.0,0.0,0.0,0.0,0.0,0.0,0.0,0.0,0.0,0.0,0.0,0.0,0.0,0.0,0.0,0.0,0.0,0.0,0.0,0.0,0.0,0.0,0.0,0.0,0.0,0.0,0.0,0.0,0.0,0.0,0.0,0.0,0.0,0.0,0.0,0.0,0.0,0.0,0.0,0.0,0.0,0.0,0.0,0.0,0.0,0.0,0.0,0.0,0.0,0.0,0.0,0.0,0.0,0.0,0.0,-3.4675,-3.7156,-3.9482,-4.1701,-4.1852,-4.198,-4.2105,-3.9229,-3.7251,0.0,0.0,0.0,0.0,0.0,0.0,0.0,0.0,0.0,0.0,0.0,0.0,0.0,0.0,0.0,0.0,0.0,0.0,0.0,0.0,0.0,0.0,0.0,0.0,0.0,0.0,0.0,0.0,0.0,0.0,0.0,0.0,0.0,0.0,0.0,0.0,0.0,0.0,0.0,0.0,0.0,-4.4171,-4.7253,-4.7679,-4.7524,0.0,0.0,-4.7345,-4.6814,-4.7322,0.0,0.0,0.0,0.0,0.0,0.0,0.0,0.0,0.0,0.0,0.0,0.0,0.0,0.0,0.0,0.0,0.0,0.0,0.0,0.0,0.0,0.0,0.0,0.0,0.0,0.0,0.0,0.0,0.0,0.0,0.0,0.0,0.0,0.0,0.0,0.0,0.0,0.0,0.0,0.0,0.0,0.0,0.0,0.0,0.0,0.0,0.0,0.0,0.0,0.0,0.0,0.0,0.0,0.0,0.0,-3.2641,-3.4248,-3.6463,-3.861,-4.0522,-4.0241,-4.0445,-4.1156,-3.8214,-3.6097,0.0,0.0,0.0,0.0,0.0,0.0,0.0,0.0,0.0,0.0,0.0,0.0,0.0,0.0,0.0,0.0,0.0,0.0,0.0,0.0,0.0,0.0,0.0,0.0,0.0,0.0,0.0,0.0,0.0,0.0,0.0,0.0,0.0,0.0,0.0,0.0,0.0,0.0,0.0,0.0,0.0,0.0,-4.8022,-4.8493,0.0,0.0,0.0,-4.7127,-4.5966,0.0,0.0,0.0,0.0,0.0,0.0,0.0,0.0,0.0,0.0,0.0,0.0,0.0,0.0,0.0,0.0,0.0,0.0,0.0,0.0,0.0,0.0,0.0,0.0,0.0,0.0,0.0,0.0,0.0,0.0,0.0,0.0,0.0,0.0,0.0,0.0,0.0,0.0,0.0,0.0,0.0,0.0,0.0,0.0,0.0,0.0,0.0,0.0,0.0,0.0,0.0,0.0,0.0,0.0,0.0,0.0,0.0,-3.3909,-3.6069,-3.7896,-3.9346,-3.8812,-3.8978,-3.9802,-3.7128,0.0,0.0,0.0,0.0,0.0,0.0,0.0,0.0,0.0,0.0,0.0,0.0,0.0,0.0,0.0,0.0,0.0,0.0,0.0,0.0,0.0,0.0,0.0,0.0,0.0,0.0,0.0,-1.3039,0.0,0.0,0.0,0.0,0.0,0.0,0.0,0.0,0.0,0.0,0.0,0.0,0.0,0.0,-4.4836,-4.7901,-4.847,-4.8574,0.0,0.0,-4.726,-4.5762,-4.6528,-4.5928,0.0,0.0,0.0,0.0,0.0,0.0,0.0,0.0,0.0,0.0,0.0,0.0,0.0,0.0,0.0,0.0,0.0,0.0,0.0,0.0,0.0,0.0,0.0,0.0,0.0,0.0,0.0,0.0,0.0,0.0,0.0,0.0,0.0,0.0,0.0,0.0,0.0,0.0,0.0,0.0,0.0,0.0,0.0,0.0,0.0,0.0,0.0,0.0,0.0,0.0,0.0,0.0,0.0,0.0,0.0,-3.3922,-3.6069,-3.7522,-3.8051,-3.756,-3.7354,-3.7412,-3.5261,-3.348,0.0,0.0,0.0,0.0,0.0,0.0,0.0,0.0,0.0,0.0,0.0,0.0,0.0,0.0,0.0,0.0,0.0,0.0,0.0,0.0,0.0,0.0,0.0,0.0,0.0,0.0,0.0,0.0,0.0,0.0,0.0,0.0,0.0,0.0,0.0,0.0,0.0,0.0,0.0,0.0,0.0,-4.3448,-4.6159,-4.703,-4.7598,0.0,0.0,-4.866,-4.7291,-4.9532,-4.9242,-4.2454,0.0,0.0,0.0,0.0,0.0,0.0,0.0,0.0,0.0,0.0,0.0,0.0,0.0,0.0,0.0,0.0,0.0,0.0,0.0,0.0,0.0,0.0,0.0,0.0,0.0,0.0,0.0,0.0,0.0,0.0,0.0,0.0,0.0,0.0,0.0,0.0,0.0,0.0,0.0,0.0,0.0,0.0,0.0,0.0,0.0,0.0,0.0,0.0,0.0,0.0,0.0,0.0,0.0,-3.1938,-3.3382,-3.5228,-3.6433,-3.696,-3.6784,-3.6671,-3.6671,-3.4876,-3.337,0.0,0.0,0.0,0.0,0.0,0.0,0.0,0.0,0.0,0.0,0.0,0.0,0.0,0.0,0.0,0.0,0.0,0.0,0.0,0.0,0.0,0.0,0.0,0.0,0.0,0.0,0.0,0.0,-1.6014,-1.6807,-1.7928,0.0,0.0,0.0,0.0,0.0,0.0,0.0,0.0,0.0,0.0,-4.3681,-4.6464,-4.7405,0.0,0.0,-4.82,-4.7853,-4.6641,-4.6856,-4.5804,-4.1475,-3.8361,0.0,0.0,0.0,0.0,0.0,0.0,0.0,0.0,0.0,0.0,0.0,0.0,0.0,0.0,0.0,0.0,0.0,0.0,0.0,0.0,0.0,0.0,0.0,0.0,0.0,0.0,0.0,0.0,0.0,0.0,0.0,0.0,0.0,0.0,0.0,0.0,0.0,0.0,0.0,0.0,0.0,0.0,0.0,0.0,0.0,0.0,0.0,0.0,0.0,0.0,0.0,0.0,-3.1424,-3.3068,-3.47,-3.5805,-3.6345,-3.637,-3.637,-3.632,-3.4628,-3.3056,0.0,0.0,0.0,0.0,0.0,0.0,0.0,0.0,0.0,0.0,0.0,0.0,0.0,0.0,0.0,0.0,0.0,0.0,0.0,0.0,0.0,0.0,0.0,0.0,0.0,0.0,0.0,0.0,-1.751,-1.8617,-2.0195,0.0,0.0,0.0,0.0,0.0,0.0,0.0,0.0,0.0,0.0,-4.3774,-4.5813,-4.6595,-4.6967,-4.704,-4.6613,-4.6138,-4.5656,-4.4788,-4.3205,-4.0539,0.0,0.0,0.0,0.0,0.0,0.0,0.0,0.0,0.0,0.0,0.0,0.0,0.0,0.0,0.0,0.0,0.0,0.0,0.0,0.0,0.0,0.0,0.0,0.0,0.0,0.0,0.0,0.0,0.0,0.0,0.0,0.0,0.0,0.0,0.0,0.0,0.0,0.0,0.0,0.0,0.0,0.0,0.0,0.0,0.0,0.0,0.0,0.0,0.0,0.0,0.0,0.0,0.0,-3.1329,-3.3056,-3.4598,-3.5712,-3.6345,-3.637,-3.6358,-3.6238,-3.4117,-3.2385,-3.1187,0.0,0.0,0.0,0.0,0.0,0.0,0.0,0.0,0.0,0.0,0.0,0.0,0.0,0.0,0.0,0.0,0.0,0.0,0.0,0.0,0.0,0.0,0.0,0.0,0.0,0.0,-1.6249,-1.9062,-2.1342,0.0,0.0,0.0,0.0,0.0,0.0,0.0,0.0,0.0,0.0,-4.086,-4.3328,-4.3723,-4.4094,-4.4464,-4.4754,-4.4078,-4.3708,-4.4414,-4.4015,-4.2723,0.0,0.0,0.0,0.0,0.0,0.0,0.0,0.0,0.0,0.0,0.0,0.0,0.0,0.0,0.0,0.0,0.0,0.0,0.0,0.0,0.0,0.0,0.0,0.0,0.0,0.0,0.0,-3.209,-3.2238,0.0,0.0,0.0,0.0,0.0,0.0,0.0,0.0,0.0,0.0,0.0,-3.0311,-3.0519,0.0,0.0,0.0,0.0,0.0,0.0,0.0,0.0,0.0,0.0,0.0,0.0,-2.8818,-3.0641,-3.1868,-3.2896,-3.3616,-3.3639,-3.365,-3.3627,-3.2275,-3.0382,-2.801,0.0,0.0,0.0,0.0,0.0,0.0,0.0,0.0,0.0,0.0,0.0,0.0,0.0,0.0,0.0,0.0,0.0,0.0,0.0,0.0,0.0,0.0,0.0,0.0,0.0,-1.7148,0.0,0.0,0.0,0.0,0.0,0.0,0.0,0.0,0.0,0.0,0.0,-3.336,-3.6773,-3.8382,-3.9596,-4.0559,-4.1245,-4.2123,0.0,0.0,0.0,0.0,0.0,0.0,0.0,0.0,0.0,0.0,0.0,0.0,0.0,0.0,-3.4211,-3.1825,-3.1097,-3.0909,-3.1085,0.0,0.0,0.0,0.0,0.0,0.0,0.0,0.0,0.0,0.0,0.0,0.0,0.0,0.0,0.0,0.0,-3.2678,0.0,0.0,0.0,0.0,0.0,0.0,0.0,0.0,-3.2566,-3.2562,-3.2001,-3.1502,-3.0429,0.0,-2.8854,-2.8688,0.0,0.0,0.0,0.0,0.0,0.0,0.0,0.0,-2.7615,-2.9351,-3.0382,-3.1356,-3.2286,-3.2331,-3.2252,-3.2073,-3.0754,-2.8739,-2.5941,-2.5081,-2.3937,0.0,0.0,0.0,0.0,0.0,0.0,0.0,0.0,0.0,0.0,0.0,0.0,0.0,0.0,0.0,0.0,0.0,0.0,0.0,0.0,0.0,0.0,0.0,-1.8885,0.0,0.0,0.0,0.0,0.0,0.0,0.0,0.0,0.0,-3.0931,-3.2319,-3.4206,-3.6782,-3.7689,-3.8242,-3.8464,0.0,0.0,0.0,0.0,0.0,0.0,0.0,-3.6985,-3.6578,-3.5169,-3.4192,-3.4469,-3.5264,-3.5579,-3.4653,0.0,0.0,-3.3518,-3.2663,-3.2378,-3.2729,-3.2805,-3.2918,-3.3282,-3.337,-3.3257,0.0,0.0,0.0,0.0,0.0,0.0,0.0,0.0,-3.4629,-3.4145,0.0,-3.2566,0.0,0.0,0.0,0.0,0.0,0.0,0.0,0.0,-3.461,-3.4644,-3.3223,-3.2257,-3.0582,-2.8505,-2.927,-2.9305,-2.8364,-2.7348,0.0,0.0,0.0,0.0,0.0,0.0,-2.7776,-2.9223,-3.0225,-3.1183,-3.2096,-3.2107,-3.1873,-3.1459,-2.9418,-2.7287,-2.5222,-2.4678,-2.4053,-2.3125,-2.1973,0.0,0.0,0.0,0.0,0.0,0.0,0.0,0.0,0.0,0.0,0.0,0.0,0.0,0.0,0.0,0.0,0.0,0.0,0.0,0.0,-1.9332,0.0,0.0,0.0,0.0,0.0,0.0,0.0,0.0,0.0,0.0,-3.194,-3.3989,-3.5915,-3.6811,0.0,0.0,0.0,0.0,-3.8226,-3.6375,-3.662,-3.688,-3.6434,-3.6751,-3.7006,-3.7006,0.0,0.0,-3.4977,-3.4826,-3.461,-3.3531,-3.4694,-3.576,-3.6202,-3.4969,-3.401,-3.3997,-3.401,-3.3985,-3.3985,-3.4085,-3.4048,-4.1414,0.0,0.0,0.0,0.0,-3.5802,-3.6127,-3.6542,-3.6123,-3.5506,-3.4801,-3.4248,0.0,0.0,0.0,0.0,0.0,0.0,-3.3033,-3.2834,-3.3293,-3.4149,-3.5294,-3.225,-2.9913,-2.8269,-2.834,-2.8137,-2.7874,-2.7306,-2.628,-2.4945,0.0,0.0,0.0,0.0,-2.5869,-2.7191,-2.8106,-2.8941,-2.9387,-2.9207,-2.8676,-2.7931,-2.7271,-2.6497,-2.5566,-2.542,-2.4961,-2.4082,-2.3135,0.0,0.0,0.0,0.0,0.0,0.0,0.0,0.0,0.0,0.0,0.0,0.0,0.0,0.0,0.0,0.0,0.0,0.0,0.0,-1.8648,-2.0752,-2.1906,0.0,0.0,0.0,0.0,0.0,0.0,0.0,0.0,0.0,-3.306,-3.362,-3.4024,0.0,0.0,-3.4912,-3.4335,-3.4891,-3.5069,-3.4109,0.0,0.0,0.0,-3.5865,-3.5378,-3.5378,-3.5915,-3.637,-3.6458,-3.6797,-3.691,-3.6622,-3.6653,-3.6621,-3.6364,-3.6037,-3.5642,-3.5655,-3.5655,-3.5667,-3.5655,-3.5655,-3.5642,-4.4167,-4.2503,-3.9885,-3.8251,-3.7257,-3.6345,-3.6376,-3.7044,-3.7062,-3.6628,-3.5831,-3.5261,-3.4361,-3.3181,-3.2742,0.0,0.0,0.0,-3.2791,-3.2526,-3.2526,-3.3354,-3.4551,-3.1756,-2.9579,-2.8361,-2.8025,-2.7822,-2.7656,-2.7226,-2.633,-2.5178,0.0,0.0,-2.3672,-2.4512,-2.542,-2.6367,-2.706,-2.7617,-2.8027,-2.7461,-2.6914,-2.6406,-2.6221,-2.6006,-2.5742,-2.5732,-2.5488,-2.4961,-2.4121,-2.3164,0.0,0.0,0.0,0.0,0.0,0.0,0.0,0.0,0.0,0.0,0.0,-1.3841,0.0,0.0,0.0,0.0,-1.7095,-1.8617,-2.0117,-2.1741,0.0,0.0,0.0,0.0,0.0,0.0,0.0,-2.9511,-3.0114,-3.1074,-3.2873,-3.3039,-3.3365,-3.4385,-3.4261,-3.3972,-3.3759,0.0,-3.4342,-3.3796,-3.4768,-3.5742,-3.6257,-3.5805,-3.5366,-3.5378,-3.5906,-3.6433,-3.6784,-3.7149,-3.7371,-3.7278,-3.6867,-3.6395,-3.5806,-3.5712,-3.5881,-3.627,-3.637,-3.637,-3.637,-3.637,-3.637,-4.6396,-4.6082,-4.2324,-4.0394,-3.9683,-3.7144,-3.6237,-3.6567,-3.7604,-3.7464,-3.645,-3.5794,-3.5316,-3.4726,-3.3734,0.0,0.0,-3.2806,-3.2549,-3.2129,-3.214,-3.2046,-3.1891,-3.0694,-2.9503,-2.8291,-2.8301,-2.8086,-2.7715,-2.7314,-2.666,-2.581,-2.5791,-2.5332,-2.4512,-2.5254,-2.5898,-2.6338,-2.6748,-2.7148,-2.7539,-2.6797,-2.6377,-2.6338,-2.5957,-2.5732,-2.5732,-2.5732,-2.5732,-2.5703,-2.4932,-2.4082,-2.3203,0.0,0.0,0.0,0.0,0.0,0.0,0.0,0.0,0.0,0.0,0.0,0.0,0.0,0.0,0.0,-1.9323,0.0,-2.1526,-2.247,0.0,0.0,0.0,-2.484,-2.6623,-2.7118,-2.7569,-2.8332,0.0,0.0,-3.1713,0.0,-3.3241,-3.504,-3.5344,-3.529,-3.4788,-3.5152,-3.5269,-3.4755,-3.5164,-3.578,-3.627,-3.6245,-3.6132,-3.6132,-3.6257,-3.6182,-3.6194,-3.6219,-3.6232,-3.6471,-3.5843,-3.5232,-3.4718,-3.4653,-3.5039,-3.6006,-3.6182,-3.6194,-3.6144,-3.6144,-3.6132,-4.707,-4.6849,-4.4511,-4.2737,-4.1467,-3.8722,-3.7561,-3.7678,-3.784,-3.7769,-3.7149,-3.6471,-3.5855,-3.5341,-3.5077,-3.4318,-3.3304,-3.3815,-3.2826,-3.0813,-3.0824,-3.0266,-2.9232,-2.895,-2.8601,-2.8291,-2.8301,-2.8242,-2.8135,-2.8037,-2.7393,-2.6289,-2.623,-2.5625,-2.4482,-2.4951,-2.5439,-2.5889,-2.6318,-2.6592,-2.668,-2.6494,-2.623,-2.5898,-2.5791,-2.5732,-2.5732,-2.5732,-2.5732,-2.5723,-2.5215,-2.4521,-2.3662,-2.0613,0.0,0.0,0.0,0.0,0.0,0.0,0.0,0.0,0.0,-1.518,-1.4227,0.0,-1.735,0.0,-2.1463,-2.315,-2.3255,-2.3454,0.0,0.0,-2.4712,-2.5396,-2.6229,-2.6828,-2.7521,-2.8478,-2.8341,-2.8839,-3.0841,-3.1519,-3.2104,-3.2978,-3.4156,-3.4864,-3.4751,-3.519,-3.5281,-3.4959,-3.5556,-3.6207,-3.6257,-3.5994,-3.573,-3.5742,-3.5403,-3.5115,-3.5115,-3.5115,-3.5411,-3.6093,-3.5527,-3.4632,-3.3703,-3.4086,-3.4685,-3.5052,-3.5102,-3.5115,-3.5115,-3.5127,-3.5127,-4.713,-4.6745,-4.5171,-4.3863,-4.2677,-4.0441,-3.8652,-3.727,-3.727,-3.7203,-3.6989,-3.6584,-3.6182,-3.5918,-3.5918,-3.482,-3.3036,-3.3325,-3.2039,-2.9408,-2.9398,-2.9006,-2.8291,-2.8301,-2.8301,-2.8301,-2.8301,-2.8301,-2.8281,-2.8105,-2.7559,-2.668,-2.6475,-2.583,-2.4766,-2.4951,-2.5195,-2.5439,-2.5869,-2.6094,-2.6103,-2.6103,-2.5889,-2.5459,-2.5439,-2.5352,-2.5166,-2.5146,-2.5059,-2.4873,-2.4629,-2.4199,-2.3525,-2.0747,-1.8868,0.0,0.0,0.0,0.0,0.0,0.0,0.0,0.0,0.0,0.0,0.0,-1.9221,0.0,-2.2901,0.0,-2.3809,-2.3955,-2.415,-2.4336,-2.4886,-2.5412,-2.5878,-2.6199,-2.6747,-2.7505,-2.7013,-2.7479,-2.9764,-3.0242,-3.0691,-3.1549,-3.2474,-3.3449,-3.4413,-3.5332,-3.5818,-3.5499,-3.5793,-3.5893,-3.568,-3.5378,-3.5086,-3.5152,-3.4914,-3.4726,-3.4726,-3.4726,-3.4916,-3.548,-3.497,-3.407,-3.3301,-3.3531,-3.3985,-3.3997,-3.3985,-3.4161,-3.4625,-3.4726,-3.4726,-4.6759,-4.5951,-4.4734,-4.3892,-4.3181,-4.1679,-3.9297,-3.6395,-3.6356,-3.6413,-3.6388,-3.6401,-3.637,-3.6358,-3.625,-3.4751,-3.2331,-3.2129,-3.0721,-2.8291,-2.8301,-2.8301,-2.8281,-2.8232,-2.8203,-2.8184,-2.8144,-2.8125,-2.8115,-2.7754,-2.7334,-2.6855,-2.6484,-2.5859,-2.5019,-2.498,-2.499,-2.499,-2.543,-2.5644,-2.5654,-2.5596,-2.5381,-2.501,-2.498,-2.4785,-2.4355,-2.4394,-2.4219,-2.3818,-2.3838,-2.3711,-2.333,-2.1244,-1.9943,0.0,-1.7107,0.0,0.0,0.0,0.0,0.0,0.0,0.0,0.0,-2.0146,-2.1135,-2.2629,-2.3809,-2.4375,-2.4062,-2.4365,-2.4736,-2.5098,-2.5156,-2.5312,-2.5693,-2.5691,-2.5894,-2.6289,-2.6011,-2.6608,-2.8322,-2.8713,-2.925,-3.0166,-3.0619,-3.1434,-3.3305,-3.4846,-3.5837,-3.6227,-3.5659,-3.4994,-3.4798,-3.47,-3.4613,-3.4613,-3.4487,-3.4525,-3.4449,-3.4462,-3.4487,-3.4449,-3.4098,-3.3658,-3.3183,-3.3108,-3.3119,-3.3156,-3.3169,-3.3445,-3.4186,-3.4412,-3.4512,-4.5883,-4.4792,-4.2989,-4.2181,-4.1966,-3.9633,-3.7825,-3.6453,-3.6405,-3.6363,-3.6458,-3.6395,-3.637,-3.6263,-3.5271,-3.3859,-3.223,-3.1122,-2.9817,-2.8301,-2.8301,-2.8301,-2.8271,-2.7939,-2.7639,-2.7208,-2.7269,-2.7256,-2.7256,-2.7168,-2.6748,-2.5996,-2.5889,-2.542,-2.458,0.0,0.0,0.0,-2.498,-2.5195,-2.5185,-2.4844,-2.4629,-2.4541,-2.4551,0.0,-2.3945,-2.4238,-2.4228,-2.3828,-2.4111,0.0,0.0,0.0,0.0,0.0,0.0,0.0,0.0,0.0,0.0,0.0,-1.8669,-1.8821,-2.0611,-2.2152,-2.3326,-2.4023,-2.4609,-2.5059,-2.5342,-2.5439,-2.5518,-2.5605,-2.5615,-2.5654,-2.5732,-2.5703,-2.5742,-2.5859,-2.6221,-2.6484,-2.6903,-2.7181,-2.7481,-2.7834,-2.8655,-2.949,-2.9936,-3.2152,-3.4193,-3.5823,-3.467,-3.3843,-3.461,-3.4234,-3.3858,-3.401,-3.3658,-3.3445,-3.3345,-3.3345,-3.3407,-3.3432,-3.3307,-3.3145,-3.3082,-3.3119,-3.2982,-3.3081,-3.3081,-3.3144,-3.3345,-3.3395,-3.3395,-4.4456,0.0,-4.1273,-4.0594,0.0,-3.8282,-3.6918,-3.6405,-3.6433,-3.637,-3.637,-3.637,-3.637,-3.6358,-3.4981,-3.3662,-3.223,-3.0927,-2.9608,-2.8291,-2.8301,-2.831,-2.8268,-2.7898,-2.7263,-2.638,-2.6836,-2.7012,-2.7002,-2.6797,-2.6484,-2.6055,-2.585,-2.5518,-2.5088,-2.5068,-2.4961,-2.4746,-2.4961,-2.5176,-2.5381,-2.5185,-2.4951,-2.4746,0.0,0.0,0.0,0.0,0.0,0.0,0.0,0.0,0.0,0.0,0.0,-1.9915,-1.7377,-1.6623,-1.8434,-1.8168,-1.8476,-2.0215,-2.0197,-2.0226,-2.0698,-2.204,-2.3158,-2.3944,-2.4275,-2.4773,-2.5606,-2.5732,-2.5732,-2.5732,-2.5732,-2.5732,-2.5732,-2.5732,-2.5732,-2.5752,-2.5947,-2.6084,-2.6074,-2.623,-2.6367,-2.6387,-2.6953,-2.7621,-2.8421,-3.0392,-3.243,-3.3196,-3.2277,-3.1442,-3.196,-3.1931,-3.1729,-3.1579,-3.1413,-3.1524,-3.2052,-3.1689,-3.1613,-3.2624,-3.2164,-3.1276,-3.1336,-3.1707,-3.2152,-3.2239,-3.2698,-3.3081,-3.3081,-3.3081,-3.3081,-4.2926,-4.2081,-3.9839,-3.9083,-3.9122,-3.7168,-3.637,-3.637,0.0,0.0,0.0,-3.637,-3.637,-3.6263,-3.4763,-3.3365,-3.2241,-3.0618,-2.9303,-2.8281,-2.8223,-2.8259,-2.8232,-2.7757,-2.684,-2.572,-2.6425,-2.6787,-2.6777,-2.6435,-2.6279,-2.624,-2.5918,-2.5732,-2.5732,-2.5732,-2.5557,-2.5205,-2.5107,-2.5244,-2.5596,-2.5547,-2.5332,-2.4971,-2.4951,-2.4746,-2.4326,-2.3047,-2.2712,-2.3348,-2.1119,-2.0312,-2.1383,-1.9352,-1.8745,-1.9965,-1.811,-1.7739,-1.9693,-1.9268,-1.9325,-2.03,-2.0772,-2.0901,-2.0614,-2.1304,-2.2156,-2.3276,-2.3375,-2.3791,-2.4913,-2.502,-2.502,-2.502,-2.5226,-2.5323,-2.5333,-2.5635,-2.5732,-2.5732,-2.5742,-2.5732,-2.5752,-2.5762,-2.5732,-2.5742,-2.5801,-2.6014,-2.7303,-2.9241,-3.0687,-3.0348,-2.9564,-2.8862,-2.9396,-2.9624,-2.9396,-2.9624,-2.951,-2.9772,-3.0406,-3.0045,-3.0328,-3.1889,-3.0687,-2.9693,-2.9564,-3.0496,-3.1199,-3.15,-3.2326,-3.3081,-3.3081,-3.3081,-3.3081,-4.208,-4.0891,-3.9047,-3.7703,-3.6823,-3.6572,-3.637,-3.637,-3.637,-3.637,-3.637,-3.637,-3.637,-3.6263,-3.3737,-3.2532,-3.2129,-2.9713,-2.8504,0.0,-2.793,-2.7983,-2.8192,-2.7166,-2.6265,-2.5772,-2.5838,-2.5918,-2.5908,-2.5859,-2.582,-2.583,-2.5762,-2.5732,-2.5732,-2.5732,-2.5703,-2.5635,-2.5264,-2.5098,-2.5146,-2.4795,-2.457,-2.4521,-2.4531,-2.4307,-2.3906,-2.2917,-2.2339,-2.2052,-2.0908,-2.0399,-2.0512,-1.9436,-1.8929,-1.9089,-1.8128,-1.7664,-1.7963,-1.7907,-1.7928,-1.8025,-1.8171,-1.9073,-2.1309,-2.1593,-2.1752,-2.1954,-2.1954,-2.2047,-2.2257,-2.2366,-2.2458,-2.2458,-2.3276,-2.3998,-2.3998,-2.4922,-2.5528,-2.5635,-2.5732,-2.5635,-2.5732,-2.5732,-2.5732,-2.5732,-2.5732,-2.583,-2.6304,-2.804,-2.9402,-2.9246,-2.7586,-2.7274,-2.8587,-2.9315,-2.9131,-2.9396,-2.9223,-2.9235,-2.959,-2.9315,-2.9407,-2.9954,-2.9498,-2.9341,-2.9363,-3.0395,-3.1364,-3.2239,-3.2896,-3.3081,-3.3081,-3.3081,-3.3081,-4.0461,-3.9177,-3.7782,-3.6896,-3.637,-3.637,-3.637,-3.637,-3.637,-3.637,-3.6225,-3.4883,-3.4619,-3.5054,-3.2431,-3.1224,-3.1122,-2.9207,-2.8164,-2.7949,-2.7754,-2.7555,-2.7367,-2.6702,-2.6131,-2.5761,-2.5713,-2.5732,-2.5732,-2.5732,-2.5732,-2.5732,-2.5732,-2.5732,-2.5732,-2.5732,-2.5732,-2.5732,-2.5537,-2.543,-2.543,-2.5234,-2.5127,-2.5137,-2.5137,-2.465,-2.3767,-2.2646,-2.1973,-2.1704,-1.9883,-1.9171,-1.9876,-1.8818,-1.8198,-1.8205,-1.7816,-1.7589,-1.7589,-1.7589,-1.7589,-1.7589,-1.7589,-1.8094,-1.9317,-1.9517,-1.9826,-2.0436,-2.0531,-2.0845,-2.155,-2.1744,-2.1744,-2.1744,-2.2265,-2.2567,-2.2676,-2.3076,-2.3791,-2.451,-2.4609,-2.4913,-2.5635,-2.5732,-2.5732,-2.5732,-2.5732,-2.5732,-2.5732,-2.6658,-2.7389,-2.7274,-2.6459,-2.6229,-2.7243,-2.7389,-2.7389,-2.7389,-2.7389,-2.7673,-2.8132,-2.7945,-2.8038,-2.8947,-2.8391,-2.8057,-2.8923,-2.9806,-3.0754,-3.1777,-3.2698,-3.2982,-3.3081,-3.3081,-3.3081,-3.893,-3.8017,-3.6883,-3.637,-3.637,-3.637,-3.637,-3.637,-3.637,-3.625,-3.5593,-3.3355,-3.3024,-3.4056,-3.1531,-3.0317,-3.0099,-2.88,-2.7978,-2.7676,-2.7461,-2.7143,-2.6575,-2.6418,-2.6064,-2.5762,-2.5732,-2.5732,-2.5732,-2.5732,-2.5732,-2.5732,-2.5732,-2.5732,-2.5732,-2.5732,-2.5732,-2.5635,-2.544,-2.5421,-2.5635,-2.5421,-2.5226,-2.5226,-2.4913,-2.4295,-2.3285,-2.1954,-2.1245,-2.1143,-1.8909,-1.8094,-1.9013,-1.8192,-1.7589,-1.7589,-1.7589,-1.7589,-1.7589,-1.7589,-1.7589,-1.7589,-1.7589,-1.7589,-1.7589,-1.7589,-1.7996,-1.8909,-1.9117,-1.9627,-2.0428,-2.0735,-2.0735,-2.0735,-2.1041,-2.1245,-2.1245,-2.1448,-2.2156,-2.3384,-2.3692,-2.4205,-2.5323,-2.5732,-2.5732,-2.5732,-2.5732,-2.5732,-2.5732,-2.5732,-2.5732,-2.5732,-2.5732,-2.5703,-2.5732,-2.582,-2.582,-2.5732,-2.582,-2.6284,-2.6849,-2.6294,-2.6416,-2.7838,-2.695,-2.6418,-2.7888,-2.8528,-2.9071,-3.0132,-3.1293,-3.2178,-3.2153,-3.2153,-3.2548,-3.8198,-3.7939,-3.6883,-3.637,-3.637,-3.637,-3.637,-3.637,-3.637,-3.5679,-3.4533,-3.2978,-3.3001,-3.3934,-3.144,-3.0214,-3.0057,-2.8491,-2.7695,-2.7539,-2.6865,-2.6575,-2.6486,-2.6006,-2.5771,-2.5732,-2.5732,-2.5732,-2.5732,-2.5732,-2.5732,-2.5732,-2.5732,-2.5732,-2.5732,-2.5732,-2.5732,-2.5635,-2.451,-2.451,-2.5538,-2.451,-2.389,-2.3899,-2.2759,-2.2055,-2.1853,-2.0546,-1.9834,-1.9731,-1.8401,-1.7687,-1.7786,-1.7687,-1.7589,-1.7589,-1.7589,-1.7589,-1.7589,-1.7589,-1.7589,-1.7589,-1.7589,-1.7589,-1.7589,-1.7589,-1.7687,-1.7891,-1.7786,-1.7989,-1.7996,-1.8094,-1.8304,-1.8394,-1.922,-1.9834,-1.993,-2.0947,-2.2257,-2.3583,-2.3484,-2.4196,-2.5226,-2.5635,-2.5732,-2.5732,-2.5732,-2.5732,-2.5732,-2.5732,-2.5693,-2.5713,-2.5723,-2.5703,-2.5693,-2.5732,-2.5654,-2.5674,-2.5703,-2.5722,-2.5866,-2.5779,-2.5915,-2.6182,-2.5819,-2.5371,-2.5483,-2.5778,-2.7158,-2.8539,-2.957,-3.0157,-3.0109,-3.0181,-3.0761,-3.7665,-3.7057,-3.6628,-3.637,-3.637,-3.637,-3.637,-3.637,-3.637,-3.5667,-3.4012,-3.0734,-3.0251,-3.1825,-2.9911,-2.8971,-2.8719,-2.8038,-2.7393,-2.6924,-2.6533,-2.6269,-2.6016,-2.585,-2.5732,-2.5732,-2.5732,-2.5732,-2.5732,-2.5732,-2.5732,-2.5732,-2.5732,-2.5732,-2.5732,-2.5732,-2.5333,-2.451,-2.3989,-2.3583,-2.3276,-2.2776,-2.2868,-2.3484,-2.2366,-2.1245,-2.0538,-1.993,-1.922,-1.8506,-1.7884,-1.7589,-1.7589,-1.7589,-1.7589,-1.7589,-1.7589,-1.7589,-1.7589,-1.7589,-1.7589,-1.7589,-1.7589,-1.7589,-1.7589,-1.7589,-1.7589,-1.7589,-1.7589,-1.7589,-1.7589,-1.7589,-1.7589,-1.7687,-1.8094,-1.8401,-1.8401,-1.8909,-1.9826,-2.1049,-2.2064,-2.3076,-2.4304,-2.5226,-2.5635,-2.5732,-2.5723,-2.5713,-2.5723,-2.5732,-2.5615,-2.54,-2.5342,-2.5342,-2.5342,-2.5342,-2.5254,-2.5049,-2.4951,-2.4961,-2.499,-2.4961,-2.4987,-2.5198,-2.4933,-2.5063,-2.5792,-2.5868,-2.6708,-2.7633,-2.8189,-2.8815,-2.8815,-2.8815,-2.9316,-3.715,-3.6439,-3.6377,-3.6377,-3.6439,-3.6357,-3.6175,-3.5987,-3.6301,-3.5362,-3.3017,-2.8831,-2.7894,-2.9147,-2.8341,-2.7764,-2.75,-2.7363,-2.6992,-2.6406,-2.6269,-2.6035,-2.5752,-2.5732,-2.5732,-2.5732,-2.5732,-2.5732,-2.5732,-2.5732,-2.5732,-2.5635,-2.5333,-2.5128,-2.5128,-2.4815,-2.4097,-2.3176,-2.2776,-2.2257,-2.1651,-2.0939,-2.1245,-2.2265,-2.1245,-2.0128,-1.9117,-1.9013,-1.8603,-1.7687,-1.7589,-1.7589,-1.7589,-1.7589,-1.7589,-1.7589,-1.7589,-1.7589,-1.7589,-1.7589,-1.7589,-1.7589,-1.7589,-1.7589,-1.7589,-1.7589,-1.7589,-1.7589,-1.7589,-1.7589,-1.7589,-1.7589,-1.7589,-1.7589,-1.7589,-1.7589,-1.7687,-1.7589,-1.8199,-1.9428,-2.0641,-2.1853,-2.3484,-2.4815,-2.5732,-2.5732,-2.5625,-2.5557,-2.5518,-2.542,-2.5225,-2.4941,-2.4893,-2.4893,-2.4893,-2.4893,-2.4717,-2.457,-2.4482,-2.4502,-2.4424,-2.4424,-2.4316,-2.4608,-2.4408,-2.4303,-2.4565,-2.517,-2.5816,-2.6683,-2.703,-2.7019,-2.6973,-2.7159,-2.7159,-3.6452,-3.6389,-3.643,-3.6349,-3.6402,-3.6389,-3.5758,-3.4595,-3.5624,-3.4253,-3.0998,-2.8229,-2.7042,-2.7275,-2.708,-2.706,-2.6992,-2.667,-2.6465,-2.6309,-2.5967,-2.5762,-2.5732,-2.5732,-2.5732,-2.5732,-2.5732,-2.5732,-2.5732,-2.5732,-2.5732,-2.5635,-2.451,-2.389,-2.3692,-2.2767,-2.1853,-2.1752,-2.0633,-2.0436,-2.1143,-1.9109,-1.861,-1.9627,-1.8499,-1.7891,-1.7786,-1.7681,-1.7674,-1.7582,-1.7549,-1.7562,-1.7575,-1.7582,-1.7589,-1.7589,-1.7589,-1.7589,-1.7589,-1.7589,-1.7589,-1.7589,-1.7589,-1.7589,-1.7589,-1.7589,-1.7589,-1.7589,-1.7589,-1.7589,-1.7589,-1.7589,-1.7589,-1.7589,-1.7589,-1.7589,-1.7589,-1.7589,-1.8199,-1.922,-1.9834,-2.1119,-2.3358,-2.4815,-2.546,-2.5566,-2.5332,-2.5098,-2.5059,-2.4775,-2.4468,-2.4482,-2.4443,-2.4443,-2.4434,-2.4453,-2.4434,-2.4248,-2.4141,-2.4316,-2.4394,-2.4385,-2.4261,-2.4075,-2.3877,-2.3672,-2.3428,-2.3573,-2.4079,-2.4533,-2.441,-2.439,-2.5207,-2.5051,-2.5093,-3.5316,-3.542,-3.608,-3.5963,-3.5407,-3.6122,-3.4487,-3.124,-3.0015,-2.9668,-2.9321,-2.7175,-2.636,-2.6611,-2.6318,-2.6348,-2.6582,-2.6455,-2.624,-2.5986,-2.5801,-2.5732,-2.5732,-2.5732,-2.5732,-2.5732,-2.5732,-2.5732,-2.5732,-2.5732,-2.5732,-2.543,-2.4304,-2.3692,-2.3484,-2.2357,-2.1245,-2.0436,-1.9826,-1.942,-1.9117,-1.8094,-1.7891,-1.8192,-1.7891,-1.7589,-1.7589,-1.7408,-1.7308,-1.7301,-1.7134,-1.7108,-1.7301,-1.7482,-1.7589,-1.7589,-1.7589,-1.7589,-1.7589,-1.7589,-1.7589,-1.7589,-1.7589,-1.7589,-1.7589,-1.7589,-1.7589,-1.7589,-1.7589,-1.7589,-1.7589,-1.7589,-1.7589,-1.7589,-1.7589,-1.7589,-1.7589,-1.7582,-1.7786,-1.8506,-1.9723,-2.1677,-2.2885,-2.4409,-2.5195,-2.4837,-2.4079,-2.39,-2.4349,-2.3916,-2.3335,-2.39,-2.4014,-2.3916,-2.3603,-2.3867,-2.3955,-2.3701,-2.3574,-2.3574,-2.3623,-2.3701,-2.3535,-2.3408,-2.334,-2.335,-2.3076,-2.3222,-2.3444,-2.3474,-2.3222,-2.3201,-2.3637,-2.3821,-2.3776,-3.4726,-3.4853,-3.5494,-3.5378,-3.4828,-3.5124,-3.3064,-2.9231,-2.6795,-2.6804,-2.7939,-2.6473,-2.585,-2.6094,-2.5869,-2.5879,-2.6162,-2.6172,-2.6016,-2.5762,-2.5732,-2.5732,-2.5732,-2.5732,-2.5732,-2.5732,-2.5732,-2.5732,-2.5732,-2.5732,-2.543,-2.502,-2.3692,-2.2767,-2.2265,-2.1041,-1.9826,-1.9117,-1.8909,-1.8506,-1.7687,-1.7589,-1.7589,-1.7589,-1.7589,-1.7589,-1.7575,-1.7301,-1.725,-1.7217,-1.6867,-1.684,-1.7134,-1.7428,-1.7589,-1.7589,-1.7589,-1.7589,-1.7589,-1.7589,-1.7589,-1.7589,-1.7589,-1.7589,-1.7589,-1.7589,-1.7589,-1.7589,-1.7589,-1.7589,-1.7589,-1.7589,-1.7589,-1.7589,-1.7589,-1.7589,-1.7589,-1.7589,-1.7589,-1.7871,-1.9412,-2.1062,-2.2247,-2.3075,-2.3578,-2.3775,-2.2701,-2.2218,-2.2685,-2.2269,-2.1958,-2.2806,-2.2919,-2.2917,-2.294,-2.3203,-2.3467,-2.3281,-2.3193,-2.3096,-2.2978,-2.3027,-2.2988,-2.2852,-2.2842,-2.291,-2.2978,-2.3047,-2.3086,-2.3096,-2.2949,-2.2889,-2.2975,-2.284,-2.2867,-3.4675,-3.4587,-3.4717,-3.4641,-3.4424,-3.3746,-3.1789,-2.9205,-2.6749,-2.6413,-2.7324,-2.6197,-2.5752,-2.5762,-2.5762,-2.5752,-2.5791,-2.5801,-2.5781,-2.5732,-2.5732,-2.5732,-2.5732,-2.5732,-2.5732,-2.5732,-2.5732,-2.5635,-2.5528,-2.543,-2.4922,-2.3692,-2.2366,-2.1151,-1.9731,-1.8708,-1.7793,-1.7793,-1.7793,-1.7687,-1.7589,-1.7589,-1.7589,-1.7589,-1.7589,-1.7589,-1.7582,-1.7301,-1.7237,-1.7081,-1.684,-1.684,-1.7101,-1.7408,-1.7589,-1.7589,-1.7589,-1.7589,-1.7589,-1.7589,-1.7589,-1.7589,-1.7589,-1.7589,-1.7589,-1.7589,-1.7589,-1.7589,-1.7589,-1.7589,-1.7589,-1.7589,-1.7589,-1.7589,-1.7589,-1.7589,-1.7589,-1.7575,-1.7575,-1.7725,-1.8738,-1.9645,-2.0613,-2.1147,-2.1587,-2.1937,-2.1156,-2.0212,-2.0568,-2.0105,-2.0119,-2.0979,-2.1409,-2.153,-2.2015,-2.2549,-2.2783,-2.2949,-2.292,-2.2861,-2.2656,-2.2617,-2.2529,-2.2412,-2.2432,-2.249,-2.2539,-2.2617,-2.2773,-2.2783,-2.2646,-2.25,-2.2451,-2.2373,-2.2187,-3.3596,-3.3583,-3.357,-3.3582,-3.3558,-3.3206,-3.1677,-2.9181,-2.6749,-2.5979,-2.6204,-2.582,-2.5732,-2.5732,-2.5732,-2.5732,-2.5732,-2.5732,-2.5732,-2.5732,-2.5732,-2.5732,-2.5732,-2.5732,-2.5732,-2.5732,-2.5732,-2.5226,-2.451,-2.4304,-2.3683,-2.2257,-2.0939,-2.0135,-1.9524,-1.8304,-1.7589,-1.7589,-1.7589,-1.7589,-1.7589,-1.7589,-1.7589,-1.7589,-1.7589,-1.7589,-1.7575,-1.7301,-1.7061,-1.6867,-1.6567,-1.6547,-1.6867,-1.7315,-1.7575,-1.7589,-1.7589,-1.7589,-1.7589,-1.7589,-1.7589,-1.7582,-1.7582,-1.7589,-1.7589,-1.7589,-1.7589,-1.7589,-1.7589,-1.7589,-1.7589,-1.7589,-1.7582,-1.7589,-1.7589,-1.7589,-1.7562,-1.7415,-1.7295,-1.7455,-1.8218,-1.8829,-1.9194,-1.9574,-2.0218,-2.0298,-1.9305,-1.8683,-1.9277,-1.8743,-1.878,-1.9761,-1.9855,-2.0131,-2.0703,-2.1081,-2.1184,-2.1712,-2.2119,-2.2337,-2.2266,-2.2246,-2.2139,-2.2031,-2.2041,-2.206,-2.2109,-2.2236,-2.2402,-2.2353,-2.2168,-2.21,-2.207,-2.1924,-2.1719,-3.3081,-3.3081,-3.3081,-3.3081,-3.3081,-3.3081,-3.1689,-2.9192,-2.676,-2.5698,-2.5722,-2.5732,-2.5732,-2.5732,-2.5732,-2.5732,-2.5732,-2.5732,-2.5732,-2.5732,-2.5732,-2.5732,-2.5732,-2.5732,-2.5732,-2.5528,-2.5226,-2.451,-2.3701,-2.3185,-2.2257,-2.0939,-2.0033,-1.9317,-1.8916,-1.8094,-1.7589,-1.7589,-1.7589,-1.7589,-1.7589,-1.7589,-1.7589,-1.7589,-1.7589,-1.7589,-1.7569,-1.7402,-1.7114,-1.674,-1.6426,-1.642,-1.6707,-1.7154,-1.7415,-1.7442,-1.7522,-1.7589,-1.7589,-1.7589,-1.7259,-1.7041,-1.7252,-1.7259,-1.7041,-1.7153,-1.7589,-1.7589,-1.7589,-1.7589,-1.7582,-1.7035,-1.7035,-1.7589,-1.7589,-1.7589,-1.7549,-1.7328,-1.7277,-1.7286,-1.7582,-1.7848,-1.8326,-1.8006,-1.8746,-1.8535,-1.777,-1.7131,-1.7732,-1.7379,-1.7789,-1.8222,-1.8337,-1.8729,-1.9488,-1.9636,-1.96,-2.0357,-2.1059,-2.153,-2.1748,-2.1924,-2.1943,-2.1699,-2.1631,-2.1631,-2.167,-2.1894,-2.2051,-2.1875,-2.1646,-2.167,-2.1602,-2.1387,-2.1201,-3.3081,-3.3081,-3.3081,-3.3081,-3.3081,-3.3081,-3.1701,-2.9272,-2.6749,-2.5698,-2.5722,-2.5732,-2.5732,-2.5732,-2.5732,-2.5732,-2.5732,-2.5732,-2.5732,-2.5732,-2.5732,-2.5732,-2.5732,-2.5732,-2.5518,-2.5099,-2.4295,-2.3583,-2.2985,-2.2064,-2.0845,-1.9627,-1.9324,-1.8916,-1.7989,-1.7582,-1.7562,-1.7522,-1.7535,-1.7528,-1.7528,-1.7542,-1.7569,-1.7575,-1.7589,-1.7589,-1.7582,-1.7462,-1.7208,-1.6747,-1.6433,-1.6386,-1.6667,-1.6967,-1.7128,-1.7181,-1.7415,-1.7535,-1.7569,-1.7589,-1.7147,-1.6287,-1.6929,-1.7041,-1.6287,-1.7041,-1.7589,-1.7589,-1.7589,-1.7589,-1.7371,-1.6611,-1.6499,-1.7358,-1.7535,-1.7522,-1.7522,-1.7261,-1.7116,-1.7035,-1.6706,-1.6621,-1.7625,-1.6838,-1.6819,-1.7037,-1.6633,-1.6202,-1.606,-1.6109,-1.612,-1.6404,-1.6766,-1.7272,-1.7945,-1.7978,-1.8054,-1.8897,-1.9552,-1.9997,-2.0442,-2.0702,-2.0787,-2.0661,-2.0738,-2.0889,-2.0918,-2.0847,-2.1053,-2.1068,-2.0953,-2.1089,-2.1123,-2.0947,-2.0879,-3.3081,-3.3081,-3.3081,-3.3081,-3.3081,-3.3081,-3.1689,-2.9204,-2.676,-2.5718,-2.5712,-2.5732,-2.5732,-2.5732,-2.5732,-2.5732,-2.5732,-2.5732,-2.5732,-2.5732,-2.5732,-2.5732,-2.5732,-2.5635,-2.4982,-2.3925,-2.3565,-2.2667,-2.0743,-2.0333,-1.942,-1.8199,-1.8199,-1.7989,-1.7582,-1.7589,-1.7462,-1.7295,-1.7268,-1.7275,-1.7288,-1.7281,-1.7375,-1.7575,-1.7575,-1.7575,-1.7528,-1.7161,-1.6894,-1.672,-1.6433,-1.6299,-1.6413,-1.6673,-1.6907,-1.7108,-1.7215,-1.7368,-1.7535,-1.7477,-1.7252,-1.7147,-1.6935,-1.747,-1.7147,-1.7364,-1.7582,-1.7589,-1.7589,-1.7477,-1.7477,-1.7041,-1.7153,-1.745,-1.7173,-1.7268,-1.7201,-1.6827,-1.6506,-1.646,-1.6179,-1.6197,-1.6327,-1.6184,-1.5913,-1.6149,-1.5939,-1.5518,-1.5464,-1.5277,-1.5424,-1.5252,-1.545,-1.5872,-1.6182,-1.6301,-1.666,-1.7449,-1.789,-1.8014,-1.8357,-1.8499,-1.8417,-1.8232,-1.8815,-1.9084,-1.9004,-1.8878,-1.9362,-1.995,-2.04,-2.0524,-2.0703,-2.0664,-2.0684,-3.3081,-3.3081,-3.3081,-3.3081,-3.3106,-3.3096,-3.1692,-2.9215,-2.6785,-2.5744,-2.5741,-2.5732,-2.5732,-2.5732,-2.5732,-2.5732,-2.5732,-2.5732,-2.5732,-2.5528,-2.5118,-2.5185,-2.5448,-2.5204,-2.4205,-2.3003,-2.2274,-2.1151,-1.9731,-1.9124,-1.8297,-1.7786,-1.7589,-1.7589,-1.7582,-1.7582,-1.7508,-1.7341,-1.7331,-1.7194,-1.7315,-1.7208,-1.7315,-1.7488,-1.7482,-1.7361,-1.7188,-1.6881,-1.6707,-1.662,-1.6339,-1.6139,-1.6273,-1.6426,-1.666,-1.6941,-1.6542,-1.6425,-1.6436,-1.618,-1.553,-1.5097,-1.5316,-1.5417,-1.4984,-1.531,-1.5855,-1.5636,-1.5743,-1.5849,-1.5849,-1.5743,-1.547,-1.4813,-1.5555,-1.6285,-1.7018,-1.6647,-1.6333,-1.6206,-1.6025,-1.5825,-1.5825,-1.5818,-1.5758,-1.5658,-1.5604,-1.5357,-1.5224,-1.4963,-1.477,-1.4703,-1.4583,-1.4912,-1.5156,-1.5161,-1.5184,-1.5957,-1.623,-1.6246,-1.6758,-1.6944,-1.7188,-1.7204,-1.7269,-1.7261,-1.7415,-1.7577,-1.8066,-1.87,-1.9371,-1.9835,-1.9991,-2.0566,-2.0566,-3.3081,-3.3081,-3.3081,-3.3081,-3.3144,-3.3083,-3.143,-2.8782,-2.6641,-2.5648,-2.5674,-2.5732,-2.5732,-2.5732,-2.5732,-2.5732,-2.5732,-2.5732,-2.5732,-2.543,-2.4833,-2.4594,-2.4634,-2.4126,-2.3247,-2.2359,-2.0467,-1.9746,-1.9124,-1.8101,-1.7687,-1.7589,-1.7589,-1.7589,-1.7589,-1.7582,-1.7549,-1.7361,-1.7154,-1.7148,-1.7241,-1.7114,-1.7128,-1.7402,-1.7221,-1.6967,-1.6673,-1.6427,-1.6308,-1.6388,-1.5912,-1.5711,-1.5888,-1.5927,-1.5875,-1.5801,-1.5197,-1.4792,-1.4936,-1.4093,-1.2954,-1.2397,-1.3071,-1.2803,-1.2454,-1.3224,-1.3804,-1.3804,-1.3372,-1.3675,-1.3618,-1.3414,-1.3072,-1.269,-1.3529,-1.5155,-1.6354,-1.6567,-1.6226,-1.6219,-1.5972,-1.5858,-1.5785,-1.5758,-1.5671,-1.5364,-1.5224,-1.5057,-1.4883,-1.4663,-1.4522,-1.4462,-1.4315,-1.4142,-1.4179,-1.4223,-1.4198,-1.4441,-1.4529,-1.4753,-1.5767,-1.6071,-1.6545,-1.6609,-1.6124,-1.6124,-1.6445,-1.669,-1.7025,-1.7607,-1.8285,-1.8726,-1.9177,-2.0157,-2.0576,-3.3081,-3.3081,-3.3081,-3.3081,-3.3156,-3.3083,-3.0621,-2.6566,-2.5946,-2.5698,-2.5674,-2.5732,-2.5732,-2.5732,-2.5732,-2.5732,-2.5732,-2.5732,-2.5732,-2.5645,-2.5538,-2.4016,-2.3182,-2.288,-2.2207,-2.1009,-2.0475,-1.9376,-1.8318,-1.7898,-1.7589,-1.7589,-1.7589,-1.7589,-1.7589,-1.7542,-1.7328,-1.6981,-1.6834,-1.6847,-1.686,-1.6687,-1.674,-1.7025,-1.6859,-1.6573,-1.6229,-1.535,-1.474,-1.4564,-1.4352,-1.4214,-1.4268,-1.3596,-1.333,-1.343,-1.3317,-1.3046,-1.3225,-1.2992,-1.2759,-1.2178,-1.2288,-1.2891,-1.2694,-1.2719,-1.3126,-1.3264,-1.3264,-1.2939,-1.2699,-1.284,-1.2447,-1.2245,-1.3207,-1.4377,-1.4868,-1.5551,-1.5876,-1.5925,-1.5872,-1.5745,-1.5531,-1.5498,-1.5351,-1.5097,-1.4903,-1.4716,-1.4543,-1.4369,-1.4315,-1.4275,-1.4208,-1.4062,-1.3928,-1.3861,-1.3707,-1.3654,-1.3607,-1.3574,-1.4574,-1.4918,-1.5286,-1.5105,-1.4657,-1.4866,-1.536,-1.5516,-1.5717,-1.6461,-1.7174,-1.7706,-1.8415,-1.9578,-2.0314,-3.3081,-3.3081,-3.3081,-3.312,-3.3083,-3.3011,-3.0251,-2.629,-2.5654,-2.574,-2.5703,-2.5732,-2.5732,-2.5732,-2.5732,-2.5732,-2.5732,-2.5732,-2.5732,-2.5538,-2.5128,-2.4279,-2.3173,-2.1371,-1.9823,-1.9096,-1.9005,-1.8325,-1.7799,-1.7589,-1.7589,-1.7589,-1.7589,-1.7589,-1.7542,-1.7455,-1.7235,-1.6941,-1.6633,-1.656,-1.664,-1.6433,-1.5954,-1.5878,-1.5752,-1.5401,-1.4229,-1.3726,-1.333,-1.2878,-1.2425,-1.2425,-1.2813,-1.2339,-1.2056,-1.2233,-1.1678,-1.1572,-1.1723,-1.116,-1.0659,-1.0845,-1.0845,-1.0875,-1.0906,-1.1005,-1.1039,-1.1052,-1.0928,-1.0992,-1.0906,-1.0837,-1.0837,-1.103,-1.2344,-1.3226,-1.3504,-1.4743,-1.5825,-1.5792,-1.5712,-1.5578,-1.5438,-1.5271,-1.5044,-1.4803,-1.4736,-1.4556,-1.4349,-1.4202,-1.4175,-1.4142,-1.4122,-1.4015,-1.3828,-1.3647,-1.3427,-1.3373,-1.3353,-1.334,-1.3753,-1.3803,-1.3865,-1.379,-1.3926,-1.3838,-1.4181,-1.4271,-1.4475,-1.4815,-1.5479,-1.6455,-1.7338,-1.8041,-1.881,-3.3081,-3.3081,-3.3081,-3.3158,-3.3027,-3.2629,-2.9858,-2.6044,-2.5673,-2.5703,-2.5732,-2.5732,-2.5732,-2.5732,-2.5732,-2.5732,-2.5732,-2.5732,-2.5732,-2.5528,-2.4412,-2.4588,-2.3953,-2.1081,-1.8379,-1.7681,-1.7799,-1.7694,-1.7694,-1.7589,-1.7589,-1.7589,-1.7589,-1.7589,-1.7522,-1.7308,-1.7108,-1.6947,-1.6547,-1.64,-1.652,-1.6326,-1.5609,-1.4654,-1.4155,-1.3695,-1.2562,-1.2102,-1.1934,-1.157,-1.0386,-1.0386,-1.097,-1.1272,-1.1423,-1.1615,-1.0401,-1.0058,-1.0051,-0.9297,-0.8695,-0.8414,-0.8546,-0.8553,-0.8661,-0.8909,-0.9046,-0.892,-0.8909,-0.888,-0.8448,-0.8799,-0.8639,-0.8969,-1.0728,-1.1836,-1.2386,-1.4148,-1.5442,-1.5712,-1.5565,-1.5418,-1.5197,-1.4997,-1.475,-1.4543,-1.4489,-1.4402,-1.4202,-1.4062,-1.4048,-1.4052,-1.4011,-1.3654,-1.3434,-1.3327,-1.3113,-1.3006,-1.3019,-1.3019,-1.3013,-1.3019,-1.3106,-1.338,-1.3493,-1.3373,-1.3333,-1.3516,-1.3567,-1.3396,-1.4016,-1.5366,-1.6049,-1.6548,-1.7351,-3.3081,-3.3081,-3.3081,-3.3071,-3.2739,-3.0936,-2.8511,-2.6044,-2.5673,-2.5732,-2.5732,-2.5732,-2.5732,-2.5732,-2.5732,-2.5732,-2.5732,-2.5732,-2.5635,-2.5323,-2.4322,-2.4417,-2.4152,-2.1113,-1.8643,-1.7877,-1.7549,-1.7515,-1.7582,-1.7589,-1.7589,-1.7589,-1.7555,-1.7555,-1.7475,-1.7288,-1.6954,-1.676,-1.6413,-1.6293,-1.6253,-1.5906,-1.4967,-1.3688,-1.2888,-1.2149,-1.1605,-1.0904,-1.0319,-1.0194,-0.9023,-0.8627,-0.8821,-0.892,-0.8943,-0.8969,-0.8888,-0.8721,-0.865,-0.8334,-0.8119,-0.814,-0.8231,-0.8299,-0.833,-0.8394,-0.8418,-0.8414,-0.8357,-0.8303,-0.8303,-0.8225,-0.8133,-0.8678,-1.0255,-1.1795,-1.2206,-1.3726,-1.5186,-1.512,-1.514,-1.5126,-1.4681,-1.4445,-1.4328,-1.417,-1.4196,-1.417,-1.4148,-1.4112,-1.4045,-1.3937,-1.3803,-1.3427,-1.2966,-1.2893,-1.2766,-1.2612,-1.2579,-1.2585,-1.2552,-1.2465,-1.2545,-1.2929,-1.3131,-1.3106,-1.3046,-1.2933,-1.3017,-1.3024,-1.376,-1.4471,-1.4872,-1.5348,-1.6104,-3.3081,-3.3081,-3.3081,-3.3158,-3.2702,-3.0399,-2.8,-2.5919,-2.5663,-2.5732,-2.5732,-2.5732,-2.5732,-2.5732,-2.5732,-2.5732,-2.5732,-2.5732,-2.5323,-2.4618,-2.4026,-2.3471,-2.3542,-2.0633,-1.8693,-1.7488,-1.7111,-1.7328,-1.7555,-1.7589,-1.7555,-1.7542,-1.7448,-1.7355,-1.7241,-1.6887,-1.6673,-1.6433,-1.6219,-1.5956,-1.5846,-1.5293,-1.389,-1.2231,-1.1258,-1.0578,-0.9801,-0.941,-0.9023,-0.8825,-0.8336,-0.8038,-0.8038,-0.8038,-0.8038,-0.8038,-0.8038,-0.8038,-0.8038,-0.8038,-0.8048,-0.8052,-0.8119,-0.8147,-0.8163,-0.8208,-0.8269,-0.8245,-0.8218,-0.815,-0.8147,-0.8079,-0.8048,-0.8432,-1.0284,-1.1303,-1.1591,-1.3291,-1.3952,-1.4301,-1.4443,-1.4237,-1.3837,-1.3635,-1.3728,-1.3802,-1.3835,-1.3984,-1.4062,-1.3961,-1.3931,-1.3689,-1.3507,-1.3086,-1.2732,-1.2632,-1.2565,-1.2405,-1.215,-1.215,-1.2083,-1.2016,-1.223,-1.2565,-1.2719,-1.2685,-1.2719,-1.2572,-1.2652,-1.2719,-1.3092,-1.3418,-1.3693,-1.4141,-1.4855,-3.3081,-3.3081,-3.3081,-3.286,-3.2321,-3.0959,-2.8473,-2.6059,-2.5702,-2.5732,-2.5732,-2.5732,-2.5732,-2.5732,-2.5732,-2.5732,-2.5645,-2.5528,-2.4609,-2.3791,-2.2885,-2.219,-2.1522,-1.9732,-1.8006,-1.6764,-1.6786,-1.6947,-1.7248,-1.7335,-1.7382,-1.7295,-1.7128,-1.7061,-1.6954,-1.66,-1.6339,-1.6089,-1.5595,-1.535,-1.4758,-1.3686,-1.2226,-1.0194,-0.9702,-0.9118,-0.8432,-0.8233,-0.8134,-0.8137,-0.8038,-0.8038,-0.8038,-0.8038,-0.8038,-0.8038,-0.8038,-0.8038,-0.8038,-0.8038,-0.8038,-0.8041,-0.8038,-0.8045,-0.8048,-0.8075,-0.8065,-0.8038,-0.8045,-0.8052,-0.8062,-0.8041,-0.8038,-0.8517,-1.0049,-1.1616,-1.1362,-1.2138,-1.3109,-1.3456,-1.3623,-1.361,-1.3287,-1.3145,-1.318,-1.3789,-1.3906,-1.3871,-1.3928,-1.3801,-1.3641,-1.342,-1.3158,-1.2792,-1.2483,-1.2458,-1.2418,-1.2358,-1.1922,-1.162,-1.162,-1.1545,-1.1764,-1.1733,-1.1877,-1.1878,-1.2035,-1.2305,-1.2432,-1.2472,-1.2358,-1.2499,-1.2973,-1.3149,-1.363,-3.3081,-3.3081,-3.3081,-3.2235,-3.1269,-3.2011,-2.9907,-2.5954,-2.5693,-2.5732,-2.5732,-2.5732,-2.5732,-2.5732,-2.5732,-2.5732,-2.543,-2.4815,-2.407,-2.3214,-2.1601,-2.0969,-2.0953,-1.8702,-1.7197,-1.6199,-1.646,-1.6727,-1.6834,-1.684,-1.6854,-1.6847,-1.6834,-1.676,-1.6714,-1.6386,-1.6286,-1.6011,-1.4883,-1.359,-1.2425,-1.1361,-1.0485,-0.9801,-0.892,-0.8336,-0.8038,-0.8038,-0.8038,-0.8038,-0.8038,-0.8038,-0.8038,-0.8038,-0.8038,-0.8038,-0.8038,-0.8038,-0.8038,-0.8038,-0.8038,-0.8038,-0.8038,-0.8038,-0.8038,-0.8038,-0.8038,-0.8038,-0.8038,-0.8038,-0.8038,-0.8038,-0.8038,-0.8674,-0.9964,-1.1025,-1.1174,-1.0935,-1.1991,-1.1744,-1.168,-1.2653,-1.3107,-1.2894,-1.2766,-1.347,-1.388,-1.3741,-1.35,-1.3186,-1.2673,-1.2277,-1.1862,-1.1462,-1.1552,-1.1602,-1.1726,-1.1855,-1.1471,-1.0938,-1.0864,-1.072,-1.0484,-1.0588,-1.0789,-1.1254,-1.1645,-1.1948,-1.2164,-1.2305,-1.2305,-1.2305,-1.2392,-1.2532,-1.2693,-3.3081,-3.3081,-3.3081,-3.266,-3.195,-3.1351,-2.9053,-2.6189,-2.5741,-2.5732,-2.5732,-2.5732,-2.5732,-2.5732,-2.5732,-2.5732,-2.5528,-2.4922,-2.3754,-2.2481,-2.0953,-2.007,-1.9044,-1.7596,-1.6322,-1.6025,-1.5973,-1.6166,-1.6286,-1.6547,-1.67,-1.666,-1.654,-1.646,-1.644,-1.6172,-1.5557,-1.4793,-1.3545,-1.2139,-1.1068,-1.0293,-0.9608,-0.892,-0.8333,-0.8038,-0.8038,-0.8038,-0.8038,-0.8038,-0.8038,-0.8038,-0.8038,-0.8038,-0.8038,-0.8038,-0.8038,-0.8038,-0.8038,-0.8038,-0.8038,-0.8038,-0.8038,-0.8038,-0.8038,-0.8038,-0.8038,-0.8038,-0.8038,-0.8038,-0.8038,-0.8038,-0.8038,-0.8576,-0.9585,-0.9651,-1.0086,-1.0419,-1.0488,-1.0093,-0.9814,-1.0814,-1.1638,-1.1519,-1.1161,-1.1412,-1.1939,-1.1962,-1.187,-1.1762,-1.123,-1.0653,-1.0236,-0.9906,-1.0073,-1.0282,-1.0288,-1.0426,-1.0351,-0.997,-0.9895,-0.9744,-0.9437,-0.9593,-0.9981,-1.0519,-1.1123,-1.1626,-1.189,-1.2057,-1.2305,-1.2144,-1.2057,-1.2305,-1.2459,-3.3081,-3.3081,-3.3081,-3.2885,-3.2289,-3.025,-2.8,-2.5814,-2.5673,-2.5732,-2.5732,-2.5732,-2.5732,-2.5732,-2.5732,-2.5732,-2.5635,-2.5011,-2.3341,-2.1708,-2.0365,-1.904,-1.7796,-1.6596,-1.6155,-1.5835,-1.5896,-1.5912,-1.6005,-1.6199,-1.642,-1.648,-1.6246,-1.6172,-1.6106,-1.5787,-1.5185,-1.342,-1.2538,-1.117,-0.9805,-0.9509,-0.8825,-0.8333,-0.8038,-0.8038,-0.8038,-0.8038,-0.8038,-0.8038,-0.8038,-0.8038,-0.8038,-0.8038,-0.8038,-0.8038,-0.8038,-0.8038,-0.8038,-0.8038,-0.8038,-0.8038,-0.8038,-0.8038,-0.8038,-0.8038,-0.8038,-0.8038,-0.8038,-0.8038,-0.8031,-0.8007,-0.7963,-0.8275,-0.9017,-0.8604,-0.8374,-0.91,-0.9589,-0.9328,-0.8995,-0.8548,-0.9205,-0.9506,-0.957,-0.9556,-0.9804,-1.0153,-1.0274,-1.0296,-1.0089,-0.957,-0.9301,-0.903,-0.9357,-0.9442,-0.9296,-0.9054,-0.8978,-0.8898,-0.8883,-0.8599,-0.8228,-0.8618,-0.9049,-0.8815,-0.8807,-1.0199,-1.1464,-1.1267,-1.1131,-1.1649,-1.1803,-1.2037,-1.2278,-3.3081,-3.3081,-3.3068,-3.2302,-3.0897,-2.9829,-2.8011,-2.5739,-2.5682,-2.5732,-2.5732,-2.5732,-2.5732,-2.5713,-2.5577,-2.5567,-2.5509,-2.3076,-2.1827,-2.0528,-1.8773,-1.764,-1.6643,-1.633,-1.6119,-1.583,-1.5832,-1.5832,-1.5838,-1.5919,-1.5965,-1.5885,-1.5959,-1.5899,-1.5688,-1.5287,-1.4178,-1.2624,-1.1653,-1.0288,-0.892,-0.8333,-0.8137,-0.8137,-0.8038,-0.8038,-0.8038,-0.8038,-0.8038,-0.8038,-0.8038,-0.8038,-0.8038,-0.8038,-0.8038,-0.8038,-0.8038,-0.8038,-0.8038,-0.8038,-0.8038,-0.8038,-0.8038,-0.8038,-0.8038,-0.8038,-0.8038,-0.8038,-0.8038,-0.8024,-0.7991,-0.7929,-0.7875,-0.8055,-0.8408,-0.8448,-0.8314,-0.8446,-0.8769,-0.8644,-0.8269,-0.7822,-0.7679,-0.8147,-0.8631,-0.8704,-0.8765,-0.9114,-0.896,-0.8926,-0.8981,-0.8685,-0.8514,-0.8505,-0.9059,-0.8912,-0.8443,-0.8174,-0.7996,-0.7929,-0.7854,-0.7495,-0.7199,-0.7283,-0.7605,-0.7088,-0.6873,-0.8243,-0.9244,-0.9665,-1.0016,-1.056,-1.1215,-1.1676,-1.1952,-3.2541,-3.2579,-3.293,-3.2721,-3.2129,-3.1825,-2.9404,-2.6058,-2.5674,-2.5732,-2.5732,-2.5732,-2.5732,-2.5664,-2.5314,-2.4929,-2.4188,-2.3051,-2.1198,-1.9692,-1.8274,-1.7218,-1.6574,-1.6005,-1.5932,-1.5845,-1.5825,-1.5825,-1.5825,-1.5825,-1.5825,-1.5832,-1.573,-1.5832,-1.554,-1.437,-1.2915,-1.1848,-1.0386,-0.8825,-0.8432,-0.8038,-0.8038,-0.8038,-0.8038,-0.8038,-0.8038,-0.8038,-0.8038,-0.8038,-0.8038,-0.8038,-0.8038,-0.8038,-0.8038,-0.8038,-0.8038,-0.8038,-0.8038,-0.8038,-0.8038,-0.8038,-0.8038,-0.8038,-0.8038,-0.8038,-0.8038,-0.8038,-0.8028,-0.8001,-0.7896,-0.7845,-0.7784,-0.7753,-0.7898,-0.8117,-0.8102,-0.8078,-0.8028,-0.7929,-0.7643,-0.7274,-0.7118,-0.7049,-0.7539,-0.7928,-0.7982,-0.7946,-0.7832,-0.7704,-0.7804,-0.7774,-0.7609,-0.7375,-0.7855,-0.7685,-0.7507,-0.7303,-0.71,-0.6986,-0.6876,-0.6559,-0.6298,-0.6327,-0.6349,-0.6284,-0.636,-0.6572,-0.7263,-0.8297,-0.9031,-0.9658,-1.0337,-1.1158,-1.1495,-3.2466,-3.2516,-3.2905,-3.3071,-3.3069,-3.2345,-2.9613,-2.6179,-2.5741,-2.5732,-2.5732,-2.5732,-2.5644,-2.5469,-2.5244,-2.4279,-2.3299,-2.2083,-2.0404,-1.8985,-1.7719,-1.6936,-1.6198,-1.5838,-1.5858,-1.5825,-1.5825,-1.5825,-1.5825,-1.5825,-1.5534,-1.5242,-1.5242,-1.514,-1.4657,-1.3204,-1.175,-1.0872,-0.9801,-0.8233,-0.8137,-0.8038,-0.8038,-0.8038,-0.8038,-0.8038,-0.8038,-0.8038,-0.8038,-0.8038,-0.8038,-0.8038,-0.8038,-0.8038,-0.8038,-0.8038,-0.8038,-0.8038,-0.8038,-0.8038,-0.8038,-0.8038,-0.8038,-0.8038,-0.8038,-0.8035,-0.8038,-0.8031,-0.8001,-0.7926,-0.7797,-0.7726,-0.7631,-0.7591,-0.7468,-0.752,-0.751,-0.7443,-0.7422,-0.7316,-0.7095,-0.7024,-0.6929,-0.6837,-0.6899,-0.7184,-0.7123,-0.7145,-0.698,-0.6817,-0.6729,-0.6714,-0.6637,-0.6486,-0.6412,-0.6569,-0.6798,-0.6678,-0.647,-0.6225,-0.6023,-0.5796,-0.5789,-0.6006,-0.6002,-0.5793,-0.5877,-0.6102,-0.6698,-0.7487,-0.8117,-0.8689,-0.9886,-1.0688,-1.1064,-3.3006,-3.3068,-3.3056,-3.3119,-3.2885,-3.0578,-2.8169,-2.5845,-2.5661,-2.5732,-2.5723,-2.5606,-2.5469,-2.5166,-2.4886,-2.373,-2.2245,-2.1077,-1.9526,-1.8052,-1.7028,-1.6238,-1.5919,-1.5825,-1.5825,-1.5825,-1.5825,-1.5825,-1.5825,-1.5534,-1.5045,-1.4172,-1.3878,-1.3776,-1.3776,-1.2619,-1.1263,-1.019,-0.9899,-0.892,-0.8233,-0.8038,-0.8038,-0.8038,-0.8038,-0.8038,-0.8038,-0.8038,-0.8038,-0.8038,-0.8038,-0.8038,-0.8038,-0.8038,-0.8038,-0.8038,-0.8038,-0.8035,-0.8028,-0.8031,-0.8014,-0.8004,-0.7987,-0.7984,-0.8011,-0.8011,-0.8001,-0.7963,-0.7896,-0.7828,-0.7709,-0.7584,-0.7472,-0.7353,-0.7234,-0.7187,-0.718,-0.7173,-0.7149,-0.7085,-0.7,-0.6912,-0.681,-0.6698,-0.6549,-0.6524,-0.6424,-0.6285,-0.6264,-0.6261,-0.6261,-0.6261,-0.6261,-0.6261,-0.6234,-0.6115,-0.6112,-0.5993,-0.5911,-0.58,-0.5739,-0.5694,-0.5711,-0.5837,-0.5718,-0.564,-0.554,-0.5583,-0.616,-0.6672,-0.7163,-0.7822,-0.9136,-1.003,-1.0208,-3.2503,-3.2541,-3.2905,-3.3071,-3.2982,-3.2268,-2.9557,-2.6129,-2.5712,-2.5723,-2.5548,-2.5189,-2.4985,-2.4743,-2.3617,-2.2369,-2.0968,-1.9357,-1.7886,-1.6756,-1.619,-1.6027,-1.5845,-1.5825,-1.5825,-1.5825,-1.5825,-1.5825,-1.5825,-1.514,-1.4459,-1.3776,-1.2226,-1.1843,-1.2037,-1.1361,-1.0288,-0.9899,-0.9213,-0.8432,-0.8038,-0.8038,-0.8038,-0.8038,-0.8038,-0.8038,-0.8038,-0.8038,-0.8038,-0.8038,-0.8038,-0.8038,-0.8038,-0.8038,-0.8038,-0.8038,-0.8035,-0.7984,-0.7926,-0.7885,-0.7885,-0.7885,-0.7885,-0.7848,-0.7773,-0.7753,-0.7794,-0.7838,-0.775,-0.7689,-0.7624,-0.7495,-0.7373,-0.7248,-0.716,-0.7156,-0.7149,-0.7146,-0.7031,-0.7021,-0.6929,-0.6763,-0.6637,-0.6556,-0.642,-0.6366,-0.6295,-0.6278,-0.6261,-0.6261,-0.6261,-0.6261,-0.6261,-0.6261,-0.6217,-0.6081,-0.5962,-0.5901,-0.5772,-0.562,-0.5579,-0.5572,-0.5545,-0.5621,-0.5525,-0.5491,-0.5484,-0.5477,-0.5464,-0.5823,-0.6367,-0.686,-0.7788,-0.842,-0.8673,-3.2503,-3.2554,-3.2918,-3.3158,-3.2983,-3.2194,-2.941,-2.61,-2.571,-2.5622,-2.5381,-2.4772,-2.4472,-2.4083,-2.2871,-2.1138,-1.9835,-1.845,-1.7044,-1.592,-1.5832,-1.5838,-1.5832,-1.5825,-1.5825,-1.5825,-1.573,-1.5635,-1.5045,-1.4268,-1.3295,-1.2032,-1.048,-0.9993,-0.9998,-0.9604,-0.9312,-0.892,-0.8432,-0.8137,-0.8038,-0.8038,-0.8038,-0.8038,-0.8038,-0.8038,-0.8038,-0.8038,-0.8038,-0.8038,-0.8038,-0.8038,-0.8038,-0.8038,-0.8038,-0.8038,-0.7974,-0.7916,-0.7845,-0.7753,-0.7726,-0.7648,-0.7699,-0.7692,-0.7617,-0.7634,-0.7668,-0.7675,-0.7594,-0.7553,-0.7506,-0.738,-0.7272,-0.7146,-0.7143,-0.7139,-0.7119,-0.7115,-0.7037,-0.6943,-0.6773,-0.6607,-0.6474,-0.639,-0.6295,-0.6278,-0.6261,-0.6261,-0.6261,-0.6261,-0.6261,-0.6261,-0.6261,-0.6261,-0.6183,-0.6037,-0.5922,-0.582,-0.5661,-0.5488,-0.545,-0.5447,-0.5459,-0.5428,-0.5403,-0.5423,-0.5389,-0.5442,-0.5463,-0.5529,-0.5803,-0.6254,-0.6593,-0.7046,-0.7502,-3.3081,-3.3081,-3.3056,-3.3083,-3.2647,-3.0422,-2.7849,-2.5605,-2.5698,-2.5465,-2.501,-2.4477,-2.4045,-2.3525,-2.2373,-2.0867,-1.9336,-1.8071,-1.6943,-1.6103,-1.5825,-1.5825,-1.5825,-1.5825,-1.5825,-1.573,-1.5534,-1.4854,-1.407,-1.3199,-1.2032,-1.0382,-0.9019,-0.8627,-0.8528,-0.8528,-0.8333,-0.8233,-0.8237,-0.8038,-0.8038,-0.8038,-0.8038,-0.8038,-0.8038,-0.8038,-0.8038,-0.8038,-0.8038,-0.8038,-0.8038,-0.8038,-0.8038,-0.8038,-0.8038,-0.7991,-0.7882,-0.7807,-0.7733,-0.7628,-0.7526,-0.7444,-0.7502,-0.7553,-0.7546,-0.7502,-0.7526,-0.7516,-0.7461,-0.7421,-0.737,-0.7272,-0.7173,-0.7139,-0.7139,-0.7122,-0.7092,-0.7037,-0.6943,-0.6803,-0.6603,-0.6447,-0.6352,-0.6264,-0.6261,-0.6261,-0.6261,-0.6261,-0.6261,-0.6261,-0.6261,-0.6261,-0.6261,-0.6261,-0.6156,-0.6013,-0.5898,-0.5803,-0.5566,-0.5399,-0.5432,-0.5428,-0.5432,-0.5432,-0.5432,-0.5432,-0.5432,-0.5432,-0.5435,-0.5495,-0.5624,-0.5818,-0.6207,-0.6334,-0.6789,-3.3081,-3.3031,-3.2641,-3.2698,-3.2418,-2.8565,-2.5665,-2.4108,-2.5036,-2.5275,-2.457,-2.3789,-2.3057,-2.2373,-2.0889,-1.9528,-1.8265,-1.7037,-1.6393,-1.5927,-1.5825,-1.5825,-1.5825,-1.5825,-1.5825,-1.5439,-1.5045,-1.4262,-1.3488,-1.242,-1.048,-0.8726,-0.8237,-0.8038,-0.8038,-0.8038,-0.8038,-0.8038,-0.8038,-0.8038,-0.8038,-0.8038,-0.8038,-0.8038,-0.8038,-0.8038,-0.8038,-0.8038,-0.8038,-0.8038,-0.8038,-0.8038,-0.8038,-0.8035,-0.8014,-0.7872,-0.7743,-0.7617,-0.7519,-0.7461,-0.738,-0.7272,-0.7292,-0.7182,-0.7278,-0.7218,-0.7259,-0.7356,-0.7333,-0.7288,-0.7288,-0.7224,-0.7153,-0.7139,-0.7122,-0.7075,-0.7027,-0.6926,-0.6824,-0.6627,-0.6507,-0.6369,-0.6271,-0.6261,-0.6261,-0.6261,-0.6261,-0.6261,-0.6261,-0.6261,-0.6261,-0.6261,-0.6254,-0.6251,-0.6149,-0.601,-0.5895,-0.5766,-0.5535,-0.5435,-0.5432,-0.5435,-0.5372,-0.5236,-0.4897,-0.51,-0.5376,-0.5372,-0.5372,-0.5432,-0.5491,-0.5557,-0.5686,-0.5881,-0.6009,-3.2742,-3.2679,-3.2365,-3.1786,-3.0455,-2.6504,-2.3991,-2.3445,-2.4232,-2.4364,-2.4001,-2.2333,-2.1717,-2.1436,-1.9795,-1.8427,-1.7699,-1.6574,-1.5825,-1.5825,-1.5825,-1.5825,-1.5825,-1.5825,-1.5825,-1.5337,-1.4561,-1.3686,-1.2619,-1.0672,-0.8627,-0.8237,-0.8038,-0.8038,-0.8038,-0.8038,-0.8038,-0.8038,-0.8038,-0.8038,-0.8038,-0.8038,-0.8038,-0.8038,-0.8038,-0.8038,-0.8038,-0.8038,-0.8038,-0.8038,-0.8038,-0.8001,-0.7957,-0.7896,-0.7845,-0.7706,-0.759,-0.7495,-0.7417,-0.7333,-0.7251,-0.7101,-0.6992,-0.6456,-0.6364,-0.6385,-0.6876,-0.7258,-0.7204,-0.7166,-0.7193,-0.7204,-0.7173,-0.7139,-0.7082,-0.7021,-0.6919,-0.681,-0.6637,-0.6441,-0.6339,-0.6295,-0.6264,-0.6261,-0.6261,-0.6264,-0.6264,-0.6261,-0.6261,-0.6261,-0.6261,-0.6261,-0.6247,-0.6234,-0.6115,-0.5983,-0.5768,-0.5631,-0.5528,-0.5466,-0.5382,-0.5239,-0.504,-0.4634,-0.4159,-0.4225,-0.4156,-0.5109,-0.5382,-0.5306,-0.5166,-0.5302,-0.5369,-0.5561,-0.5557,-3.2139,-3.2164,-3.2093,-3.0579,-2.7687,-2.4583,-2.3147,-2.3099,-2.3261,-2.3369,-2.3188,-2.0775,-2.0312,-2.0529,-1.8864,-1.7777,-1.7138,-1.6204,-1.5825,-1.5825,-1.5825,-1.5825,-1.573,-1.5629,-1.5337,-1.5045,-1.4076,-1.2231,-1.1068,-0.9509,-0.8333,-0.8038,-0.8038,-0.8038,-0.8038,-0.8038,-0.8038,-0.8038,-0.8038,-0.8038,-0.8038,-0.8038,-0.8038,-0.8038,-0.8038,-0.8038,-0.8038,-0.8038,-0.8038,-0.8038,-0.8021,-0.797,-0.7845,-0.7682,-0.7614,-0.7546,-0.7441,-0.7383,-0.7047,-0.6709,-0.6487,-0.6551,-0.692,-0.6281,-0.6186,-0.5899,-0.6287,-0.7022,-0.7078,-0.7149,-0.7166,-0.7173,-0.7153,-0.7105,-0.7048,-0.6959,-0.6848,-0.6692,-0.6478,-0.6407,-0.6305,-0.6268,-0.6187,-0.6106,-0.5867,-0.6028,-0.6268,-0.6264,-0.6183,-0.6183,-0.6254,-0.6247,-0.6203,-0.6162,-0.6146,-0.5935,-0.5623,-0.5477,-0.5203,-0.4867,-0.4434,-0.45,-0.4643,-0.3627,-0.2484,-0.2479,-0.2611,-0.0,-0.0,-0.4637,-0.4637,-0.4913,-0.5046,-0.4964,-0.5233,-3.1587,-3.1625,-3.163,-2.9735,-2.6722,-2.4169,-2.3086,-2.3076,-2.3096,-2.3115,-2.2754,-2.0784,-1.9544,-1.9563,-1.8311,-1.7225,-1.6298,-1.6109,-1.5825,-1.5825,-1.5825,-1.5825,-1.5534,-1.4943,-1.4555,-1.3584,-1.2231,-1.0578,-0.941,-0.8432,-0.8038,-0.8038,-0.8038,-0.8038,-0.8038,-0.8038,-0.8035,-0.8014,-0.8035,-0.8028,-0.8014,-0.8031,-0.8038,-0.8038,-0.8038,-0.8038,-0.8038,-0.8038,-0.8038,-0.8038,-0.8038,-0.7957,-0.7818,-0.758,-0.7468,-0.7424,-0.7044,-0.6998,-0.6882,-0.5941,-0.5109,-0.5198,-0.5565,-0.6299,-0.6385,-0.573,-0.5719,-0.6526,-0.7061,-0.7136,-0.7122,-0.7122,-0.7105,-0.7051,-0.699,-0.6875,-0.6759,-0.6546,-0.64,-0.6291,-0.6274,-0.6193,-0.6112,-0.5873,-0.5631,-0.5712,-0.6112,-0.6271,-0.6032,-0.5948,-0.6083,-0.6136,-0.6129,-0.6146,-0.5976,-0.595,-0.5634,-0.4463,-0.3748,-0.3578,-0.0,-0.3493,-0.3431,-0.1748,-0.0673,-0.0,-0.0,-0.0,-0.0,-0.0,-0.3424,-0.3426,-0.3627,-0.3618,-0.4359,-3.1047,-3.0923,-3.0205,-2.8622,-2.6332,-2.4115,-2.3144,-2.3144,-2.3144,-2.2775,-2.212,-2.0462,-1.9199,-1.858,-1.7397,-1.6662,-1.5825,-1.5825,-1.5825,-1.5825,-1.5825,-1.5825,-1.5242,-1.4459,-1.4166,-1.3199,-1.1165,-0.9509,-0.8233,-0.8038,-0.8038,-0.8038,-0.8038,-0.8038,-0.8038,-0.8035,-0.8001,-0.7943,-0.8004,-0.8004,-0.798,-0.7997,-0.8031,-0.8038,-0.8038,-0.8038,-0.8038,-0.8038,-0.8038,-0.7977,-0.7916,-0.7763,-0.7604,-0.7417,-0.6675,-0.5907,-0.5592,-0.6011,-0.6109,-0.5565,-0.376,-0.3585,-0.0,-0.0,-0.0,-0.546,-0.4705,-0.5499,-0.6786,-0.6947,-0.6987,-0.6973,-0.6915,-0.6858,-0.6749,-0.6627,-0.6532,-0.6396,-0.6295,-0.6291,-0.6285,-0.6291,-0.621,-0.6129,-0.5889,-0.5899,-0.6295,-0.5565,-0.5407,-0.5443,-0.5665,-0.5934,-0.5986,-0.5252,-0.4555,-0.5071,-0.5776,-0.4346,-0.251,-0.0,-0.0,-0.0,-0.2088,-0.0,-0.0,-0.0,-0.0,-0.0,-0.0,-0.0,-0.1612,-0.1746,-0.208,-0.2549,-0.3424,-3.0348,-2.9856,-2.8407,-2.7115,-2.5894,-2.4018,-2.3144,-2.294,-2.2378,-2.1673,-2.0926,-1.9538,-1.8472,-1.7584,-1.6386,-1.6015,-1.5825,-1.5825,-1.5825,-1.5825,-1.5825,-1.5534,-1.4949,-1.4172,-1.3199,-1.2032,-1.0382,-0.9114,-0.8038,-0.8038,-0.8038,-0.8038,-0.8038,-0.8038,-0.8035,-0.8004,-0.7953,-0.7929,-0.7943,-0.7936,-0.7943,-0.7963,-0.8018,-0.8038,-0.8038,-0.8038,-0.8038,-0.8038,-0.8038,-0.7902,-0.7661,-0.7117,-0.7085,-0.6859,-0.6343,-0.5394,-0.3588,-0.4304,-0.4942,-0.4947,-0.2964,-0.0,-0.0,-0.0,-0.0,-0.0,-0.0,-0.4631,-0.5901,-0.6837,-0.6875,-0.6736,-0.6672,-0.6698,-0.6573,-0.6447,-0.6363,-0.6051,-0.5889,-0.5892,-0.598,-0.5986,-0.5743,-0.574,-0.559,-0.5755,-0.5752,-0.4948,-0.445,-0.4548,-0.4738,-0.5295,-0.5734,-0.4787,-0.3246,-0.0,-0.0,-0.3353,-0.0,-0.0,-0.0,-0.0,-0.0,-0.0,-0.0,-0.0,-0.0,-0.0,-0.0,-0.0,-0.0,-0.0,-0.1278,-0.1816,-0.269,-2.8858,-2.7218,-2.6239,-2.5125,-2.3814,-2.3242,-2.3144,-2.2387,-1.9015,-1.8076,-1.9183,-1.7704,-1.6793,-1.7591,-1.6386,-1.5825,-1.5825,-1.5825,-1.5825,-1.5825,-1.5629,-1.5045,-1.4172,-1.3006,-1.1063,-0.9895,-0.9015,-0.8428,-0.8038,-0.8038,-0.8038,-0.8038,-0.8038,-0.8031,-0.8018,-0.7967,-0.7892,-0.7882,-0.7862,-0.7848,-0.795,-0.7984,-0.8024,-0.8038,-0.8038,-0.8038,-0.8038,-0.8038,-0.7963,-0.7814,-0.7527,-0.6623,-0.5971,-0.5905,-0.5499,-0.4399,-0.2598,-0.0,-0.0,-0.0,-0.0,-0.0,-0.0,-0.0,-0.0,-0.0,-0.0,-0.0,-0.5009,-0.6577,-0.68,-0.6489,-0.643,-0.648,-0.6475,-0.6358,-0.6257,-0.5188,-0.4307,-0.455,-0.4794,-0.4318,-0.3602,-0.3288,-0.274,-0.3292,-0.494,-0.43,-0.4124,-0.3986,-0.0,-0.0,-0.0,-0.3301,-0.0,-0.0,-0.0,-0.0,-0.0,-0.0,-0.0,-0.0,-0.0,-0.0,-0.0,-0.0,-0.0,-0.0,-0.0,-0.0,-0.0,-0.0,-0.0,-0.0,-0.0]},{"header":{"parameterUnit":"m.s-1","parameterCategory":1,"la1":31.0,"la2":29.5877,"lo1":-88.7671,"lo2":-86.6584,"dy":0.0162,"dx":0.0185,"nx":115,"ny":88,"refTime":"2025-04-09T12:00:00:Z","depth":0,"parameterNumber":3,"parameterNumberName":"V-component_of_WINDS"},"data":[0.0,0.0,0.0,0.0,0.0,0.0,0.0,0.0,0.0,0.0,0.0,0.0,0.0,0.0,0.0,0.0,0.0,0.0,0.0,0.0,0.0,0.0,0.0,0.0,0.0,0.0,0.0,0.0,0.0,0.0,0.0,0.0,0.0,0.0,0.0,0.0,0.0,0.0,0.0,0.0,0.0,0.0,0.0,0.0,0.0,0.0,0.0,0.0,0.0,0.0,0.0,0.0,0.0,0.0,0.0,0.0,0.0,0.0,0.0,0.0,0.0,0.0,0.0,0.0,0.0,0.0,0.0,0.0,0.0,0.0,0.0,0.0,0.0,0.0,0.0,0.0,0.0,0.0,0.0,0.0,0.0,0.0,0.0,0.0,0.0,0.0,0.0,0.0,0.0,0.0,0.0,0.0,0.0,0.0,0.0,0.0,0.0,0.0,0.0,0.0,0.0,0.0,0.0,0.0,0.0,0.0,0.0,0.0,0.0,0.0,0.0,0.0,0.0,0.0,0.0,0.0,0.0,0.0,0.0,0.0,0.0,0.0,0.0,0.0,0.0,0.0,0.0,0.0,0.0,0.0,0.0,0.0,0.0,0.0,0.0,0.0,0.0,0.0,0.0,0.0,0.0,0.0,0.0,0.0,0.0,0.0,0.0,0.0,0.0,0.0,0.0,0.0,0.0,0.0,0.0,0.0,0.0,0.0,0.0,0.0,0.0,0.0,0.0,0.0,0.0,0.0,0.0,0.0,0.0,0.0,0.0,0.0,0.0,0.0,0.0,0.0,0.0,0.0,0.0,0.0,0.0,0.0,0.0,0.0,0.0,0.0,0.0,0.0,0.0,0.0,0.0,0.0,0.0,0.0,0.0,0.0,0.0,0.0,0.0,0.0,0.0,0.0,0.0,0.0,0.0,0.0,0.0,0.0,0.0,0.0,0.0,0.0,0.0,0.0,0.0,0.0,0.0,0.0,0.0,0.0,0.0,0.0,0.0,0.0,0.0,0.0,0.0,0.0,0.0,0.0,0.0,0.0,0.0,0.0,0.0,0.0,0.0,0.0,0.0,0.0,0.0,0.0,0.0,0.0,0.0,0.0,0.0,0.0,0.0,0.0,0.0,0.0,0.0,0.0,0.0,0.0,0.0,0.0,0.0,0.0,0.0,0.0,0.0,0.0,0.0,0.0,0.0,0.0,0.0,0.0,0.0,0.0,0.0,0.0,0.0,0.0,0.0,0.0,0.0,0.0,0.0,0.0,0.0,0.0,0.0,0.0,0.0,0.0,0.0,0.0,0.0,0.0,0.0,0.0,0.0,0.0,0.0,0.0,0.0,0.0,0.0,0.0,0.0,0.0,0.0,0.0,0.0,0.0,0.0,0.0,0.0,0.0,0.0,0.0,0.0,0.0,0.0,0.0,0.0,0.0,0.0,0.0,0.0,0.0,0.0,0.0,0.0,0.0,0.0,0.0,0.0,0.0,0.0,0.0,0.0,0.0,0.0,0.0,0.0,0.0,0.0,0.0,0.0,0.0,0.0,0.0,0.0,0.0,0.0,0.0,0.0,0.0,0.0,0.0,0.0,0.0,0.0,0.0,0.0,0.0,0.0,0.0,0.0,0.0,0.0,0.0,0.0,0.0,0.0,0.0,0.0,0.0,0.0,0.0,0.0,0.0,0.0,0.0,0.0,0.0,0.0,0.0,0.0,0.0,0.0,0.0,0.0,0.0,0.0,0.0,0.0,0.0,0.0,0.0,0.0,0.0,0.0,0.0,0.0,0.0,0.0,0.0,0.0,0.0,0.0,0.0,0.0,0.0,0.0,0.0,0.0,0.0,0.0,0.0,0.0,0.0,0.0,0.0,0.0,0.0,0.0,0.0,0.0,0.0,0.0,0.0,0.0,0.0,0.0,0.0,0.0,0.0,0.0,0.0,0.0,0.0,0.0,0.0,0.0,0.0,0.0,0.0,0.0,0.0,0.0,0.0,0.0,0.0,0.0,0.0,0.0,0.0,0.0,0.0,0.0,0.0,0.0,0.0,0.0,0.0,0.0,0.0,0.0,0.0,0.0,0.0,0.0,0.0,0.0,0.0,0.0,0.0,0.0,0.0,0.0,0.0,0.0,0.0,0.0,0.0,0.0,0.0,0.0,0.0,0.0,0.0,0.0,0.0,0.0,0.0,0.0,0.0,0.0,0.0,0.0,0.0,0.0,0.0,0.0,0.0,0.0,0.0,0.0,0.0,0.0,0.0,0.0,0.0,0.0,0.0,0.0,0.0,0.0,0.0,0.0,0.0,0.0,0.0,0.0,0.0,0.0,0.0,0.0,0.0,0.0,0.0,0.0,0.0,0.0,0.0,0.0,0.0,0.0,0.0,0.0,0.0,0.0,0.0,0.0,0.0,0.0,0.0,0.0,0.0,0.0,0.0,0.0,0.0,0.0,0.0,0.0,0.0,0.0,0.0,0.0,0.0,0.0,0.0,0.0,0.0,0.0,0.0,0.0,0.0,0.0,0.0,0.0,0.0,0.0,0.0,0.0,0.0,0.0,0.0,0.0,0.0,0.0,0.0,0.0,0.0,0.0,0.0,0.0,0.0,0.0,0.0,0.0,0.0,0.0,0.0,0.0,0.0,0.0,0.0,0.0,0.0,0.0,0.0,0.0,0.0,0.0,0.0,0.0,0.0,0.0,0.0,0.0,0.0,0.0,0.0,0.0,0.0,0.0,0.0,0.0,0.0,0.0,0.0,0.0,0.0,0.0,0.0,0.0,0.0,0.0,0.0,0.0,0.0,0.0,0.0,0.0,0.0,0.0,0.0,0.0,0.0,0.0,0.0,0.0,0.0,0.0,0.0,0.0,0.0,0.0,0.0,0.0,0.0,0.0,0.0,0.0,0.0,0.0,0.0,0.0,0.0,0.0,0.0,0.0,0.0,0.0,0.0,0.0,0.0,0.0,0.0,0.0,0.0,0.0,0.0,0.0,0.0,0.0,0.0,0.0,0.0,0.0,0.0,0.0,0.0,0.0,0.0,0.0,0.0,0.0,0.0,0.0,0.0,0.0,0.0,0.0,0.0,0.0,0.0,0.0,0.0,0.0,0.0,0.0,0.0,0.0,0.0,0.0,0.0,0.0,0.0,0.0,0.0,0.0,0.0,0.0,0.0,0.0,0.0,0.0,0.0,0.0,0.0,0.0,0.0,0.0,0.0,0.0,0.0,0.0,0.0,0.0,0.0,0.0,0.0,0.0,0.0,0.0,0.0,0.0,0.0,0.0,0.0,0.0,0.0,0.0,0.0,0.0,0.0,0.0,0.0,0.0,0.0,0.0,0.0,0.0,0.0,0.0,0.0,0.0,0.0,0.0,0.0,0.0,0.0,0.0,0.0,0.0,0.0,0.0,0.0,0.0,0.0,0.0,0.0,0.0,0.0,0.0,0.0,0.0,0.0,0.0,0.0,0.0,0.0,0.0,0.0,0.0,0.0,0.0,0.0,0.0,0.0,0.0,0.0,0.0,0.0,0.0,0.0,0.0,0.0,0.0,0.0,0.0,0.0,0.0,0.0,0.0,0.0,0.0,0.0,0.0,0.0,0.0,0.0,0.0,0.0,0.0,0.0,0.0,0.0,0.0,0.0,0.0,0.0,0.0,0.0,0.0,0.0,0.0,0.0,0.0,0.0,0.0,0.0,0.0,0.0,0.0,0.0,0.0,0.0,0.0,0.0,0.0,0.0,0.0,0.0,0.0,0.0,0.0,0.0,0.0,0.0,0.0,0.0,0.0,0.0,0.0,0.0,0.0,0.0,0.0,0.0,0.0,0.0,0.0,0.0,0.0,0.0,0.0,0.0,0.0,0.0,0.0,0.0,0.0,0.0,0.0,0.0,0.0,0.0,0.0,0.0,0.0,0.0,0.0,0.0,0.0,0.0,0.0,0.0,0.0,0.0,0.0,0.0,0.0,0.0,0.0,0.0,0.0,0.0,0.0,0.0,0.0,0.0,0.0,0.0,0.0,0.0,0.0,0.0,0.0,0.0,0.0,0.0,0.0,0.0,0.0,0.0,0.0,0.0,0.0,0.0,0.0,0.0,0.0,0.0,0.0,0.0,0.0,0.0,0.0,0.0,0.0,0.0,0.0,0.0,0.0,0.0,0.0,0.0,0.0,0.0,0.0,0.0,0.0,0.0,0.0,0.0,0.0,0.0,0.0,0.0,0.0,0.0,0.0,0.0,0.0,0.0,0.0,0.0,0.0,0.0,0.0,0.0,0.0,0.0,0.0,0.0,0.0,0.0,-2.5779,0.0,0.0,0.0,0.0,0.0,0.0,0.0,0.0,0.0,0.0,0.0,0.0,0.0,0.0,0.0,0.0,0.0,0.0,0.0,0.0,0.0,0.0,0.0,0.0,0.0,0.0,0.0,0.0,0.0,0.0,0.0,0.0,0.0,0.0,0.0,0.0,0.0,0.0,0.0,0.0,0.0,0.0,0.0,0.0,0.0,0.0,0.0,0.0,0.0,0.0,0.0,0.0,0.0,0.0,0.0,0.0,0.0,0.0,0.0,0.0,0.0,0.0,0.0,0.0,0.0,0.0,0.0,0.0,0.0,0.0,0.0,0.0,0.0,0.0,0.0,0.0,0.0,0.0,0.0,0.0,0.0,0.0,0.0,0.0,0.0,0.0,0.0,0.0,0.0,0.0,0.0,0.0,0.0,0.0,0.0,0.0,0.0,0.0,0.0,0.0,0.0,0.0,0.0,0.0,0.0,0.0,0.0,0.0,0.0,0.0,-2.8785,-2.7014,-2.7014,-2.6441,-2.5274,0.0,0.0,0.0,0.0,0.0,0.0,0.0,0.0,0.0,0.0,0.0,0.0,0.0,0.0,0.0,0.0,0.0,0.0,0.0,0.0,0.0,0.0,0.0,0.0,0.0,0.0,0.0,0.0,0.0,0.0,0.0,0.0,0.0,0.0,0.0,0.0,0.0,0.0,0.0,0.0,0.0,0.0,0.0,0.0,0.0,0.0,0.0,0.0,0.0,0.0,0.0,0.0,0.0,0.0,0.0,0.0,0.0,0.0,0.0,0.0,0.0,0.0,0.0,0.0,0.0,0.0,0.0,0.0,0.0,0.0,0.0,0.0,0.0,0.0,0.0,0.0,0.0,0.0,0.0,0.0,0.0,0.0,0.0,0.0,0.0,0.0,0.0,0.0,0.0,0.0,0.0,0.0,0.0,0.0,0.0,0.0,0.0,0.0,0.0,0.0,0.0,0.0,0.0,0.0,0.0,0.0,0.0,0.0,0.0,0.0,0.0,0.0,-2.58,-2.5439,-2.4931,0.0,0.0,0.0,0.0,0.0,0.0,0.0,0.0,0.0,0.0,0.0,0.0,0.0,0.0,0.0,0.0,0.0,0.0,0.0,0.0,0.0,0.0,0.0,0.0,0.0,0.0,0.0,0.0,0.0,0.0,0.0,0.0,0.0,0.0,0.0,0.0,0.0,0.0,0.0,0.0,0.0,0.0,0.0,0.0,0.0,0.0,0.0,0.0,0.0,0.0,0.0,0.0,0.0,0.0,0.0,0.0,0.0,0.0,0.0,0.0,0.0,0.0,0.0,0.0,0.0,0.0,0.0,0.0,0.0,0.0,0.0,0.0,0.0,0.0,0.0,0.0,0.0,0.0,0.0,0.0,0.0,0.0,0.0,0.0,0.0,0.0,0.0,0.0,0.0,0.0,0.0,0.0,0.0,0.0,0.0,0.0,0.0,0.0,0.0,0.0,0.0,0.0,0.0,0.0,0.0,0.0,0.0,0.0,0.0,0.0,-2.757,-2.7145,-2.6119,0.0,-2.5068,0.0,0.0,0.0,0.0,0.0,0.0,0.0,0.0,0.0,0.0,0.0,0.0,0.0,0.0,0.0,0.0,0.0,0.0,0.0,0.0,0.0,0.0,0.0,0.0,0.0,0.0,0.0,0.0,0.0,0.0,0.0,0.0,0.0,0.0,0.0,0.0,0.0,0.0,0.0,0.0,0.0,0.0,0.0,0.0,0.0,0.0,0.0,0.0,0.0,0.0,0.0,0.0,0.0,0.0,0.0,0.0,0.0,0.0,0.0,0.0,0.0,0.0,0.0,0.0,0.0,0.0,0.0,0.0,0.0,0.0,0.0,0.0,0.0,0.0,0.0,0.0,0.0,0.0,0.0,0.0,0.0,0.0,0.0,0.0,0.0,0.0,0.0,0.0,0.0,0.0,0.0,0.0,0.0,0.0,0.0,0.0,0.0,0.0,0.0,0.0,0.0,0.0,0.0,0.0,0.0,0.0,0.0,0.0,0.0,0.0,-2.7284,-2.6335,-2.4952,-2.3776,0.0,0.0,0.0,0.0,0.0,0.0,0.0,0.0,0.0,0.0,0.0,0.0,0.0,0.0,0.0,0.0,0.0,0.0,0.0,0.0,0.0,0.0,0.0,0.0,0.0,0.0,0.0,0.0,0.0,0.0,0.0,0.0,0.0,0.0,0.0,0.0,0.0,0.0,0.0,0.0,0.0,0.0,0.0,0.0,0.0,0.0,0.0,0.0,0.0,0.0,0.0,0.0,0.0,0.0,0.0,0.0,0.0,0.0,0.0,0.0,0.0,0.0,0.0,0.0,0.0,0.0,0.0,0.0,0.0,0.0,0.0,0.0,0.0,0.0,0.0,0.0,0.0,0.0,0.0,0.0,0.0,0.0,0.0,0.0,0.0,0.0,0.0,0.0,0.0,0.0,0.0,0.0,0.0,0.0,0.0,0.0,0.0,0.0,0.0,0.0,0.0,0.0,0.0,0.0,0.0,0.0,0.0,0.0,0.0,0.0,-2.8241,-2.6341,-2.441,-2.3289,-2.212,-2.0788,0.0,0.0,0.0,0.0,0.0,0.0,0.0,0.0,0.0,0.0,0.0,0.0,0.0,0.0,0.0,0.0,0.0,0.0,0.0,0.0,0.0,0.0,0.0,0.0,0.0,0.0,0.0,0.0,0.0,0.0,0.0,0.0,0.0,0.0,0.0,0.0,0.0,0.0,0.0,0.0,0.0,0.0,0.0,0.0,0.0,0.0,0.0,0.0,0.0,0.0,0.0,0.0,0.0,0.0,0.0,0.0,0.0,0.0,0.0,0.0,0.0,0.0,0.0,0.0,0.0,0.0,0.0,0.0,0.0,0.0,0.0,0.0,0.0,0.0,0.0,0.0,0.0,0.0,0.0,0.0,0.0,0.0,0.0,0.0,0.0,0.0,0.0,0.0,0.0,0.0,0.0,0.0,0.0,0.0,0.0,0.0,0.0,0.0,0.0,0.0,0.0,0.0,0.0,0.0,0.0,0.0,0.0,0.0,0.0,-2.7676,-2.4568,-2.1302,-2.1313,-2.0819,0.0,0.0,0.0,0.0,0.0,0.0,0.0,0.0,0.0,0.0,0.0,0.0,0.0,0.0,0.0,0.0,0.0,0.0,0.0,0.0,0.0,0.0,0.0,0.0,0.0,0.0,0.0,0.0,0.0,0.0,0.0,0.0,0.0,0.0,0.0,0.0,0.0,0.0,0.0,0.0,0.0,0.0,0.0,0.0,0.0,0.0,0.0,0.0,0.0,0.0,0.0,0.0,0.0,0.0,0.0,0.0,0.0,0.0,0.0,0.0,0.0,0.0,0.0,0.0,0.0,0.0,0.0,0.0,0.0,0.0,0.0,0.0,0.0,0.0,0.0,0.0,0.0,0.0,0.0,0.0,0.0,0.0,0.0,0.0,0.0,0.0,0.0,0.0,0.0,0.0,0.0,0.0,0.0,0.0,0.0,0.0,0.0,0.0,0.0,0.0,0.0,0.0,0.0,0.0,0.0,0.0,0.0,0.0,0.0,-3.0487,-2.6995,-2.3857,-2.1235,-2.0734,-2.0042,0.0,0.0,0.0,0.0,0.0,0.0,0.0,0.0,0.0,0.0,0.0,0.0,0.0,0.0,0.0,0.0,0.0,0.0,0.0,0.0,0.0,0.0,0.0,0.0,0.0,0.0,0.0,0.0,0.0,0.0,0.0,0.0,0.0,0.0,0.0,0.0,0.0,0.0,0.0,0.0,0.0,0.0,0.0,0.0,0.0,0.0,0.0,0.0,0.0,0.0,0.0,0.0,0.0,0.0,0.0,0.0,0.0,0.0,0.0,0.0,0.0,0.0,0.0,0.0,0.0,0.0,0.0,0.0,0.0,0.0,0.0,0.0,0.0,0.0,0.0,0.0,0.0,0.0,0.0,0.0,0.0,0.0,0.0,0.0,0.0,0.0,0.0,0.0,0.0,0.0,0.0,0.0,0.0,0.0,0.0,0.0,0.0,0.0,0.0,0.0,0.0,0.0,0.0,0.0,0.0,0.0,0.0,0.0,0.0,-2.907,0.0,-2.31,0.0,-1.98,-1.8886,0.0,0.0,0.0,0.0,0.0,0.0,0.0,0.0,0.0,0.0,0.0,0.0,0.0,0.0,0.0,0.0,0.0,0.0,0.0,0.0,0.0,0.0,0.0,0.0,0.0,0.0,0.0,0.0,0.0,0.0,0.0,0.0,0.0,0.0,0.0,0.0,0.0,0.0,0.0,0.0,0.0,0.0,0.0,0.0,0.0,0.0,0.0,0.0,0.0,0.0,0.0,0.0,0.0,0.0,0.0,0.0,0.0,0.0,0.0,0.0,0.0,0.0,0.0,0.0,0.0,0.0,0.0,0.0,0.0,0.0,0.0,0.0,0.0,0.0,0.0,0.0,0.0,0.0,0.0,0.0,0.0,0.0,0.0,0.0,0.0,0.0,0.0,0.0,0.0,0.0,0.0,0.0,0.0,0.0,0.0,0.0,0.0,0.0,0.0,0.0,0.0,0.0,0.0,0.0,0.0,0.0,0.0,0.0,-2.894,-2.6237,-2.3949,-2.2198,-2.0916,-1.8588,-1.758,0.0,0.0,0.0,0.0,0.0,0.0,0.0,0.0,0.0,0.0,0.0,0.0,0.0,0.0,0.0,0.0,0.0,0.0,0.0,0.0,0.0,0.0,0.0,0.0,0.0,0.0,0.0,0.0,0.0,0.0,0.0,0.0,0.0,0.0,0.0,0.0,0.0,0.0,0.0,0.0,0.0,0.0,0.0,0.0,0.0,0.0,0.0,0.0,0.0,0.0,0.0,0.0,0.0,0.0,0.0,0.0,0.0,0.0,0.0,0.0,0.0,0.0,0.0,0.0,0.0,0.0,0.0,0.0,0.0,0.0,0.0,0.0,0.0,0.0,0.0,0.0,0.0,0.0,0.0,0.0,0.0,0.0,0.0,0.0,0.0,0.0,0.0,0.0,0.0,0.0,0.0,0.0,0.0,0.0,0.0,0.0,0.0,0.0,0.0,0.0,0.0,0.0,0.0,0.0,0.0,0.0,0.0,0.0,0.0,-2.6111,-2.313,-2.1141,-2.0212,-1.8929,-1.8272,0.0,0.0,0.0,0.0,0.0,0.0,0.0,0.0,0.0,0.0,0.0,0.0,0.0,0.0,0.0,0.0,0.0,0.0,0.0,0.0,0.0,0.0,0.0,0.0,0.0,0.0,0.0,0.0,0.0,0.0,0.0,0.0,0.0,0.0,0.0,0.0,0.0,0.0,0.0,0.0,0.0,0.0,0.0,0.0,0.0,0.0,0.0,0.0,0.0,0.0,0.0,0.0,0.0,0.0,0.0,0.0,0.0,0.0,0.0,0.0,0.0,0.0,0.0,0.0,0.0,0.0,0.0,0.0,0.0,0.0,0.0,0.0,0.0,0.0,0.0,0.0,0.0,0.0,0.0,0.0,0.0,0.0,0.0,0.0,0.0,0.0,0.0,0.0,0.0,0.0,0.0,0.0,0.0,0.0,0.0,0.0,0.0,0.0,0.0,0.0,0.0,0.0,0.0,0.0,0.0,0.0,0.0,0.0,0.0,-2.6426,-2.369,-2.2035,-2.1631,-1.9745,-1.897,-1.9478,0.0,0.0,0.0,0.0,0.0,0.0,0.0,0.0,0.0,0.0,0.0,0.0,0.0,0.0,0.0,0.0,0.0,0.0,0.0,0.0,0.0,0.0,0.0,0.0,0.0,0.0,0.0,0.0,0.0,0.0,0.0,0.0,0.0,0.0,0.0,0.0,0.0,0.0,0.0,0.0,0.0,0.0,0.0,0.0,0.0,0.0,0.0,0.0,0.0,0.0,0.0,0.0,0.0,0.0,0.0,0.0,0.0,0.0,0.0,0.0,0.0,0.0,0.0,0.0,0.0,0.0,0.0,0.0,0.0,0.0,0.0,0.0,0.0,0.0,0.0,0.0,0.0,0.0,0.0,0.0,0.0,0.0,0.0,0.0,0.0,0.0,0.0,0.0,0.0,0.0,0.0,0.0,0.0,0.0,0.0,0.0,0.0,0.0,0.0,0.0,0.0,0.0,0.0,0.0,0.0,0.0,0.0,0.0,-2.7034,-2.5447,-2.4526,-2.4297,-2.0737,-1.977,0.0,0.0,0.0,0.0,0.0,0.0,0.0,0.0,0.0,0.0,0.0,0.0,0.0,0.0,0.0,0.0,0.0,0.0,0.0,0.0,0.0,0.0,0.0,0.0,0.0,0.0,0.0,0.0,0.0,0.0,0.0,0.0,0.0,0.0,0.0,0.0,0.0,0.0,0.0,0.0,0.0,0.0,0.0,0.0,0.0,0.0,0.0,0.0,0.0,0.0,0.0,0.0,0.0,0.0,0.0,0.0,0.0,0.0,0.0,0.0,0.0,0.0,0.0,0.0,0.0,0.0,0.0,0.0,0.0,0.0,0.0,0.0,0.0,0.0,0.0,0.0,0.0,0.0,0.0,0.0,0.0,0.0,0.0,0.0,0.0,0.0,0.0,0.0,0.0,0.0,0.0,0.0,0.0,0.0,0.0,0.0,0.0,0.0,0.0,0.0,0.0,0.0,0.0,0.0,0.0,0.0,0.0,0.0,0.0,-2.8488,-2.7947,-2.6513,-2.398,-2.2327,-2.1605,0.0,0.0,0.0,0.0,0.0,0.0,0.0,0.0,0.0,0.0,0.0,0.0,0.0,0.0,0.0,0.0,0.0,0.0,0.0,0.0,0.0,0.0,0.0,0.0,0.0,0.0,0.0,0.0,0.0,0.0,0.0,0.0,0.0,0.0,0.0,0.0,0.0,0.0,0.0,0.0,0.0,0.0,0.0,0.0,0.0,0.0,0.0,0.0,0.0,0.0,0.0,0.0,0.0,0.0,0.0,0.0,0.0,0.0,0.0,0.0,0.0,0.0,0.0,0.0,0.0,0.0,0.0,0.0,0.0,0.0,0.0,0.0,0.0,0.0,0.0,0.0,0.0,0.0,0.0,0.0,0.0,0.0,0.0,0.0,0.0,0.0,0.0,0.0,0.0,0.0,0.0,0.0,0.0,0.0,0.0,0.0,0.0,0.0,0.0,0.0,0.0,0.0,0.0,0.0,0.0,0.0,0.0,0.0,-3.1768,-3.0034,-2.9677,-2.8158,-2.5404,-2.4079,-2.3481,0.0,0.0,0.0,0.0,0.0,0.0,0.0,0.0,0.0,0.0,0.0,0.0,0.0,0.0,0.0,0.0,0.0,0.0,0.0,0.0,0.0,0.0,0.0,0.0,0.0,0.0,0.0,0.0,0.0,0.0,0.0,0.0,0.0,0.0,0.0,0.0,0.0,0.0,0.0,0.0,0.0,0.0,0.0,0.0,0.0,0.0,0.0,0.0,0.0,0.0,0.0,0.0,0.0,0.0,0.0,0.0,0.0,0.0,0.0,0.0,0.0,0.0,0.0,0.0,0.0,0.0,0.0,0.0,0.0,0.0,0.0,0.0,0.0,0.0,0.0,0.0,0.0,0.0,0.0,0.0,0.0,0.0,0.0,0.0,0.0,0.0,0.0,0.0,0.0,0.0,0.0,0.0,0.0,0.0,0.0,0.0,0.0,0.0,0.0,0.0,0.0,0.0,0.0,0.0,0.0,0.0,0.0,0.0,-3.3436,-3.181,-3.1197,-2.9891,-2.8088,-2.5852,-2.5061,0.0,0.0,0.0,0.0,0.0,0.0,0.0,0.0,0.0,0.0,0.0,0.0,0.0,0.0,0.0,0.0,0.0,0.0,0.0,0.0,0.0,0.0,0.0,0.0,0.0,0.0,0.0,0.0,0.0,0.0,0.0,0.0,0.0,0.0,0.0,0.0,0.0,0.0,0.0,0.0,0.0,0.0,0.0,0.0,0.0,0.0,0.0,0.0,0.0,0.0,0.0,0.0,0.0,0.0,0.0,0.0,0.0,0.0,0.0,0.0,0.0,0.0,0.0,0.0,0.0,0.0,0.0,0.0,0.0,0.0,0.0,0.0,0.0,0.0,0.0,0.0,0.0,0.0,0.0,0.0,0.0,0.0,0.0,0.0,0.0,0.0,0.0,0.0,0.0,0.0,0.0,0.0,0.0,0.0,0.0,0.0,0.0,0.0,0.0,0.0,0.0,0.0,0.0,0.0,0.0,0.0,0.0,0.0,-3.5581,-3.4512,-3.4267,-3.296,-3.04,-2.7211,-2.5826,0.0,0.0,0.0,0.0,0.0,0.0,0.0,0.0,0.0,0.0,0.0,0.0,0.0,0.0,0.0,0.0,0.0,0.0,0.0,0.0,0.0,0.0,0.0,0.0,0.0,0.0,0.0,0.0,0.0,0.0,0.0,0.0,0.0,0.0,0.0,0.0,0.0,0.0,0.0,0.0,0.0,0.0,0.0,0.0,0.0,0.0,0.0,0.0,-2.4756,0.0,0.0,0.0,0.0,0.0,0.0,0.0,0.0,0.0,0.0,0.0,0.0,0.0,0.0,0.0,0.0,0.0,0.0,0.0,0.0,0.0,0.0,0.0,0.0,0.0,0.0,0.0,0.0,0.0,0.0,0.0,0.0,0.0,0.0,0.0,0.0,0.0,0.0,0.0,0.0,0.0,0.0,0.0,0.0,0.0,0.0,0.0,0.0,0.0,0.0,0.0,0.0,0.0,0.0,0.0,0.0,0.0,0.0,0.0,-3.7102,-3.6882,-3.5831,-3.4206,-3.2082,-2.9593,-2.8084,0.0,0.0,0.0,0.0,0.0,0.0,0.0,0.0,0.0,0.0,0.0,0.0,0.0,0.0,0.0,0.0,0.0,0.0,0.0,0.0,0.0,0.0,0.0,0.0,0.0,0.0,0.0,0.0,0.0,0.0,0.0,0.0,0.0,0.0,0.0,0.0,0.0,0.0,0.0,0.0,0.0,0.0,0.0,0.0,0.0,0.0,0.0,0.0,0.0,0.0,0.0,0.0,0.0,0.0,0.0,0.0,0.0,0.0,0.0,0.0,0.0,0.0,0.0,0.0,0.0,0.0,0.0,0.0,0.0,0.0,0.0,0.0,0.0,0.0,0.0,0.0,0.0,0.0,0.0,0.0,0.0,0.0,0.0,0.0,0.0,0.0,0.0,0.0,0.0,0.0,0.0,0.0,0.0,0.0,0.0,0.0,0.0,0.0,0.0,0.0,0.0,0.0,0.0,0.0,0.0,0.0,0.0,-3.8347,-3.8187,-3.9124,-3.687,-3.494,-3.3697,-3.2282,-3.0876,-2.9396,0.0,0.0,0.0,0.0,0.0,0.0,0.0,0.0,0.0,0.0,0.0,0.0,0.0,0.0,0.0,0.0,0.0,0.0,0.0,0.0,0.0,0.0,0.0,0.0,0.0,0.0,0.0,0.0,0.0,0.0,0.0,0.0,0.0,0.0,0.0,0.0,0.0,0.0,-3.8865,-3.3157,0.0,0.0,0.0,0.0,0.0,0.0,0.0,0.0,-2.5442,0.0,0.0,0.0,0.0,0.0,0.0,0.0,0.0,0.0,0.0,0.0,0.0,0.0,0.0,0.0,0.0,0.0,0.0,0.0,0.0,0.0,0.0,0.0,0.0,0.0,0.0,0.0,0.0,0.0,0.0,0.0,0.0,0.0,0.0,0.0,0.0,0.0,0.0,0.0,0.0,0.0,0.0,0.0,0.0,0.0,0.0,0.0,0.0,0.0,0.0,0.0,0.0,0.0,0.0,0.0,0.0,-4.0995,-3.8785,-3.8983,-4.1701,-3.9091,-3.6922,-3.5615,-3.4639,-3.3047,-3.0777,0.0,0.0,0.0,0.0,0.0,0.0,0.0,0.0,0.0,0.0,0.0,0.0,0.0,0.0,0.0,0.0,0.0,0.0,0.0,0.0,0.0,0.0,0.0,0.0,0.0,0.0,0.0,0.0,0.0,0.0,0.0,0.0,0.0,0.0,0.0,0.0,0.0,0.0,0.0,-3.1821,-2.7858,0.0,0.0,0.0,0.0,0.0,0.0,0.0,0.0,-2.6897,0.0,0.0,0.0,0.0,0.0,0.0,0.0,0.0,0.0,0.0,0.0,0.0,0.0,0.0,0.0,0.0,0.0,0.0,0.0,0.0,0.0,0.0,0.0,0.0,0.0,0.0,0.0,0.0,0.0,0.0,0.0,0.0,0.0,0.0,0.0,0.0,0.0,0.0,0.0,0.0,0.0,0.0,0.0,0.0,0.0,0.0,0.0,0.0,0.0,0.0,0.0,0.0,0.0,0.0,0.0,-4.1189,-4.0502,-4.1072,-4.2844,-4.0394,-3.8333,-3.6995,-3.5481,-3.4072,0.0,0.0,0.0,0.0,0.0,0.0,0.0,0.0,0.0,0.0,0.0,0.0,0.0,0.0,0.0,0.0,0.0,0.0,0.0,0.0,0.0,0.0,0.0,0.0,0.0,0.0,0.0,0.0,0.0,0.0,0.0,0.0,0.0,0.0,0.0,0.0,0.0,0.0,0.0,0.0,-3.0721,-2.7308,-2.4514,0.0,0.0,0.0,0.0,0.0,0.0,-2.6435,-2.7239,0.0,0.0,0.0,0.0,0.0,0.0,0.0,0.0,0.0,0.0,0.0,0.0,0.0,0.0,0.0,0.0,0.0,0.0,0.0,0.0,0.0,0.0,0.0,0.0,0.0,0.0,0.0,0.0,0.0,0.0,0.0,0.0,0.0,0.0,0.0,0.0,0.0,0.0,0.0,0.0,0.0,0.0,0.0,0.0,0.0,0.0,0.0,0.0,0.0,0.0,0.0,0.0,0.0,0.0,0.0,-4.1354,-4.198,-4.2704,-4.3714,-4.1463,-3.9741,-3.8697,-3.6455,-3.5072,0.0,0.0,0.0,0.0,0.0,0.0,0.0,0.0,0.0,0.0,0.0,0.0,0.0,0.0,0.0,0.0,0.0,0.0,0.0,0.0,0.0,0.0,0.0,0.0,0.0,0.0,0.0,0.0,0.0,0.0,0.0,0.0,0.0,0.0,0.0,0.0,0.0,0.0,0.0,0.0,0.0,-2.7568,-2.5423,-2.3384,0.0,0.0,0.0,0.0,-2.6576,-2.7785,0.0,0.0,0.0,0.0,0.0,0.0,0.0,0.0,0.0,0.0,0.0,0.0,0.0,0.0,0.0,0.0,0.0,0.0,0.0,0.0,0.0,0.0,0.0,0.0,0.0,0.0,0.0,0.0,0.0,0.0,0.0,0.0,0.0,0.0,0.0,0.0,0.0,0.0,0.0,0.0,0.0,0.0,0.0,0.0,0.0,0.0,0.0,0.0,0.0,0.0,0.0,0.0,0.0,0.0,0.0,0.0,-4.1324,-4.1448,-4.2711,-4.4915,-4.2775,-4.1434,-4.1196,-3.8382,-3.6606,0.0,0.0,0.0,0.0,0.0,0.0,0.0,0.0,0.0,0.0,0.0,0.0,0.0,0.0,0.0,0.0,0.0,0.0,0.0,0.0,0.0,0.0,0.0,0.0,0.0,0.0,0.0,0.0,0.0,0.0,0.0,0.0,0.0,0.0,0.0,0.0,0.0,0.0,0.0,0.0,0.0,-3.0075,-2.5657,-2.4688,-2.4477,0.0,0.0,-2.8028,-2.968,-3.162,0.0,0.0,0.0,0.0,0.0,0.0,0.0,0.0,0.0,0.0,0.0,0.0,0.0,0.0,0.0,0.0,0.0,0.0,0.0,0.0,0.0,0.0,0.0,0.0,0.0,0.0,0.0,0.0,0.0,0.0,0.0,0.0,0.0,0.0,0.0,0.0,0.0,0.0,0.0,0.0,0.0,0.0,0.0,0.0,0.0,0.0,0.0,0.0,0.0,0.0,0.0,0.0,0.0,0.0,0.0,-3.8901,-4.0816,-4.2317,-4.3449,-4.4222,-4.2965,-4.1882,-4.1156,-3.8214,-3.6573,0.0,0.0,0.0,0.0,0.0,0.0,0.0,0.0,0.0,0.0,0.0,0.0,0.0,0.0,0.0,0.0,0.0,0.0,0.0,0.0,0.0,0.0,0.0,0.0,0.0,0.0,0.0,0.0,0.0,0.0,0.0,0.0,0.0,0.0,0.0,0.0,0.0,0.0,0.0,0.0,0.0,0.0,-2.717,-2.5784,0.0,0.0,0.0,-2.9879,-3.1151,0.0,0.0,0.0,0.0,0.0,0.0,0.0,0.0,0.0,0.0,0.0,0.0,0.0,0.0,0.0,0.0,0.0,0.0,0.0,0.0,0.0,0.0,0.0,0.0,0.0,0.0,0.0,0.0,0.0,0.0,0.0,0.0,0.0,0.0,0.0,0.0,0.0,0.0,0.0,0.0,0.0,0.0,0.0,0.0,0.0,0.0,0.0,0.0,0.0,0.0,0.0,0.0,0.0,0.0,0.0,0.0,0.0,-4.0412,-4.2985,-4.4175,-4.3891,-4.3294,-4.2537,-4.1578,-3.8785,0.0,0.0,0.0,0.0,0.0,0.0,0.0,0.0,0.0,0.0,0.0,0.0,0.0,0.0,0.0,0.0,0.0,0.0,0.0,0.0,0.0,0.0,0.0,0.0,0.0,0.0,0.0,-3.5826,0.0,0.0,0.0,0.0,0.0,0.0,0.0,0.0,0.0,0.0,0.0,0.0,0.0,0.0,-3.0242,-2.8925,-2.7843,-2.8327,0.0,0.0,-3.2027,-3.2944,-3.4903,-3.5241,0.0,0.0,0.0,0.0,0.0,0.0,0.0,0.0,0.0,0.0,0.0,0.0,0.0,0.0,0.0,0.0,0.0,0.0,0.0,0.0,0.0,0.0,0.0,0.0,0.0,0.0,0.0,0.0,0.0,0.0,0.0,0.0,0.0,0.0,0.0,0.0,0.0,0.0,0.0,0.0,0.0,0.0,0.0,0.0,0.0,0.0,0.0,0.0,0.0,0.0,0.0,0.0,0.0,0.0,0.0,-4.0427,-4.2985,-4.4519,-4.5147,-4.4564,-4.4124,-4.3998,-4.1469,-3.9548,0.0,0.0,0.0,0.0,0.0,0.0,0.0,0.0,0.0,0.0,0.0,0.0,0.0,0.0,0.0,0.0,0.0,0.0,0.0,0.0,0.0,0.0,0.0,0.0,0.0,0.0,0.0,0.0,0.0,0.0,0.0,0.0,0.0,0.0,0.0,0.0,0.0,0.0,0.0,0.0,0.0,-3.3339,-3.0263,-3.1424,-3.302,0.0,0.0,-3.4869,-3.6288,-3.8179,-3.8299,-3.4997,0.0,0.0,0.0,0.0,0.0,0.0,0.0,0.0,0.0,0.0,0.0,0.0,0.0,0.0,0.0,0.0,0.0,0.0,0.0,0.0,0.0,0.0,0.0,0.0,0.0,0.0,0.0,0.0,0.0,0.0,0.0,0.0,0.0,0.0,0.0,0.0,0.0,0.0,0.0,0.0,0.0,0.0,0.0,0.0,0.0,0.0,0.0,0.0,0.0,0.0,0.0,0.0,0.0,-3.8063,-3.9783,-4.1983,-4.3419,-4.4047,-4.3838,-4.3703,-4.3703,-4.1564,-3.9768,0.0,0.0,0.0,0.0,0.0,0.0,0.0,0.0,0.0,0.0,0.0,0.0,0.0,0.0,0.0,0.0,0.0,0.0,0.0,0.0,0.0,0.0,0.0,0.0,0.0,0.0,0.0,0.0,-3.9388,-3.8886,-3.78,0.0,0.0,0.0,0.0,0.0,0.0,0.0,0.0,0.0,0.0,-3.3066,-3.2083,-3.2886,0.0,0.0,-3.5993,-3.6388,-3.7433,-3.7944,-3.7257,-3.4648,-3.5152,0.0,0.0,0.0,0.0,0.0,0.0,0.0,0.0,0.0,0.0,0.0,0.0,0.0,0.0,0.0,0.0,0.0,0.0,0.0,0.0,0.0,0.0,0.0,0.0,0.0,0.0,0.0,0.0,0.0,0.0,0.0,0.0,0.0,0.0,0.0,0.0,0.0,0.0,0.0,0.0,0.0,0.0,0.0,0.0,0.0,0.0,0.0,0.0,0.0,0.0,0.0,0.0,-3.7449,-3.9409,-4.1354,-4.2671,-4.3314,-4.3344,-4.3344,-4.3284,-4.1821,-4.0459,0.0,0.0,0.0,0.0,0.0,0.0,0.0,0.0,0.0,0.0,0.0,0.0,0.0,0.0,0.0,0.0,0.0,0.0,0.0,0.0,0.0,0.0,0.0,0.0,0.0,0.0,0.0,0.0,-3.9795,-3.8596,-3.7195,0.0,0.0,0.0,0.0,0.0,0.0,0.0,0.0,0.0,0.0,-3.3589,-3.3438,-3.4321,-3.5392,-3.6422,-3.6747,-3.703,-3.7469,-3.7748,-3.7228,-3.5085,0.0,0.0,0.0,0.0,0.0,0.0,0.0,0.0,0.0,0.0,0.0,0.0,0.0,0.0,0.0,0.0,0.0,0.0,0.0,0.0,0.0,0.0,0.0,0.0,0.0,0.0,0.0,0.0,0.0,0.0,0.0,0.0,0.0,0.0,0.0,0.0,0.0,0.0,0.0,0.0,0.0,0.0,0.0,0.0,0.0,0.0,0.0,0.0,0.0,0.0,0.0,0.0,0.0,-3.7503,-3.9394,-4.1415,-4.2749,-4.3314,-4.3344,-4.3329,-4.3379,-4.289,-4.2014,-4.0644,0.0,0.0,0.0,0.0,0.0,0.0,0.0,0.0,0.0,0.0,0.0,0.0,0.0,0.0,0.0,0.0,0.0,0.0,0.0,0.0,0.0,0.0,0.0,0.0,0.0,0.0,-3.9229,-3.7614,-3.6413,0.0,0.0,0.0,0.0,0.0,0.0,0.0,0.0,0.0,0.0,-3.3983,-3.5717,-3.4006,-3.5706,-3.698,-3.6566,-3.6497,-3.6513,-3.6612,-3.8261,-3.8978,0.0,0.0,0.0,0.0,0.0,0.0,0.0,0.0,0.0,0.0,0.0,0.0,0.0,0.0,0.0,0.0,0.0,0.0,0.0,0.0,0.0,0.0,0.0,0.0,0.0,0.0,0.0,-3.5021,-3.5336,0.0,0.0,0.0,0.0,0.0,0.0,0.0,0.0,0.0,0.0,0.0,-3.8106,-3.8714,0.0,0.0,0.0,0.0,0.0,0.0,0.0,0.0,0.0,0.0,0.0,0.0,-3.8592,-4.1033,-4.2676,-4.4053,-4.5222,-4.5253,-4.5269,-4.5238,-4.422,-4.2791,-4.0945,0.0,0.0,0.0,0.0,0.0,0.0,0.0,0.0,0.0,0.0,0.0,0.0,0.0,0.0,0.0,0.0,0.0,0.0,0.0,0.0,0.0,0.0,0.0,0.0,0.0,-3.9675,0.0,0.0,0.0,0.0,0.0,0.0,0.0,0.0,0.0,0.0,0.0,-3.4848,-3.5049,-3.6106,-3.6924,-3.7003,-3.796,-3.8938,0.0,0.0,0.0,0.0,0.0,0.0,0.0,0.0,0.0,0.0,0.0,0.0,0.0,0.0,-4.0771,-3.7928,-3.706,-3.6836,-3.7045,0.0,0.0,0.0,0.0,0.0,0.0,0.0,0.0,0.0,0.0,0.0,0.0,0.0,0.0,0.0,0.0,-3.6936,0.0,0.0,0.0,0.0,0.0,0.0,0.0,0.0,-3.8811,-3.95,-4.0231,-4.087,-4.1311,0.0,-4.1787,-3.9849,0.0,0.0,0.0,0.0,0.0,0.0,0.0,0.0,-3.9438,-4.1917,-4.3389,-4.4781,-4.6109,-4.6173,-4.6061,-4.5805,-4.4747,-4.3421,-4.192,-4.0729,-3.9642,0.0,0.0,0.0,0.0,0.0,0.0,0.0,0.0,0.0,0.0,0.0,0.0,0.0,0.0,0.0,0.0,0.0,0.0,0.0,0.0,0.0,0.0,0.0,-3.9594,0.0,0.0,0.0,0.0,0.0,0.0,0.0,0.0,0.0,-3.5739,-3.6052,-3.6522,-3.7104,-3.7689,-3.8075,-3.8129,0.0,0.0,0.0,0.0,0.0,0.0,0.0,-3.8299,-3.7878,-3.8213,-3.8647,-3.9132,-4.1107,-4.2402,-4.1851,0.0,0.0,-3.9593,-3.8755,-3.8586,-3.9005,-3.9095,-3.923,-3.9664,-3.9768,-3.9634,0.0,0.0,0.0,0.0,0.0,0.0,0.0,0.0,-3.7462,-3.8088,0.0,-3.8811,0.0,0.0,0.0,0.0,0.0,0.0,0.0,0.0,-4.143,-4.2214,-4.1954,-4.2038,-4.2481,-4.3271,-4.3395,-4.2639,-4.1271,-3.9978,0.0,0.0,0.0,0.0,0.0,0.0,-4.0039,-4.2125,-4.357,-4.495,-4.6266,-4.6282,-4.5945,-4.5138,-4.4658,-4.4095,-4.3466,-4.2743,-4.166,-4.0256,-3.8058,0.0,0.0,0.0,0.0,0.0,0.0,0.0,0.0,0.0,0.0,0.0,0.0,0.0,0.0,0.0,0.0,0.0,0.0,0.0,0.0,-3.9856,0.0,0.0,0.0,0.0,0.0,0.0,0.0,0.0,0.0,0.0,-3.5473,-3.7255,-3.8346,-3.7459,0.0,0.0,0.0,0.0,-3.8561,-3.7667,-3.7428,-3.7693,-3.8394,-3.9757,-4.0741,-4.0741,0.0,0.0,-4.1683,-4.1504,-4.143,-4.0676,-4.1716,-4.2428,-4.2387,-4.1307,-4.0531,-4.0516,-4.0531,-4.0502,-4.0502,-4.0621,-4.0576,-3.4751,0.0,0.0,0.0,0.0,-3.5958,-3.7904,-4.0054,-4.0118,-4.0665,-4.1474,-4.0816,0.0,0.0,0.0,0.0,0.0,0.0,-4.0251,-4.1838,-4.2421,-4.3512,-4.4972,-4.5633,-4.6061,-4.6357,-4.6474,-4.6369,-4.5935,-4.5,-4.2468,-3.8412,0.0,0.0,0.0,0.0,-4.2422,-4.459,-4.6091,-4.7228,-4.8192,-4.7661,-4.6795,-4.558,-4.5386,-4.4983,-4.4282,-4.4028,-4.3234,-4.1711,-4.007,0.0,0.0,0.0,0.0,0.0,0.0,0.0,0.0,0.0,0.0,0.0,0.0,0.0,0.0,0.0,0.0,0.0,0.0,0.0,-3.8234,-3.8825,-3.8523,0.0,0.0,0.0,0.0,0.0,0.0,0.0,0.0,0.0,-3.888,-3.9017,-3.9313,0.0,0.0,-3.9288,-3.8808,-3.9437,-4.0165,-4.083,0.0,0.0,0.0,-4.144,-4.124,-4.124,-4.2425,-4.3344,-4.3449,-4.3853,-4.3988,-4.326,-4.3489,-4.3643,-4.3145,-4.2757,-4.2476,-4.2491,-4.2491,-4.2506,-4.2491,-4.2491,-4.2476,-3.7061,-3.5823,-3.4825,-3.5359,-3.6933,-3.7966,-4.0047,-4.2614,-4.2262,-4.2509,-4.3082,-4.2209,-4.095,-3.9544,-3.902,0.0,0.0,0.0,-4.1971,-4.4157,-4.4157,-4.5076,-4.6693,-4.7302,-4.7799,-4.8147,-4.8298,-4.8189,-4.7902,-4.7158,-4.4923,-4.1288,0.0,0.0,-4.1001,-4.2455,-4.4028,-4.5669,-4.687,-4.7834,-4.8545,-4.7564,-4.6616,-4.5737,-4.5415,-4.5043,-4.4587,-4.457,-4.4147,-4.3234,-4.1779,-4.0121,0.0,0.0,0.0,0.0,0.0,0.0,0.0,0.0,0.0,0.0,0.0,-3.8028,0.0,0.0,0.0,0.0,-3.7948,-3.8596,-3.8851,-3.9221,0.0,0.0,0.0,0.0,0.0,0.0,0.0,-3.8286,-3.9963,-4.1049,-4.0959,-4.08,-4.0837,-4.116,-4.0831,-4.0487,-4.0232,0.0,-4.1475,-4.2297,-4.2364,-4.2596,-4.321,-4.2671,-4.2147,-4.2162,-4.2791,-4.3419,-4.3838,-4.4272,-4.434,-4.4035,-4.3743,-4.3374,-4.3052,-4.2749,-4.2761,-4.3225,-4.3344,-4.3344,-4.3344,-4.3344,-4.3344,-3.8931,-3.8668,-3.5672,-3.6691,-4.0031,-3.9658,-4.1686,-4.5156,-4.3834,-4.3671,-4.4218,-4.3037,-4.2087,-4.1384,-4.0202,0.0,0.0,-4.2947,-4.4189,-4.6314,-4.633,-4.6846,-4.7728,-4.7719,-4.8144,-4.9001,-4.9018,-4.8646,-4.8003,-4.731,-4.6177,-4.4705,-4.4671,-4.3876,-4.2455,-4.3741,-4.4857,-4.5618,-4.6329,-4.7022,-4.7699,-4.6413,-4.5686,-4.5618,-4.4959,-4.457,-4.457,-4.457,-4.457,-4.4519,-4.3183,-4.1711,-4.0189,0.0,0.0,0.0,0.0,0.0,0.0,0.0,0.0,0.0,0.0,0.0,0.0,0.0,0.0,0.0,-3.8968,0.0,-4.0913,-4.0536,0.0,0.0,0.0,-3.8433,-3.9101,-3.9828,-4.049,-4.1032,0.0,0.0,-4.2084,0.0,-4.2932,-4.2697,-4.2496,-4.2058,-4.1459,-4.1893,-4.2406,-4.2349,-4.2468,-4.2641,-4.3225,-4.3195,-4.306,-4.306,-4.321,-4.312,-4.3135,-4.3165,-4.318,-4.3081,-4.2716,-4.2361,-4.2304,-4.1851,-4.1758,-4.291,-4.312,-4.3135,-4.3075,-4.3075,-4.306,-3.9496,-3.9486,-3.9207,-4.0027,-4.1286,-4.1524,-4.3019,-4.5102,-4.3915,-4.364,-4.4272,-4.3464,-4.2731,-4.2117,-4.1803,-4.2379,-4.3599,-4.4068,-4.5389,-4.7223,-4.7239,-4.7737,-4.8651,-4.866,-4.8798,-4.9001,-4.9018,-4.8917,-4.8731,-4.8562,-4.7445,-4.5534,-4.5432,-4.4384,-4.2405,-4.3217,-4.4062,-4.484,-4.5585,-4.6058,-4.621,-4.5889,-4.5432,-4.4857,-4.4671,-4.457,-4.457,-4.457,-4.457,-4.4553,-4.3673,-4.2472,-4.0984,-3.8767,0.0,0.0,0.0,0.0,0.0,0.0,0.0,0.0,0.0,-3.7809,-3.4992,0.0,-3.7208,0.0,-3.953,-4.0917,-4.1104,-4.1036,0.0,0.0,-4.013,-3.9863,-4.0582,-4.1311,-4.158,-4.105,-4.2818,-4.3987,-4.3639,-4.4188,-4.4802,-4.5182,-4.3133,-4.1549,-4.1414,-4.1938,-4.2421,-4.2409,-4.2752,-4.315,-4.321,-4.2895,-4.2581,-4.2596,-4.2192,-4.1848,-4.1848,-4.1848,-4.1829,-4.1888,-4.1781,-4.164,-4.162,-4.1534,-4.152,-4.1773,-4.1833,-4.1848,-4.1848,-4.1863,-4.1863,-3.9546,-3.9397,-4.0317,-4.1082,-4.1756,-4.2616,-4.3881,-4.5212,-4.4221,-4.3945,-4.4278,-4.3599,-4.312,-4.2806,-4.2806,-4.3579,-4.4849,-4.5243,-4.64,-4.8225,-4.8208,-4.8513,-4.9001,-4.9018,-4.9018,-4.9018,-4.9018,-4.9018,-4.8984,-4.868,-4.7733,-4.621,-4.5855,-4.4739,-4.2895,-4.3217,-4.3639,-4.4062,-4.4807,-4.5196,-4.5213,-4.5213,-4.484,-4.4096,-4.4062,-4.391,-4.3589,-4.3555,-4.3403,-4.3081,-4.2658,-4.1914,-4.0747,-3.9226,-3.7842,0.0,0.0,0.0,0.0,0.0,0.0,0.0,0.0,0.0,0.0,0.0,-3.7927,0.0,-4.0272,0.0,-4.1238,-4.1491,-4.183,-4.2151,-4.1829,-4.1877,-4.2645,-4.3387,-4.3648,-4.3174,-4.4515,-4.5284,-4.4756,-4.5048,-4.5287,-4.5266,-4.3686,-4.2621,-4.2878,-4.2861,-4.2686,-4.2494,-4.2656,-4.2776,-4.2521,-4.2162,-4.2,-4.1893,-4.1609,-4.1384,-4.1384,-4.1384,-4.1428,-4.1359,-4.1126,-4.0965,-4.094,-4.0676,-4.0502,-4.0516,-4.0502,-4.0711,-4.1265,-4.1384,-4.1384,-3.941,-3.9246,-4.0278,-4.1109,-4.1882,-4.316,-4.4223,-4.5145,-4.4497,-4.4172,-4.4142,-4.3573,-4.3344,-4.3329,-4.3394,-4.4479,-4.6173,-4.6314,-4.7306,-4.9001,-4.9018,-4.9018,-4.8984,-4.89,-4.8849,-4.8815,-4.8748,-4.8714,-4.8697,-4.8071,-4.7344,-4.6515,-4.5872,-4.479,-4.3335,-4.3267,-4.3284,-4.3284,-4.4045,-4.4418,-4.4434,-4.4333,-4.3961,-4.3318,-4.3267,-4.2929,-4.2185,-4.2252,-4.1948,-4.1255,-4.1288,-4.1068,-4.0409,-3.9537,-3.8721,0.0,-3.82,0.0,0.0,0.0,0.0,0.0,0.0,0.0,0.0,-3.9538,-3.9129,-3.9393,-4.1238,-4.2219,-4.1677,-4.2202,-4.2844,-4.347,-4.3572,-4.3842,-4.4502,-4.5179,-4.5535,-4.5534,-4.6209,-4.6319,-4.5545,-4.5507,-4.5257,-4.4723,-4.4343,-4.4273,-4.4601,-4.3808,-4.2899,-4.2416,-4.2309,-4.2076,-4.1655,-4.1354,-4.125,-4.125,-4.11,-4.1145,-4.1055,-4.107,-4.11,-4.1055,-4.0636,-4.0291,-4.0254,-3.9808,-3.9469,-3.9514,-3.9529,-3.9858,-4.0741,-4.101,-4.113,-3.9535,-4.0331,-4.1153,-4.1815,-4.2334,-4.3632,-4.4288,-4.4418,-4.3773,-4.3528,-4.3449,-4.3374,-4.3344,-4.3409,-4.4143,-4.5138,-4.6244,-4.702,-4.795,-4.9018,-4.9018,-4.9018,-4.8968,-4.8392,-4.8115,-4.809,-4.7471,-4.7208,-4.7208,-4.7056,-4.6329,-4.5026,-4.484,-4.4028,-4.2574,0.0,0.0,0.0,-4.3267,-4.3639,-4.3623,-4.3031,-4.2658,-4.2506,-4.2523,0.0,-4.1474,-4.1982,-4.1965,-4.1271,-4.1762,0.0,0.0,0.0,0.0,0.0,0.0,0.0,0.0,0.0,0.0,0.0,-4.0966,-3.9905,-3.9805,-4.0377,-4.1019,-4.161,-4.2625,-4.3403,-4.3893,-4.4062,-4.4198,-4.435,-4.4367,-4.4434,-4.457,-4.4744,-4.4812,-4.479,-4.5415,-4.5872,-4.5673,-4.6144,-4.6421,-4.6096,-4.5636,-4.5194,-4.5228,-4.385,-4.2604,-4.1759,-4.1686,-4.1607,-4.143,-4.098,-4.0709,-4.0531,-4.0113,-3.9858,-3.9916,-3.9916,-3.9813,-3.9843,-3.9694,-3.9676,-3.9601,-3.9469,-3.9481,-3.9424,-3.9424,-3.9499,-3.9738,-3.9798,-3.9798,-3.9505,0.0,-4.1453,-4.2036,0.0,-4.327,-4.3802,-4.3773,-4.3419,-4.3344,-4.3344,-4.3344,-4.3344,-4.3329,-4.4373,-4.5285,-4.6244,-4.7172,-4.808,-4.9001,-4.9018,-4.8787,-4.8473,-4.8078,-4.77,-4.7346,-4.6954,-4.6786,-4.6769,-4.6413,-4.5872,-4.5128,-4.4773,-4.4198,-4.3453,-4.342,-4.3234,-4.2861,-4.3234,-4.3606,-4.3961,-4.3623,-4.3217,-4.2861,0.0,0.0,0.0,0.0,0.0,0.0,0.0,0.0,0.0,0.0,0.0,-4.2951,-4.3282,-4.3306,-4.2907,-4.3062,-4.3526,-4.4103,-4.3811,-4.3129,-4.1971,-4.3023,-4.3784,-4.3871,-4.4247,-4.4463,-4.4575,-4.457,-4.457,-4.457,-4.457,-4.457,-4.457,-4.457,-4.457,-4.4604,-4.4942,-4.5179,-4.5162,-4.5432,-4.5669,-4.5703,-4.5303,-4.4853,-4.4397,-4.381,-4.3036,-4.2299,-4.1875,-4.1725,-4.1651,-4.1426,-4.1163,-4.1155,-4.0938,-4.0531,-4.0115,-4.0378,-4.0462,-3.9753,-4.0076,-4.0576,-4.0108,-4.004,-4.006,-3.999,-3.9666,-3.9424,-3.9424,-3.9424,-3.9424,-3.9507,-3.9413,-4.1435,-4.2095,-4.1953,-4.2946,-4.3344,-4.3344,0.0,0.0,0.0,-4.3344,-4.3344,-4.3409,-4.4495,-4.5504,-4.626,-4.7373,-4.8289,-4.8984,-4.8883,-4.8456,-4.7928,-4.7595,-4.7199,-4.664,-4.6469,-4.6397,-4.638,-4.5788,-4.5517,-4.5449,-4.4891,-4.457,-4.457,-4.457,-4.4265,-4.3656,-4.3487,-4.3724,-4.4333,-4.4248,-4.3876,-4.325,-4.3217,-4.2861,-4.2134,-4.2892,-4.2716,-4.1478,-4.259,-4.3068,-4.2655,-4.3721,-4.443,-4.4581,-4.5682,-4.5911,-4.5022,-4.5948,-4.6368,-4.5864,-4.6381,-4.613,-4.4715,-4.5687,-4.6192,-4.5681,-4.563,-4.5459,-4.4944,-4.4906,-4.4906,-4.4906,-4.4814,-4.4759,-4.4776,-4.4626,-4.457,-4.457,-4.4587,-4.457,-4.4604,-4.4621,-4.457,-4.4587,-4.4688,-4.4384,-4.3694,-4.3556,-4.3221,-4.2744,-4.2221,-4.1995,-4.1981,-4.1917,-4.1981,-4.1917,-4.1949,-4.1739,-4.128,-4.1543,-4.1362,-4.027,-4.1095,-4.1436,-4.0879,-4.0653,-4.0659,-4.05,-3.992,-3.9424,-3.9424,-3.9424,-3.9424,-3.9585,-4.0536,-4.1327,-4.2242,-4.3114,-4.32,-4.3344,-4.3344,-4.3344,-4.3344,-4.3344,-4.3344,-4.3344,-4.3409,-4.518,-4.6032,-4.6314,-4.8015,-4.8877,0.0,-4.8376,-4.7983,-4.7861,-4.6583,-4.5953,-4.5784,-4.5207,-4.4891,-4.4874,-4.479,-4.4722,-4.4739,-4.4621,-4.457,-4.457,-4.457,-4.4519,-4.4401,-4.3758,-4.347,-4.3555,-4.2946,-4.2557,-4.2472,-4.2489,-4.21,-4.1407,-4.2651,-4.2913,-4.2137,-4.3346,-4.3997,-4.3988,-4.524,-4.5983,-4.6086,-4.7226,-4.7881,-4.7727,-4.7895,-4.7949,-4.7892,-4.7962,-4.7505,-4.6223,-4.6307,-4.6383,-4.6288,-4.6288,-4.6222,-4.6143,-4.6112,-4.6046,-4.6046,-4.5681,-4.5372,-4.5372,-4.4961,-4.4665,-4.4626,-4.457,-4.4626,-4.457,-4.457,-4.457,-4.457,-4.457,-4.4514,-4.4212,-4.3178,-4.2382,-4.2157,-4.2076,-4.1999,-4.2183,-4.2062,-4.2189,-4.1981,-4.2125,-4.2141,-4.1869,-4.2062,-4.1997,-4.1609,-4.1933,-4.171,-4.0976,-4.0704,-4.0507,-3.999,-3.9553,-3.9424,-3.9424,-3.9424,-3.9424,-4.0109,-4.1284,-4.2146,-4.282,-4.3344,-4.3344,-4.3344,-4.3344,-4.3344,-4.3344,-4.3364,-4.3853,-4.4112,-4.4266,-4.6103,-4.6952,-4.702,-4.837,-4.8781,-4.8409,-4.8071,-4.7487,-4.6692,-4.6017,-4.549,-4.5072,-4.4761,-4.457,-4.457,-4.457,-4.457,-4.457,-4.457,-4.457,-4.457,-4.457,-4.457,-4.457,-4.4231,-4.4045,-4.4045,-4.3707,-4.3521,-4.3538,-4.3538,-4.3569,-4.3546,-4.4446,-4.4804,-4.4501,-4.5728,-4.6284,-4.5986,-4.6871,-4.7408,-4.7427,-4.797,-4.8324,-4.8324,-4.8324,-4.8324,-4.8324,-4.8324,-4.8075,-4.7512,-4.7409,-4.7281,-4.6999,-4.6937,-4.6819,-4.6478,-4.6365,-4.6365,-4.6365,-4.6161,-4.6014,-4.5982,-4.5783,-4.5459,-4.5142,-4.5089,-4.4944,-4.4626,-4.457,-4.457,-4.457,-4.457,-4.457,-4.457,-4.3931,-4.341,-4.3436,-4.3389,-4.3437,-4.3386,-4.341,-4.341,-4.341,-4.341,-4.3229,-4.2909,-4.3031,-4.297,-4.2316,-4.2691,-4.2794,-4.1692,-4.1403,-4.0997,-4.0309,-3.9666,-3.9481,-3.9424,-3.9424,-3.9424,-4.0845,-4.167,-4.2805,-4.3344,-4.3344,-4.3344,-4.3344,-4.3344,-4.3344,-4.3394,-4.3758,-4.4466,-4.4834,-4.4989,-4.6747,-4.7589,-4.7704,-4.8409,-4.846,-4.7936,-4.7564,-4.6777,-4.5797,-4.5527,-4.5145,-4.4621,-4.457,-4.457,-4.457,-4.457,-4.457,-4.457,-4.457,-4.457,-4.457,-4.457,-4.457,-4.4626,-4.4737,-4.4703,-4.4626,-4.4703,-4.4814,-4.4814,-4.4944,-4.5214,-4.5699,-4.6288,-4.6618,-4.6664,-4.7697,-4.8075,-4.7656,-4.8017,-4.8324,-4.8324,-4.8324,-4.8324,-4.8324,-4.8324,-4.8324,-4.8324,-4.8324,-4.8324,-4.8324,-4.8324,-4.8132,-4.7697,-4.7614,-4.7385,-4.6981,-4.6847,-4.6847,-4.6847,-4.671,-4.6618,-4.6618,-4.6524,-4.6192,-4.5648,-4.5511,-4.5284,-4.4759,-4.457,-4.457,-4.457,-4.457,-4.457,-4.457,-4.457,-4.457,-4.457,-4.457,-4.4519,-4.457,-4.4497,-4.4497,-4.457,-4.4497,-4.4179,-4.3814,-4.4196,-4.3963,-4.2867,-4.3339,-4.3322,-4.2134,-4.1703,-4.1326,-4.0535,-3.9695,-3.9209,-3.9179,-3.9179,-3.9309,-4.1504,-4.1767,-4.2805,-4.3344,-4.3344,-4.3344,-4.3344,-4.3344,-4.3344,-4.3864,-4.46,-4.4771,-4.4802,-4.5032,-4.6831,-4.7655,-4.7638,-4.7888,-4.797,-4.7699,-4.6532,-4.5797,-4.5645,-4.5043,-4.4637,-4.457,-4.457,-4.457,-4.457,-4.457,-4.457,-4.457,-4.457,-4.457,-4.457,-4.457,-4.457,-4.4626,-4.5142,-4.5142,-4.4682,-4.5142,-4.5407,-4.5425,-4.5898,-4.624,-4.6336,-4.6972,-4.7299,-4.7342,-4.7937,-4.8267,-4.821,-4.8267,-4.8324,-4.8324,-4.8324,-4.8324,-4.8324,-4.8324,-4.8324,-4.8324,-4.8324,-4.8324,-4.8324,-4.8324,-4.8267,-4.8172,-4.821,-4.8114,-4.8132,-4.8075,-4.7995,-4.7919,-4.7572,-4.7299,-4.7237,-4.6774,-4.6143,-4.5545,-4.5597,-4.5267,-4.4814,-4.4626,-4.457,-4.457,-4.457,-4.457,-4.457,-4.457,-4.4502,-4.4536,-4.4553,-4.4519,-4.4502,-4.457,-4.4434,-4.4468,-4.4519,-4.4328,-4.4131,-4.4204,-4.4215,-4.3146,-4.3183,-4.2858,-4.1788,-4.1054,-4.0837,-4.0196,-3.9419,-3.8774,-3.8712,-3.8805,-3.902,-4.2015,-4.2629,-4.3076,-4.3344,-4.3344,-4.3344,-4.3344,-4.3344,-4.3344,-4.3849,-4.4728,-4.4927,-4.5488,-4.6523,-4.7868,-4.8216,-4.7797,-4.7838,-4.7445,-4.6633,-4.5957,-4.55,-4.506,-4.4773,-4.457,-4.457,-4.457,-4.457,-4.457,-4.457,-4.457,-4.457,-4.457,-4.457,-4.457,-4.457,-4.4776,-4.5142,-4.5355,-4.5545,-4.5681,-4.5933,-4.5865,-4.5597,-4.6112,-4.6618,-4.6955,-4.7237,-4.7572,-4.7897,-4.8153,-4.8324,-4.8324,-4.8324,-4.8324,-4.8324,-4.8324,-4.8324,-4.8324,-4.8324,-4.8324,-4.8324,-4.8324,-4.8324,-4.8324,-4.8324,-4.8324,-4.8324,-4.8324,-4.8324,-4.8324,-4.8324,-4.8324,-4.8267,-4.8075,-4.7937,-4.7937,-4.7697,-4.7281,-4.6728,-4.6257,-4.5783,-4.5232,-4.4814,-4.4626,-4.457,-4.4553,-4.4536,-4.4553,-4.457,-4.4367,-4.3995,-4.3893,-4.3893,-4.3893,-4.3893,-4.3741,-4.3386,-4.3217,-4.3234,-4.3284,-4.3234,-4.3061,-4.2778,-4.2753,-4.2337,-4.1276,-4.0998,-4.0736,-4.0019,-3.9702,-3.9298,-3.9298,-3.9298,-3.9438,-4.2548,-4.3235,-4.316,-4.316,-4.3235,-4.2947,-4.2921,-4.3079,-4.3071,-4.3669,-4.462,-4.5039,-4.5968,-4.7331,-4.8113,-4.8088,-4.7631,-4.7394,-4.6752,-4.5737,-4.55,-4.5094,-4.4604,-4.457,-4.457,-4.457,-4.457,-4.457,-4.457,-4.457,-4.457,-4.4626,-4.4776,-4.4869,-4.4869,-4.4998,-4.532,-4.5732,-4.5933,-4.6143,-4.643,-4.6756,-4.6618,-4.6161,-4.6618,-4.7132,-4.7614,-4.7656,-4.7838,-4.8267,-4.8324,-4.8324,-4.8324,-4.8324,-4.8324,-4.8324,-4.8324,-4.8324,-4.8324,-4.8324,-4.8324,-4.8324,-4.8324,-4.8324,-4.8324,-4.8324,-4.8324,-4.8324,-4.8324,-4.8324,-4.8324,-4.8324,-4.8324,-4.8324,-4.8324,-4.8324,-4.8267,-4.8324,-4.8035,-4.7488,-4.691,-4.6336,-4.5597,-4.4998,-4.457,-4.457,-4.4384,-4.4265,-4.4198,-4.4028,-4.369,-4.32,-4.3115,-4.3115,-4.3115,-4.3115,-4.2811,-4.2557,-4.2405,-4.2439,-4.2303,-4.2303,-4.2117,-4.2196,-4.2064,-4.1673,-4.0883,-4.0674,-4.0522,-3.9933,-3.9699,-3.9683,-3.943,-3.9516,-3.9516,-4.325,-4.3175,-4.2654,-4.2748,-4.319,-4.2045,-4.1867,-4.2531,-4.2644,-4.3256,-4.4269,-4.4958,-4.5909,-4.6768,-4.6904,-4.687,-4.6752,-4.6194,-4.5838,-4.5568,-4.4976,-4.4621,-4.457,-4.457,-4.457,-4.457,-4.457,-4.457,-4.457,-4.457,-4.457,-4.4626,-4.5142,-4.5407,-4.5511,-4.5915,-4.6336,-4.6383,-4.6892,-4.6999,-4.6664,-4.7596,-4.7856,-4.7385,-4.7879,-4.8172,-4.821,-4.8249,-4.8231,-4.8306,-4.8214,-4.8251,-4.8288,-4.8306,-4.8324,-4.8324,-4.8324,-4.8324,-4.8324,-4.8324,-4.8324,-4.8324,-4.8324,-4.8324,-4.8324,-4.8324,-4.8324,-4.8324,-4.8324,-4.8324,-4.8324,-4.8324,-4.8324,-4.8324,-4.8324,-4.8324,-4.8324,-4.8324,-4.8035,-4.7572,-4.7299,-4.6611,-4.5596,-4.4998,-4.4546,-4.4282,-4.3876,-4.347,-4.3403,-4.2912,-4.2594,-4.2405,-4.2337,-4.2337,-4.232,-4.2354,-4.232,-4.1999,-4.1813,-4.2117,-4.2252,-4.2236,-4.1811,-4.149,-4.1356,-4.1001,-4.0375,-4.0019,-3.9876,-3.9644,-3.9834,-3.9801,-3.9567,-3.9133,-3.9199,-4.2087,-4.2025,-4.1873,-4.1922,-4.201,-4.1553,-4.1836,-4.2606,-4.2668,-4.3573,-4.4722,-4.4783,-4.5199,-4.6092,-4.5585,-4.5635,-4.6041,-4.5821,-4.5449,-4.501,-4.4688,-4.457,-4.457,-4.457,-4.457,-4.457,-4.457,-4.457,-4.457,-4.457,-4.457,-4.472,-4.5232,-4.5511,-4.5597,-4.6094,-4.6618,-4.6999,-4.7281,-4.747,-4.7614,-4.8075,-4.8172,-4.8017,-4.8172,-4.8324,-4.8324,-4.7829,-4.7553,-4.7535,-4.7076,-4.7003,-4.7535,-4.8031,-4.8324,-4.8324,-4.8324,-4.8324,-4.8324,-4.8324,-4.8324,-4.8324,-4.8324,-4.8324,-4.8324,-4.8324,-4.8324,-4.8324,-4.8324,-4.8324,-4.8324,-4.8324,-4.8324,-4.8324,-4.8324,-4.8324,-4.8324,-4.8306,-4.821,-4.7897,-4.7324,-4.6224,-4.5157,-4.4263,-4.3639,-4.3237,-4.3217,-4.3116,-4.2819,-4.2704,-4.2535,-4.1816,-4.1593,-4.1424,-4.0882,-4.1339,-4.1491,-4.1052,-4.0832,-4.0832,-4.0916,-4.1052,-4.0764,-4.0544,-4.0426,-4.0443,-3.9969,-4.002,-3.98,-3.985,-4.002,-3.9784,-3.9731,-3.9256,-3.9374,-4.1384,-4.1353,-4.1192,-4.124,-4.1323,-4.0944,-4.1382,-4.2334,-4.2468,-4.3315,-4.4495,-4.4498,-4.4773,-4.5196,-4.4807,-4.4823,-4.5314,-4.5331,-4.506,-4.4621,-4.457,-4.457,-4.457,-4.457,-4.457,-4.457,-4.457,-4.457,-4.457,-4.457,-4.472,-4.4906,-4.5511,-4.5915,-4.6161,-4.671,-4.7281,-4.7614,-4.7697,-4.7897,-4.8267,-4.8324,-4.8324,-4.8324,-4.8324,-4.8324,-4.8288,-4.7535,-4.7075,-4.6984,-4.6342,-4.6269,-4.7076,-4.7884,-4.8324,-4.8324,-4.8324,-4.8324,-4.8324,-4.8324,-4.8324,-4.8324,-4.8324,-4.8324,-4.8324,-4.8324,-4.8324,-4.8324,-4.8324,-4.8324,-4.8324,-4.8324,-4.8324,-4.8324,-4.8324,-4.8324,-4.8324,-4.8324,-4.8324,-4.8117,-4.7157,-4.595,-4.4865,-4.4092,-4.3426,-4.2671,-4.2921,-4.2909,-4.2664,-4.2552,-4.2406,-4.1355,-4.1136,-4.0712,-4.0137,-4.0189,-4.0646,-4.0324,-4.0172,-4.0003,-3.98,-3.9884,-3.9817,-3.958,-3.9563,-3.9681,-3.98,-3.9918,-3.9986,-4.0003,-3.9749,-3.9446,-3.9396,-3.9361,-3.921,-4.1324,-4.122,-4.0649,-4.0739,-4.1025,-4.0039,-4.0324,-4.1709,-4.1988,-4.2684,-4.3727,-4.4253,-4.4604,-4.4621,-4.4621,-4.4604,-4.4671,-4.4688,-4.4654,-4.457,-4.457,-4.457,-4.457,-4.457,-4.457,-4.457,-4.457,-4.4626,-4.4665,-4.472,-4.4961,-4.5511,-4.6112,-4.6682,-4.7342,-4.7797,-4.8229,-4.8229,-4.8229,-4.8267,-4.8324,-4.8324,-4.8324,-4.8324,-4.8324,-4.8324,-4.8306,-4.7535,-4.7039,-4.6929,-4.6269,-4.6269,-4.6985,-4.7829,-4.8324,-4.8324,-4.8324,-4.8324,-4.8324,-4.8324,-4.8324,-4.8324,-4.8324,-4.8324,-4.8324,-4.8324,-4.8324,-4.8324,-4.8324,-4.8324,-4.8324,-4.8324,-4.8324,-4.8324,-4.8324,-4.8324,-4.8324,-4.8288,-4.8288,-4.8046,-4.6966,-4.6,-4.5231,-4.4336,-4.3535,-4.3054,-4.2899,-4.2856,-4.2642,-4.2388,-4.171,-4.1174,-4.0908,-4.0491,-3.9717,-3.9056,-3.9462,-3.9749,-3.9698,-3.9597,-3.9242,-3.9174,-3.9022,-3.8819,-3.8853,-3.8954,-3.9039,-3.9174,-3.9445,-3.9462,-3.9225,-3.8971,-3.8886,-3.8751,-3.843,-4.0038,-4.0023,-3.983,-3.9845,-3.9993,-3.9574,-4.0363,-4.1869,-4.1988,-4.2812,-4.4044,-4.4497,-4.457,-4.457,-4.457,-4.457,-4.457,-4.457,-4.457,-4.457,-4.457,-4.457,-4.457,-4.457,-4.457,-4.457,-4.457,-4.4814,-4.5142,-4.5232,-4.5494,-4.6143,-4.6756,-4.715,-4.7428,-4.7995,-4.8324,-4.8324,-4.8324,-4.8324,-4.8324,-4.8324,-4.8324,-4.8324,-4.8324,-4.8324,-4.8288,-4.7535,-4.6874,-4.6342,-4.5516,-4.5461,-4.6342,-4.7572,-4.8288,-4.8324,-4.8324,-4.8324,-4.8324,-4.8324,-4.8324,-4.8306,-4.8306,-4.8324,-4.8324,-4.8324,-4.8324,-4.8324,-4.8324,-4.8324,-4.8324,-4.8324,-4.8306,-4.8324,-4.8324,-4.8324,-4.8251,-4.7847,-4.7517,-4.7313,-4.6248,-4.5178,-4.4408,-4.3708,-4.3112,-4.2555,-4.2608,-4.2714,-4.2299,-4.2346,-4.218,-4.1664,-4.1165,-4.0377,-3.9558,-3.8826,-3.8814,-3.8969,-3.8897,-3.8885,-3.8565,-3.8531,-3.8345,-3.8159,-3.8176,-3.821,-3.8294,-3.8514,-3.8802,-3.8717,-3.8396,-3.8278,-3.8227,-3.7973,-3.7618,-3.9424,-3.9424,-3.9424,-3.9424,-3.9424,-3.9424,-4.0378,-4.1885,-4.2005,-4.2981,-4.4328,-4.457,-4.457,-4.457,-4.457,-4.457,-4.457,-4.457,-4.457,-4.457,-4.457,-4.457,-4.457,-4.457,-4.457,-4.4665,-4.4814,-4.5142,-4.5528,-4.5749,-4.6143,-4.6756,-4.7194,-4.7512,-4.7715,-4.8075,-4.8324,-4.8324,-4.8324,-4.8324,-4.8324,-4.8324,-4.8324,-4.8324,-4.8324,-4.8324,-4.8269,-4.781,-4.7021,-4.5993,-4.5131,-4.5112,-4.5902,-4.7131,-4.7847,-4.7921,-4.8141,-4.8324,-4.8324,-4.8324,-4.8402,-4.8458,-4.8383,-4.8402,-4.8458,-4.8439,-4.8324,-4.8324,-4.8324,-4.8324,-4.8306,-4.844,-4.844,-4.8324,-4.8324,-4.8324,-4.8214,-4.7609,-4.7149,-4.6854,-4.5804,-4.4735,-4.3971,-4.3469,-4.2857,-4.2374,-4.2637,-4.2939,-4.2546,-4.2481,-4.2163,-4.1658,-4.0945,-4.0164,-3.9301,-3.8746,-3.826,-3.8084,-3.7991,-3.7861,-3.7669,-3.7973,-3.8007,-3.7584,-3.7466,-3.7466,-3.7533,-3.7922,-3.8193,-3.7889,-3.7682,-3.7533,-3.7415,-3.7043,-3.6721,-3.9424,-3.9424,-3.9424,-3.9424,-3.9424,-3.9424,-4.0393,-4.1805,-4.1988,-4.2981,-4.4328,-4.457,-4.457,-4.457,-4.457,-4.457,-4.457,-4.457,-4.457,-4.457,-4.457,-4.457,-4.457,-4.457,-4.4648,-4.4818,-4.5214,-4.5545,-4.585,-4.6257,-4.6819,-4.7385,-4.753,-4.7715,-4.8114,-4.8306,-4.8251,-4.8141,-4.8177,-4.8159,-4.8159,-4.8196,-4.8269,-4.8288,-4.8324,-4.8324,-4.8306,-4.7976,-4.7278,-4.6012,-4.5149,-4.5021,-4.5792,-4.6617,-4.7058,-4.7205,-4.7847,-4.8177,-4.8269,-4.8324,-4.8421,-4.8676,-4.8477,-4.8458,-4.8676,-4.8458,-4.8324,-4.8324,-4.8324,-4.8324,-4.8382,-4.8586,-4.8604,-4.8345,-4.8177,-4.8141,-4.8141,-4.7425,-4.6709,-4.6489,-4.559,-4.4455,-4.3899,-4.3579,-4.3251,-4.2976,-4.3051,-4.3048,-4.2955,-4.2519,-4.1993,-4.1379,-4.0727,-3.9962,-3.915,-3.8553,-3.8064,-3.7696,-3.7559,-3.7413,-3.7261,-3.7541,-3.7695,-3.7274,-3.703,-3.6922,-3.6973,-3.7416,-3.7592,-3.7427,-3.7223,-3.6898,-3.6586,-3.6282,-3.6163,-3.9424,-3.9424,-3.9424,-3.9424,-3.9424,-3.9424,-4.0378,-4.1901,-4.2005,-4.3015,-4.4311,-4.457,-4.457,-4.457,-4.457,-4.457,-4.457,-4.457,-4.457,-4.457,-4.457,-4.457,-4.457,-4.4626,-4.4838,-4.5234,-4.5511,-4.5965,-4.6864,-4.7044,-4.747,-4.8035,-4.8035,-4.8114,-4.8306,-4.8324,-4.7976,-4.7517,-4.7443,-4.7462,-4.7498,-4.748,-4.7737,-4.8288,-4.8288,-4.8288,-4.8159,-4.715,-4.6416,-4.5938,-4.5149,-4.4782,-4.5094,-4.581,-4.6452,-4.7003,-4.7297,-4.7719,-4.8177,-4.8344,-4.8383,-4.8421,-4.8495,-4.8326,-4.8421,-4.8364,-4.8306,-4.8324,-4.8324,-4.8344,-4.8344,-4.8458,-4.8439,-4.8271,-4.7831,-4.7443,-4.726,-4.6232,-4.5351,-4.5223,-4.4452,-4.3904,-4.3669,-4.3576,-4.3426,-4.3193,-4.2917,-4.2635,-4.2488,-4.1974,-4.1254,-4.1068,-4.0513,-3.9783,-3.9066,-3.8402,-3.7864,-3.7421,-3.7298,-3.7347,-3.7224,-3.7306,-3.7346,-3.7176,-3.7126,-3.7054,-3.6898,-3.705,-3.6997,-3.7128,-3.6614,-3.6276,-3.6039,-3.5791,-3.5825,-3.9424,-3.9424,-3.9424,-3.9424,-3.9454,-3.9793,-4.0747,-4.1917,-4.2451,-4.3272,-4.4361,-4.457,-4.457,-4.457,-4.457,-4.457,-4.457,-4.457,-4.457,-4.4665,-4.4852,-4.4971,-4.498,-4.5005,-4.5284,-4.5885,-4.6178,-4.6682,-4.7342,-4.7632,-4.7977,-4.821,-4.8324,-4.8324,-4.8306,-4.8306,-4.8104,-4.7645,-4.7296,-4.7241,-4.7572,-4.7278,-4.7572,-4.8049,-4.8031,-4.77,-4.7223,-4.6379,-4.5902,-4.5663,-4.4892,-4.4342,-4.4709,-4.5131,-4.5773,-4.6544,-4.7039,-4.7701,-4.8419,-4.8711,-4.8881,-4.8996,-4.8949,-4.8897,-4.9011,-4.893,-4.8797,-4.8847,-4.8813,-4.8779,-4.8779,-4.8813,-4.8695,-4.845,-4.7519,-4.6963,-4.7077,-4.5736,-4.4874,-4.4525,-4.403,-4.3479,-4.3479,-4.3461,-4.3296,-4.302,-4.2582,-4.2194,-4.1827,-4.1111,-4.0579,-4.0396,-4.0065,-3.936,-3.8973,-3.8489,-3.8059,-3.7593,-3.7327,-3.7363,-3.7201,-3.718,-3.7283,-3.7319,-3.7246,-3.7228,-3.7135,-3.7058,-3.704,-3.6899,-3.6241,-3.5968,-3.5881,-3.5622,-3.5622,-3.9424,-3.9424,-3.9424,-3.9424,-3.9499,-4.0311,-4.1146,-4.2074,-4.2841,-4.376,-4.4468,-4.457,-4.457,-4.457,-4.457,-4.457,-4.457,-4.457,-4.457,-4.472,-4.5032,-4.5297,-4.5608,-4.5614,-4.5871,-4.6354,-4.7071,-4.7378,-4.7632,-4.8093,-4.8267,-4.8324,-4.8324,-4.8324,-4.8324,-4.8306,-4.8214,-4.77,-4.7131,-4.7113,-4.737,-4.7021,-4.7058,-4.781,-4.7315,-4.6617,-4.6122,-4.5754,-4.5734,-4.5643,-4.432,-4.406,-4.4557,-4.4667,-4.5142,-4.5891,-4.6773,-4.7639,-4.8474,-4.8746,-4.9202,-4.9265,-4.9211,-4.9504,-4.9492,-4.9353,-4.9356,-4.9356,-4.9475,-4.9311,-4.9104,-4.92,-4.8787,-4.8201,-4.7181,-4.6643,-4.6505,-4.5516,-4.458,-4.4562,-4.3883,-4.3571,-4.3369,-4.3296,-4.3057,-4.2213,-4.1827,-4.1368,-4.0891,-4.0286,-3.99,-3.9735,-3.9331,-3.8854,-3.8695,-3.8554,-3.823,-3.7867,-3.7603,-3.7453,-3.7144,-3.7183,-3.7381,-3.7524,-3.7756,-3.7756,-3.7596,-3.7487,-3.7143,-3.6914,-3.6474,-3.6359,-3.6256,-3.581,-3.5639,-3.9424,-3.9424,-3.9424,-3.9424,-3.9514,-4.0311,-4.1194,-4.2105,-4.2969,-4.3844,-4.4468,-4.457,-4.457,-4.457,-4.457,-4.457,-4.457,-4.457,-4.457,-4.4643,-4.4682,-4.5407,-4.5992,-4.6143,-4.6297,-4.6639,-4.7089,-4.7657,-4.8032,-4.819,-4.8324,-4.8324,-4.8324,-4.8324,-4.8324,-4.8196,-4.7609,-4.6654,-4.625,-4.6287,-4.6324,-4.5847,-4.5993,-4.7095,-4.6636,-4.5846,-4.5202,-4.522,-4.5032,-4.4493,-4.4172,-4.4073,-4.424,-4.4472,-4.5001,-4.5704,-4.6063,-4.6647,-4.7287,-4.7655,-4.7617,-4.795,-4.8386,-4.8532,-4.8644,-4.9183,-4.9419,-4.9504,-4.9504,-4.9145,-4.8663,-4.7919,-4.77,-4.7348,-4.644,-4.5599,-4.5421,-4.4531,-4.3918,-4.3754,-4.3608,-4.3259,-4.2671,-4.258,-4.2176,-4.1479,-4.0946,-4.0432,-3.9955,-3.9478,-3.9331,-3.9221,-3.9038,-3.8634,-3.8267,-3.8083,-3.7661,-3.7514,-3.7386,-3.7294,-3.6999,-3.7156,-3.7365,-3.786,-3.8433,-3.8227,-3.7546,-3.7228,-3.6804,-3.6756,-3.6622,-3.6303,-3.5948,-3.5685,-3.5542,-3.9424,-3.9424,-3.9424,-3.9646,-4.0133,-4.0948,-4.1828,-4.2691,-4.3553,-4.4136,-4.4519,-4.457,-4.457,-4.457,-4.457,-4.457,-4.457,-4.457,-4.457,-4.4682,-4.4869,-4.5422,-4.5974,-4.6624,-4.6985,-4.7265,-4.7638,-4.805,-4.8247,-4.8324,-4.8324,-4.8324,-4.8324,-4.8324,-4.8196,-4.7957,-4.7352,-4.6544,-4.57,-4.5498,-4.5718,-4.5149,-4.5052,-4.6112,-4.6073,-4.5697,-4.4786,-4.5249,-4.5001,-4.4543,-4.4428,-4.4428,-4.4318,-4.4493,-4.4995,-4.5655,-4.5982,-4.6411,-4.7018,-4.7395,-4.759,-4.7448,-4.7929,-4.8062,-4.8196,-4.8634,-4.8786,-4.8843,-4.8791,-4.8577,-4.8196,-4.7891,-4.741,-4.6844,-4.607,-4.5377,-4.4867,-4.4064,-4.3479,-4.3387,-4.3167,-4.28,-4.2415,-4.1956,-4.1332,-4.0671,-4.0487,-3.9992,-3.9423,-3.9019,-3.8946,-3.8854,-3.8799,-3.8505,-3.7991,-3.7496,-3.689,-3.6743,-3.6688,-3.6652,-3.654,-3.6918,-3.7332,-3.7631,-3.7747,-3.7509,-3.6942,-3.6698,-3.6513,-3.6439,-3.6247,-3.59,-3.5548,-3.5218,-3.5191,-3.9424,-3.9424,-3.9424,-3.9869,-4.0785,-4.1576,-4.2444,-4.3344,-4.4243,-4.4519,-4.457,-4.457,-4.457,-4.457,-4.457,-4.457,-4.457,-4.457,-4.457,-4.4665,-4.5196,-4.5522,-4.6014,-4.6799,-4.7569,-4.8249,-4.8247,-4.8286,-4.8286,-4.8324,-4.8324,-4.8324,-4.8324,-4.8324,-4.8141,-4.7553,-4.7003,-4.6562,-4.5461,-4.5057,-4.5388,-4.4856,-4.4697,-4.5101,-4.5587,-4.5503,-4.4917,-4.5164,-4.533,-4.4739,-4.4988,-4.4988,-4.483,-4.4795,-4.4978,-4.5735,-4.5967,-4.6323,-4.6784,-4.7278,-4.7492,-4.7721,-4.7856,-4.7895,-4.7895,-4.8068,-4.8221,-4.8126,-4.8068,-4.7914,-4.7913,-4.7473,-4.7184,-4.6685,-4.6012,-4.5356,-4.4662,-4.3869,-4.3306,-4.3167,-4.2763,-4.2359,-4.1754,-4.1203,-4.0524,-3.9955,-3.9808,-3.957,-3.9019,-3.8634,-3.8597,-3.8346,-3.8236,-3.7514,-3.6909,-3.6615,-3.6028,-3.5734,-3.5771,-3.5771,-3.5752,-3.5771,-3.6009,-3.6512,-3.6575,-3.6494,-3.6384,-3.615,-3.6047,-3.6069,-3.5812,-3.5339,-3.5013,-3.4693,-3.4801,-3.9424,-3.9424,-3.9424,-3.9941,-4.0792,-4.1617,-4.2469,-4.3344,-4.4243,-4.457,-4.457,-4.457,-4.457,-4.457,-4.457,-4.457,-4.457,-4.457,-4.4626,-4.4759,-4.5266,-4.5681,-4.6395,-4.687,-4.7634,-4.8135,-4.8214,-4.8122,-4.8306,-4.8324,-4.8324,-4.8324,-4.8233,-4.8233,-4.8012,-4.7498,-4.6581,-4.6049,-4.5094,-4.4764,-4.4654,-4.4301,-4.4091,-4.4423,-4.4946,-4.4949,-4.4871,-4.4986,-4.5144,-4.5052,-4.5361,-4.5438,-4.5381,-4.5362,-4.5477,-4.5611,-4.5726,-4.5937,-4.611,-4.6088,-4.6047,-4.6163,-4.6682,-4.7067,-4.724,-4.7605,-4.774,-4.7721,-4.7394,-4.7086,-4.7086,-4.6644,-4.6124,-4.5707,-4.5319,-4.4801,-4.4388,-4.3532,-4.2588,-4.2404,-4.2169,-4.1842,-4.1172,-4.0509,-3.9908,-3.9467,-3.927,-3.9197,-3.8872,-3.8511,-3.8328,-3.8034,-3.7668,-3.6641,-3.5624,-3.5422,-3.5073,-3.4651,-3.4559,-3.4578,-3.4486,-3.4247,-3.4468,-3.5284,-3.5834,-3.6009,-3.5844,-3.5532,-3.5522,-3.554,-3.5157,-3.4722,-3.4616,-3.4472,-3.4535,-3.9424,-3.9424,-3.9424,-3.9869,-4.0746,-4.1649,-4.2505,-4.335,-4.4226,-4.457,-4.457,-4.457,-4.457,-4.457,-4.457,-4.457,-4.457,-4.457,-4.4759,-4.5106,-4.5424,-4.6064,-4.6707,-4.6892,-4.7152,-4.7404,-4.7334,-4.7609,-4.8233,-4.8324,-4.8233,-4.8196,-4.7939,-4.7682,-4.737,-4.6397,-4.581,-4.5149,-4.4562,-4.4138,-4.4136,-4.3793,-4.4053,-4.4482,-4.4738,-4.4924,-4.514,-4.5243,-4.5361,-4.54,-4.5532,-4.5586,-4.5586,-4.5586,-4.5586,-4.5586,-4.5586,-4.5586,-4.5586,-4.5586,-4.5643,-4.5663,-4.6047,-4.6201,-4.6297,-4.6547,-4.6894,-4.6759,-4.6605,-4.622,-4.6201,-4.5817,-4.5643,-4.5495,-4.4992,-4.4505,-4.4027,-4.3135,-4.231,-4.1533,-4.107,-4.0769,-4.0473,-3.9882,-3.9312,-3.8976,-3.8799,-3.8683,-3.8634,-3.8358,-3.8016,-3.7356,-3.6861,-3.5954,-3.4981,-3.4706,-3.4523,-3.4082,-3.3842,-3.3842,-3.3887,-3.3931,-3.4062,-3.4523,-3.4945,-3.5331,-3.4945,-3.4541,-3.4761,-3.4945,-3.4556,-3.4284,-3.4322,-3.4352,-3.4368,-3.9424,-3.9424,-3.9424,-4.0039,-4.0999,-4.1648,-4.2613,-4.3585,-4.4294,-4.457,-4.457,-4.457,-4.457,-4.457,-4.457,-4.457,-4.4643,-4.4665,-4.5089,-4.5459,-4.59,-4.6522,-4.6684,-4.6769,-4.6603,-4.6691,-4.6434,-4.6562,-4.7388,-4.7627,-4.7755,-4.7517,-4.7058,-4.6874,-4.6581,-4.5608,-4.4892,-4.4505,-4.4039,-4.3649,-4.3791,-4.4076,-4.4463,-4.5052,-4.5161,-4.5322,-4.5495,-4.5531,-4.5549,-4.5568,-4.5586,-4.5586,-4.5586,-4.5586,-4.5586,-4.5586,-4.5586,-4.5586,-4.5586,-4.5586,-4.5586,-4.5605,-4.5586,-4.5624,-4.5643,-4.5797,-4.574,-4.5586,-4.5624,-4.5663,-4.572,-4.5605,-4.5586,-4.5399,-4.4865,-4.4121,-4.3542,-4.2682,-4.1576,-4.0807,-4.0133,-3.9808,-3.9711,-3.9573,-3.9108,-3.8939,-3.8732,-3.837,-3.8267,-3.7918,-3.7477,-3.6622,-3.5907,-3.5147,-3.4532,-3.4229,-3.4119,-3.3954,-3.3902,-3.3986,-3.3986,-3.4012,-3.4164,-3.4319,-3.4249,-3.4497,-3.3987,-3.3807,-3.4156,-3.4266,-3.3954,-3.3881,-3.4016,-3.4032,-3.3948,-3.9424,-3.9424,-3.9424,-4.0344,-4.1685,-4.1907,-4.2911,-4.4282,-4.4502,-4.457,-4.457,-4.457,-4.457,-4.457,-4.457,-4.457,-4.472,-4.4998,-4.5268,-4.556,-4.6324,-4.655,-4.6514,-4.6876,-4.6304,-4.6063,-4.5845,-4.5957,-4.625,-4.6269,-4.6305,-4.6287,-4.625,-4.6049,-4.592,-4.5021,-4.4745,-4.4595,-4.4161,-4.4106,-4.4428,-4.4732,-4.4966,-4.514,-4.5362,-4.5532,-4.5586,-4.5586,-4.5586,-4.5586,-4.5586,-4.5586,-4.5586,-4.5586,-4.5586,-4.5586,-4.5586,-4.5586,-4.5586,-4.5586,-4.5586,-4.5586,-4.5586,-4.5586,-4.5586,-4.5586,-4.5586,-4.5586,-4.5586,-4.5586,-4.5586,-4.5586,-4.5586,-4.5151,-4.4484,-4.381,-4.3207,-4.2281,-4.114,-4.0621,-4.0071,-3.9528,-3.9174,-3.9101,-3.8999,-3.8844,-3.8658,-3.8272,-3.786,-3.7495,-3.6805,-3.5908,-3.5451,-3.476,-3.4525,-3.4178,-3.4053,-3.3947,-3.4037,-3.4171,-3.4195,-3.426,-3.4292,-3.4363,-3.4218,-3.413,-3.406,-3.3976,-3.3879,-3.3807,-3.3807,-3.3807,-3.3817,-3.3744,-3.3725,-3.9424,-3.9424,-3.9424,-4.0152,-4.1264,-4.1794,-4.2669,-4.3803,-4.4361,-4.457,-4.457,-4.457,-4.457,-4.457,-4.457,-4.457,-4.4665,-4.4961,-4.5148,-4.5338,-4.5978,-4.6157,-4.5977,-4.584,-4.5459,-4.5254,-4.4796,-4.4415,-4.4745,-4.5461,-4.5883,-4.5773,-4.5443,-4.5223,-4.5168,-4.4433,-4.4239,-4.4212,-4.4304,-4.4527,-4.4806,-4.503,-4.5201,-4.5362,-4.5513,-4.5586,-4.5586,-4.5586,-4.5586,-4.5586,-4.5586,-4.5586,-4.5586,-4.5586,-4.5586,-4.5586,-4.5586,-4.5586,-4.5586,-4.5586,-4.5586,-4.5586,-4.5586,-4.5586,-4.5586,-4.5586,-4.5586,-4.5586,-4.5586,-4.5586,-4.5586,-4.5586,-4.5586,-4.517,-4.4147,-4.3533,-4.2832,-4.1787,-4.0923,-4.0479,-4.0106,-3.9665,-3.9289,-3.9202,-3.9245,-3.9152,-3.8749,-3.8231,-3.7646,-3.7024,-3.6168,-3.5119,-3.4836,-3.4545,-3.4558,-3.4435,-3.4454,-3.4371,-3.4394,-3.4486,-3.4508,-3.4551,-3.4615,-3.4593,-3.4524,-3.4404,-3.4234,-3.4005,-3.381,-3.3813,-3.3807,-3.3823,-3.3813,-3.3807,-3.3771,-3.9424,-3.9424,-3.9424,-3.9892,-4.0775,-4.1636,-4.2505,-4.339,-4.4243,-4.457,-4.457,-4.457,-4.457,-4.457,-4.457,-4.457,-4.4626,-4.4889,-4.5077,-4.5258,-4.5472,-4.5683,-4.5469,-4.4985,-4.4689,-4.441,-4.3973,-4.3718,-4.3975,-4.4507,-4.5112,-4.5278,-4.4635,-4.4433,-4.425,-4.397,-4.3789,-4.424,-4.4457,-4.48,-4.5159,-4.5222,-4.54,-4.5513,-4.5586,-4.5586,-4.5586,-4.5586,-4.5586,-4.5586,-4.5586,-4.5586,-4.5586,-4.5586,-4.5586,-4.5586,-4.5586,-4.5586,-4.5586,-4.5586,-4.5586,-4.5586,-4.5586,-4.5586,-4.5586,-4.5586,-4.5586,-4.5586,-4.5586,-4.5586,-4.5547,-4.5413,-4.5163,-4.465,-4.3828,-4.3254,-4.2583,-4.1474,-4.0722,-4.0402,-4.0157,-4.0215,-3.9869,-3.9597,-3.9482,-3.9425,-3.8961,-3.8225,-3.7363,-3.6506,-3.5772,-3.4802,-3.4713,-3.4603,-3.4617,-3.4634,-3.4694,-3.4697,-3.4717,-3.4718,-3.4661,-3.4813,-3.4943,-3.4889,-3.4679,-3.4396,-3.4055,-3.3889,-3.3771,-3.392,-3.4006,-3.3832,-3.3799,-3.3758,-3.3733,-3.9424,-3.9424,-3.9409,-3.9889,-4.0816,-4.1627,-4.2521,-4.348,-4.426,-4.457,-4.457,-4.457,-4.457,-4.4536,-4.4524,-4.4507,-4.4631,-4.5783,-4.5505,-4.557,-4.6173,-4.5656,-4.5114,-4.4563,-4.4287,-4.3789,-4.3497,-4.3497,-4.3516,-4.3736,-4.3864,-4.3644,-4.3846,-4.3681,-4.3695,-4.3775,-4.3962,-4.4392,-4.4657,-4.5011,-4.5362,-4.5513,-4.5568,-4.5568,-4.5586,-4.5586,-4.5586,-4.5586,-4.5586,-4.5586,-4.5586,-4.5586,-4.5586,-4.5586,-4.5586,-4.5586,-4.5586,-4.5586,-4.5586,-4.5586,-4.5586,-4.5586,-4.5586,-4.5586,-4.5586,-4.5586,-4.5586,-4.5586,-4.5586,-4.5509,-4.5316,-4.497,-4.4662,-4.3995,-4.3253,-4.2469,-4.1798,-4.1054,-4.0387,-4.0234,-4.0193,-4.0243,-3.9972,-3.96,-3.9338,-3.9261,-3.8347,-3.7602,-3.6615,-3.5799,-3.5362,-3.4832,-3.4794,-3.4756,-3.4716,-3.4774,-3.4831,-3.4715,-3.4636,-3.4691,-3.4708,-3.4887,-3.4611,-3.4633,-3.4304,-3.4075,-3.3781,-3.3372,-3.3332,-3.3984,-3.4086,-3.3492,-3.3278,-3.3202,-3.329,-3.8781,-3.8826,-3.9245,-4.0228,-4.1496,-4.1852,-4.2784,-4.4018,-4.4468,-4.457,-4.457,-4.457,-4.457,-4.4451,-4.4067,-4.4062,-4.4317,-4.4281,-4.4442,-4.4489,-4.4668,-4.4563,-4.4035,-4.3975,-4.3773,-4.3534,-4.3479,-4.3479,-4.3479,-4.3479,-4.3479,-4.3497,-4.3513,-4.3497,-4.3582,-4.3899,-4.4308,-4.4606,-4.4988,-4.54,-4.5495,-4.5586,-4.5586,-4.5586,-4.5586,-4.5586,-4.5586,-4.5586,-4.5586,-4.5586,-4.5586,-4.5586,-4.5586,-4.5586,-4.5586,-4.5586,-4.5586,-4.5586,-4.5586,-4.5586,-4.5586,-4.5586,-4.5586,-4.5586,-4.5586,-4.5586,-4.5586,-4.5586,-4.5528,-4.5374,-4.4778,-4.4489,-4.4143,-4.3415,-4.2614,-4.1757,-4.1203,-4.0611,-4.0362,-4.0321,-4.0257,-4.0226,-3.9858,-3.9473,-3.9243,-3.8967,-3.7959,-3.6988,-3.6073,-3.5482,-3.52,-3.5066,-3.5043,-3.5073,-3.5069,-3.5026,-3.4945,-3.4729,-3.4512,-3.4336,-3.4178,-3.3743,-3.3574,-3.3728,-3.3843,-3.3498,-3.3105,-3.2666,-3.2759,-3.3278,-3.3127,-3.2604,-3.2538,-3.2637,-3.2686,-3.8691,-3.8751,-3.9215,-4.0118,-4.1203,-4.1774,-4.2687,-4.3786,-4.4361,-4.457,-4.457,-4.457,-4.4418,-4.4113,-4.3724,-4.3576,-4.382,-4.3812,-4.3758,-4.3924,-4.4134,-4.3834,-4.3613,-4.3516,-4.3571,-4.3479,-4.3479,-4.3479,-4.3479,-4.3479,-4.3563,-4.3646,-4.3646,-4.366,-4.3804,-4.4223,-4.4631,-4.4853,-4.514,-4.5531,-4.5568,-4.5586,-4.5586,-4.5586,-4.5586,-4.5586,-4.5586,-4.5586,-4.5586,-4.5586,-4.5586,-4.5586,-4.5586,-4.5586,-4.5586,-4.5586,-4.5586,-4.5586,-4.5586,-4.5586,-4.5586,-4.5586,-4.5586,-4.5586,-4.5586,-4.5566,-4.5586,-4.5547,-4.5374,-4.4951,-4.422,-4.3816,-4.3278,-4.2511,-4.1819,-4.1075,-4.1017,-4.0652,-4.0537,-4.0457,-4.0239,-3.9835,-3.9296,-3.8777,-3.8151,-3.784,-3.7076,-3.6335,-3.591,-3.5484,-3.5441,-3.5364,-3.5379,-3.5427,-3.546,-3.5014,-3.4572,-3.4357,-3.4079,-3.3588,-3.3307,-3.2872,-3.2833,-3.3211,-3.3192,-3.2852,-3.25,-3.2141,-3.2201,-3.2428,-3.2256,-3.2147,-3.2086,-3.2177,-3.1906,-3.9334,-3.9409,-3.9394,-3.9469,-3.9892,-4.1323,-4.2158,-4.2802,-4.4002,-4.457,-4.4553,-4.4575,-4.4113,-4.3589,-4.3322,-4.3254,-4.3423,-4.3698,-4.3857,-4.3851,-4.4071,-4.4014,-4.3736,-4.3479,-4.3479,-4.3479,-4.3479,-4.3479,-4.3479,-4.3563,-4.3693,-4.3943,-4.4016,-4.4028,-4.4028,-4.4373,-4.4757,-4.5033,-4.5118,-4.5362,-4.5531,-4.5586,-4.5586,-4.5586,-4.5586,-4.5586,-4.5586,-4.5586,-4.5586,-4.5586,-4.5586,-4.5586,-4.5586,-4.5586,-4.5586,-4.5586,-4.5586,-4.5566,-4.5528,-4.5547,-4.5451,-4.5393,-4.5297,-4.5278,-4.5432,-4.5432,-4.5374,-4.5163,-4.4778,-4.4393,-4.372,-4.3008,-4.2374,-4.17,-4.1027,-4.0758,-4.0719,-4.0681,-4.0546,-4.0181,-3.97,-3.92,-3.8623,-3.7988,-3.7142,-3.6531,-3.5974,-3.5641,-3.5526,-3.5507,-3.5507,-3.5507,-3.5507,-3.5507,-3.5353,-3.468,-3.4224,-3.3987,-3.3526,-3.2891,-3.2545,-3.2295,-3.2391,-3.2686,-3.2429,-3.1987,-3.1826,-3.166,-3.1692,-3.1728,-3.1981,-3.1967,-3.186,-3.157,-3.1184,-3.8736,-3.8781,-3.9215,-3.9763,-4.0368,-4.1487,-4.2607,-4.3702,-4.4311,-4.4553,-4.4473,-4.4071,-4.3715,-4.3291,-4.2826,-4.2743,-4.2991,-4.297,-4.318,-4.3652,-4.3886,-4.3738,-4.3534,-4.3479,-4.3479,-4.3479,-4.3479,-4.3479,-4.3479,-4.366,-4.3849,-4.4028,-4.4463,-4.4587,-4.4535,-4.4732,-4.5011,-4.5118,-4.5283,-4.5495,-4.5586,-4.5586,-4.5586,-4.5586,-4.5586,-4.5586,-4.5586,-4.5586,-4.5586,-4.5586,-4.5586,-4.5586,-4.5586,-4.5586,-4.5586,-4.5586,-4.5566,-4.5278,-4.4951,-4.472,-4.472,-4.472,-4.472,-4.4509,-4.4085,-4.397,-4.4201,-4.4451,-4.3951,-4.3605,-4.3239,-4.2508,-4.1816,-4.1104,-4.0604,-4.0585,-4.0546,-4.0527,-4.0389,-3.9815,-3.9296,-3.8354,-3.7642,-3.718,-3.6411,-3.6103,-3.5699,-3.5603,-3.5507,-3.5507,-3.5507,-3.5507,-3.5507,-3.5507,-3.5257,-3.4487,-3.3814,-3.3468,-3.2737,-3.1872,-3.1641,-3.1602,-3.1448,-3.1475,-3.1333,-3.1141,-3.1102,-3.1064,-3.0987,-3.104,-3.1292,-3.1268,-3.0949,-3.0621,-3.0246,-3.8736,-3.8796,-3.923,-4.0046,-4.1096,-4.1767,-4.2993,-4.431,-4.4086,-4.3934,-4.3961,-4.3342,-4.2816,-4.2566,-4.2343,-4.2166,-4.2536,-4.2687,-4.2995,-4.3444,-4.3497,-4.3516,-4.3497,-4.3479,-4.3479,-4.3479,-4.3513,-4.3548,-4.3693,-4.3912,-4.4175,-4.4516,-4.4947,-4.5077,-4.5096,-4.5182,-4.5263,-4.5362,-4.5495,-4.5568,-4.5586,-4.5586,-4.5586,-4.5586,-4.5586,-4.5586,-4.5586,-4.5586,-4.5586,-4.5586,-4.5586,-4.5586,-4.5586,-4.5586,-4.5586,-4.5586,-4.522,-4.4893,-4.4489,-4.397,-4.3816,-4.3374,-4.3662,-4.3624,-4.3201,-4.3297,-4.3489,-4.3528,-4.3066,-4.2835,-4.2566,-4.1854,-4.1239,-4.0527,-4.0508,-4.0489,-4.0373,-4.0354,-3.9912,-3.9373,-3.8411,-3.7469,-3.6719,-3.6238,-3.5699,-3.5603,-3.5507,-3.5507,-3.5507,-3.5507,-3.5507,-3.5507,-3.5507,-3.5507,-3.5064,-3.4237,-3.3583,-3.3006,-3.2102,-3.1121,-3.091,-3.0891,-3.0571,-3.0398,-3.0641,-3.0756,-3.0564,-3.0475,-3.059,-3.0578,-3.0567,-3.0398,-3.0047,-2.9924,-2.9813,-3.9424,-3.9424,-3.9394,-4.0311,-4.1786,-4.1873,-4.2883,-4.435,-4.2981,-4.2802,-4.3318,-4.261,-4.207,-4.158,-4.1857,-4.2083,-4.2186,-4.2573,-4.3014,-4.3356,-4.3479,-4.3479,-4.3479,-4.3479,-4.3479,-4.3513,-4.3563,-4.3758,-4.3955,-4.4204,-4.4516,-4.4969,-4.5342,-4.5438,-4.5457,-4.5457,-4.5513,-4.5531,-4.555,-4.5586,-4.5586,-4.5586,-4.5586,-4.5586,-4.5586,-4.5586,-4.5586,-4.5586,-4.5586,-4.5586,-4.5586,-4.5586,-4.5586,-4.5586,-4.5586,-4.5316,-4.4701,-4.4278,-4.3855,-4.3258,-4.2681,-4.222,-4.2547,-4.2835,-4.2797,-4.2547,-4.2681,-4.2624,-4.2316,-4.2085,-4.1797,-4.1239,-4.0681,-4.0489,-4.0489,-4.0392,-4.0219,-3.9912,-3.9373,-3.8584,-3.745,-3.6565,-3.6026,-3.5526,-3.5507,-3.5507,-3.5507,-3.5507,-3.5507,-3.5507,-3.5507,-3.5507,-3.5507,-3.5507,-3.4911,-3.4103,-3.3449,-3.291,-3.1564,-3.0621,-3.0417,-3.0398,-3.0417,-3.0417,-3.0417,-3.0417,-3.0417,-3.0417,-3.0436,-3.0386,-3.0343,-3.0286,-3.0169,-3.0122,-3.0003,-3.9424,-3.9364,-3.8901,-3.9666,-4.1122,-4.1369,-4.2295,-4.3492,-4.2715,-4.2483,-4.2557,-4.1834,-4.1596,-4.1857,-4.1898,-4.2119,-4.2512,-4.2976,-4.3268,-4.3463,-4.3479,-4.3479,-4.3479,-4.3479,-4.3479,-4.3597,-4.3693,-4.3893,-4.4117,-4.4409,-4.4947,-4.5419,-4.555,-4.5586,-4.5586,-4.5586,-4.5586,-4.5586,-4.5586,-4.5586,-4.5586,-4.5586,-4.5586,-4.5586,-4.5586,-4.5586,-4.5586,-4.5586,-4.5586,-4.5586,-4.5586,-4.5586,-4.5586,-4.5566,-4.5451,-4.4643,-4.3912,-4.3201,-4.2643,-4.2316,-4.1854,-4.1239,-4.1354,-4.1254,-4.1277,-4.1466,-4.1697,-4.172,-4.1585,-4.1335,-4.1335,-4.0969,-4.0566,-4.0489,-4.0392,-4.0123,-3.9854,-3.9277,-3.87,-3.7584,-3.6435,-3.6122,-3.5565,-3.5507,-3.5507,-3.5507,-3.5507,-3.5507,-3.5507,-3.5507,-3.5507,-3.5507,-3.5468,-3.5449,-3.4872,-3.4083,-3.343,-3.2699,-3.1391,-3.0436,-3.0417,-3.0436,-3.0467,-3.0471,-3.0488,-3.0475,-3.0487,-3.0467,-3.0467,-3.0417,-3.0367,-3.0355,-3.0311,-3.0254,-3.0209,-3.902,-3.8945,-3.8571,-3.9252,-4.0415,-4.1009,-4.1764,-4.2296,-4.176,-4.157,-4.1781,-4.1346,-4.1276,-4.162,-4.1972,-4.2378,-4.2729,-4.3178,-4.3479,-4.3479,-4.3479,-4.3479,-4.3479,-4.3479,-4.3479,-4.3612,-4.3836,-4.4076,-4.4373,-4.4881,-4.5438,-4.555,-4.5586,-4.5586,-4.5586,-4.5586,-4.5586,-4.5586,-4.5586,-4.5586,-4.5586,-4.5586,-4.5586,-4.5586,-4.5586,-4.5586,-4.5586,-4.5586,-4.5586,-4.5586,-4.5586,-4.5374,-4.5124,-4.4778,-4.4489,-4.3701,-4.3047,-4.2508,-4.2066,-4.1585,-4.1123,-4.0793,-4.0693,-4.0761,-4.0756,-4.0891,-4.1089,-4.1162,-4.0854,-4.0642,-4.0796,-4.0854,-4.0681,-4.0489,-4.0162,-3.9815,-3.9238,-3.8623,-3.7642,-3.6526,-3.5949,-3.5699,-3.5526,-3.5507,-3.5507,-3.5526,-3.5526,-3.5507,-3.5507,-3.5507,-3.5507,-3.5507,-3.543,-3.5353,-3.468,-3.393,-3.3134,-3.2346,-3.1352,-3.0609,-3.0525,-3.0491,-3.0524,-3.0549,-3.0558,-3.0549,-3.0539,-3.0532,-3.0525,-3.0479,-3.0463,-3.046,-3.0448,-3.0374,-3.0355,-3.8302,-3.8332,-3.8417,-3.8964,-3.9911,-4.0712,-4.112,-4.1035,-4.0493,-4.0476,-4.0985,-4.0993,-4.0963,-4.1401,-4.2121,-4.2655,-4.2957,-4.3339,-4.3479,-4.3479,-4.3479,-4.3479,-4.3513,-4.3529,-4.3612,-4.3693,-4.3974,-4.4482,-4.4806,-4.5222,-4.5513,-4.5586,-4.5586,-4.5586,-4.5586,-4.5586,-4.5586,-4.5586,-4.5586,-4.5586,-4.5586,-4.5586,-4.5586,-4.5586,-4.5586,-4.5586,-4.5586,-4.5586,-4.5586,-4.5586,-4.549,-4.5201,-4.4489,-4.3566,-4.3181,-4.2797,-4.22,-4.1873,-4.1555,-4.1195,-4.0954,-4.0786,-4.0804,-4.0808,-4.0783,-4.0688,-4.0847,-4.0866,-4.0658,-4.0546,-4.0642,-4.0681,-4.0566,-4.0296,-3.9969,-3.9469,-3.8834,-3.795,-3.6738,-3.5878,-3.5757,-3.5545,-3.554,-3.5534,-3.5534,-3.5547,-3.5545,-3.5526,-3.552,-3.552,-3.5468,-3.543,-3.518,-3.4949,-3.4416,-3.366,-3.2723,-3.1877,-3.1091,-3.073,-3.0579,-3.0569,-3.0607,-3.0645,-3.07,-3.0642,-3.0611,-3.0605,-3.0586,-3.0568,-3.0568,-3.0584,-3.0563,-3.0477,-3.0452,-3.7644,-3.7689,-3.837,-3.8927,-3.9247,-4.0027,-4.0391,-4.0375,-4.0206,-4.0239,-4.0423,-4.0791,-4.1205,-4.1715,-4.2364,-4.2902,-4.3304,-4.3375,-4.3479,-4.3479,-4.3479,-4.3479,-4.3563,-4.3707,-4.3818,-4.4087,-4.4482,-4.4924,-4.5243,-4.5495,-4.5586,-4.5586,-4.5586,-4.5586,-4.5586,-4.5586,-4.5566,-4.5451,-4.5566,-4.5528,-4.5451,-4.5547,-4.5586,-4.5586,-4.5586,-4.5586,-4.5586,-4.5586,-4.5586,-4.5586,-4.5586,-4.5124,-4.4335,-4.2989,-4.2354,-4.2104,-4.1536,-4.1266,-4.1127,-4.0978,-4.0873,-4.0862,-4.0892,-4.0924,-4.0891,-4.0771,-4.0694,-4.0631,-4.0562,-4.0469,-4.0392,-4.0392,-4.0296,-3.9988,-3.9642,-3.8988,-3.8334,-3.7123,-3.5839,-3.568,-3.5584,-3.5578,-3.5572,-3.5573,-3.5553,-3.556,-3.5572,-3.5565,-3.5566,-3.5541,-3.5399,-3.5251,-3.4757,-3.4416,-3.3891,-3.332,-3.2365,-3.1758,-3.1083,-3.0808,-3.0625,-3.0661,-3.0707,-3.079,-3.0832,-3.0762,-3.0703,-3.0684,-3.0664,-3.0664,-3.0649,-3.0668,-3.0645,-3.0568,-3.053,-3.7,-3.7181,-3.8315,-3.8858,-3.9039,-3.974,-4.0087,-4.0087,-4.0087,-4.0254,-4.0528,-4.1041,-4.1647,-4.2226,-4.279,-4.3124,-4.3479,-4.3479,-4.3479,-4.3479,-4.3479,-4.3479,-4.3646,-4.3849,-4.3924,-4.4204,-4.4781,-4.5222,-4.5531,-4.5586,-4.5586,-4.5586,-4.5586,-4.5586,-4.5586,-4.5566,-4.5374,-4.5047,-4.5393,-4.5393,-4.5259,-4.5355,-4.5547,-4.5586,-4.5586,-4.5586,-4.5586,-4.5586,-4.5586,-4.524,-4.4893,-4.4028,-4.3124,-4.2066,-4.1557,-4.1377,-4.1086,-4.0829,-4.0874,-4.0892,-4.0921,-4.0976,-4.0996,-4.1055,-4.0918,-4.0788,-4.0509,-4.0409,-4.0015,-3.9908,-3.9623,-3.9546,-3.9219,-3.8892,-3.8277,-3.7584,-3.7046,-3.6276,-3.5699,-3.568,-3.5641,-3.568,-3.5674,-3.5669,-3.5669,-3.5727,-3.5699,-3.5642,-3.5647,-3.5365,-3.527,-3.4989,-3.4385,-3.3635,-3.2929,-3.2477,-3.1943,-3.142,-3.1031,-3.0918,-3.0781,-3.0781,-3.0828,-3.0879,-3.0898,-3.0879,-3.082,-3.0781,-3.0762,-3.0781,-3.0758,-3.0751,-3.0711,-3.0675,-3.0649,-3.649,-3.6869,-3.8215,-3.8905,-3.9121,-3.9776,-4.0087,-4.0137,-4.0163,-4.0548,-4.107,-4.1662,-4.223,-4.2714,-4.325,-4.341,-4.3479,-4.3479,-4.3479,-4.3479,-4.3479,-4.3563,-4.3726,-4.3943,-4.4204,-4.4516,-4.4969,-4.5303,-4.5586,-4.5586,-4.5586,-4.5586,-4.5586,-4.5586,-4.5566,-4.5393,-4.5105,-4.497,-4.5047,-4.5009,-4.5047,-4.5163,-4.547,-4.5586,-4.5586,-4.5586,-4.5586,-4.5586,-4.5586,-4.4816,-4.4006,-4.3108,-4.2341,-4.1547,-4.1214,-4.0974,-4.1015,-4.0946,-4.0992,-4.1031,-4.1104,-4.1152,-4.1133,-4.0976,-4.0781,-4.0449,-4.0156,-3.9869,-3.9483,-3.9273,-3.8988,-3.8695,-3.833,-3.7988,-3.7276,-3.6565,-3.6084,-3.5682,-3.5669,-3.5689,-3.5734,-3.5772,-3.5753,-3.5733,-3.5797,-3.583,-3.581,-3.5773,-3.5602,-3.5137,-3.4816,-3.44,-3.3814,-3.3014,-3.2239,-3.1777,-3.1484,-3.1246,-3.0937,-3.0918,-3.0898,-3.0879,-3.0879,-3.0898,-3.0898,-3.0898,-3.0898,-3.0879,-3.0879,-3.0859,-3.084,-3.082,-3.0813,-3.0786,-3.0742,-3.6442,-3.7634,-3.8536,-3.9249,-3.983,-4.0054,-4.0087,-4.018,-4.0548,-4.1082,-4.1611,-4.2219,-4.2632,-4.2732,-4.325,-4.3479,-4.3479,-4.3479,-4.3479,-4.3479,-4.3529,-4.3693,-4.3943,-4.4261,-4.4787,-4.5099,-4.5323,-4.5475,-4.5586,-4.5586,-4.5586,-4.5586,-4.5586,-4.5547,-4.547,-4.5182,-4.4759,-4.4701,-4.4586,-4.4509,-4.5086,-4.5278,-4.5509,-4.5586,-4.5586,-4.5586,-4.5586,-4.5586,-4.5163,-4.4316,-4.3236,-4.2416,-4.1822,-4.1358,-4.1079,-4.0995,-4.1011,-4.1074,-4.1133,-4.1133,-4.1172,-4.0937,-4.0742,-4.0254,-3.9902,-3.9336,-3.9101,-3.8926,-3.8701,-3.8782,-3.8565,-3.8262,-3.7916,-3.7709,-3.7194,-3.6521,-3.5944,-3.5778,-3.5718,-3.5766,-3.5813,-3.5815,-3.5776,-3.5787,-3.5813,-3.5826,-3.5715,-3.566,-3.5503,-3.4988,-3.4336,-3.3769,-3.3184,-3.2783,-3.2168,-3.1465,-3.1094,-3.0937,-3.0859,-3.0898,-3.0918,-3.0918,-3.0918,-3.0918,-3.0898,-3.0879,-3.0898,-3.0898,-3.0898,-3.0879,-3.0898,-3.0898,-3.0898,-3.0879,-3.084]}]]